<?xml version="1.0" encoding="UTF-8" standalone="no" ?>
<gpx xmlns="http://www.topografix.com/GPX/1/1" xmlns:xsi="http://www.w3.org/2001/XMLSchema-instance" xsi:schemaLocation="http://www.topografix.com/GPX/1/1 http://www.topografix.com/GPX/1/1/gpx.xsd" version="1.1" creator="VisuGPX - https://www.visugpx.com">
  <metadata>
    <name>Balade Brix - 28.02.22 - Rosy &amp; Samy</name>
  </metadata>
  <trk>
    <name><![CDATA[Balade Brix - 28.02.22 - Rosy & Samy_1]]></name>
    <trkseg>
      <trkpt lat="49.53429" lon="-1.53103">
        <ele>90.2</ele>
        <time>2022-02-28T14:08:00Z</time>
      </trkpt>
      <trkpt lat="49.53433" lon="-1.53098">
        <ele>88.7</ele>
        <time>2022-02-28T14:08:11Z</time>
      </trkpt>
      <trkpt lat="49.53439" lon="-1.53098">
        <ele>88.6</ele>
        <time>2022-02-28T14:08:15Z</time>
      </trkpt>
      <trkpt lat="49.53444" lon="-1.53099">
        <ele>88.1</ele>
        <time>2022-02-28T14:08:18Z</time>
      </trkpt>
      <trkpt lat="49.5345" lon="-1.53103">
        <ele>87.6</ele>
        <time>2022-02-28T14:08:22Z</time>
      </trkpt>
      <trkpt lat="49.53454" lon="-1.53106">
        <ele>87.2</ele>
        <time>2022-02-28T14:08:25Z</time>
      </trkpt>
      <trkpt lat="49.5346" lon="-1.53108">
        <ele>86.8</ele>
        <time>2022-02-28T14:08:28Z</time>
      </trkpt>
      <trkpt lat="49.53465" lon="-1.53112">
        <ele>86.7</ele>
        <time>2022-02-28T14:08:32Z</time>
      </trkpt>
      <trkpt lat="49.53471" lon="-1.53115">
        <ele>86.9</ele>
        <time>2022-02-28T14:08:36Z</time>
      </trkpt>
      <trkpt lat="49.53475" lon="-1.53118">
        <ele>87.2</ele>
        <time>2022-02-28T14:08:39Z</time>
      </trkpt>
      <trkpt lat="49.53478" lon="-1.53124">
        <ele>87.3</ele>
        <time>2022-02-28T14:08:43Z</time>
      </trkpt>
      <trkpt lat="49.53481" lon="-1.53129">
        <ele>87.1</ele>
        <time>2022-02-28T14:08:47Z</time>
      </trkpt>
      <trkpt lat="49.53484" lon="-1.53136">
        <ele>87</ele>
        <time>2022-02-28T14:08:52Z</time>
      </trkpt>
      <trkpt lat="49.53487" lon="-1.53144">
        <ele>87.1</ele>
        <time>2022-02-28T14:08:56Z</time>
      </trkpt>
      <trkpt lat="49.5349" lon="-1.53152">
        <ele>87.2</ele>
        <time>2022-02-28T14:08:59Z</time>
      </trkpt>
      <trkpt lat="49.53492" lon="-1.53159">
        <ele>87.3</ele>
        <time>2022-02-28T14:09:03Z</time>
      </trkpt>
      <trkpt lat="49.53495" lon="-1.53165">
        <ele>87.2</ele>
        <time>2022-02-28T14:09:07Z</time>
      </trkpt>
      <trkpt lat="49.53499" lon="-1.53172">
        <ele>87.3</ele>
        <time>2022-02-28T14:09:12Z</time>
      </trkpt>
      <trkpt lat="49.53499" lon="-1.53179">
        <ele>87.3</ele>
        <time>2022-02-28T14:09:17Z</time>
      </trkpt>
      <trkpt lat="49.53503" lon="-1.53185">
        <ele>87.6</ele>
        <time>2022-02-28T14:09:26Z</time>
      </trkpt>
      <trkpt lat="49.53506" lon="-1.53192">
        <ele>88.1</ele>
        <time>2022-02-28T14:09:30Z</time>
      </trkpt>
      <trkpt lat="49.53509" lon="-1.53197">
        <ele>88.3</ele>
        <time>2022-02-28T14:09:34Z</time>
      </trkpt>
      <trkpt lat="49.53512" lon="-1.53203">
        <ele>88.4</ele>
        <time>2022-02-28T14:09:37Z</time>
      </trkpt>
      <trkpt lat="49.53516" lon="-1.53209">
        <ele>88.6</ele>
        <time>2022-02-28T14:09:41Z</time>
      </trkpt>
      <trkpt lat="49.53518" lon="-1.53216">
        <ele>88.8</ele>
        <time>2022-02-28T14:09:44Z</time>
      </trkpt>
      <trkpt lat="49.53521" lon="-1.53223">
        <ele>88.9</ele>
        <time>2022-02-28T14:09:48Z</time>
      </trkpt>
      <trkpt lat="49.53524" lon="-1.53231">
        <ele>89</ele>
        <time>2022-02-28T14:09:51Z</time>
      </trkpt>
      <trkpt lat="49.53527" lon="-1.53239">
        <ele>89.1</ele>
        <time>2022-02-28T14:09:55Z</time>
      </trkpt>
      <trkpt lat="49.53528" lon="-1.53246">
        <ele>89.2</ele>
        <time>2022-02-28T14:09:59Z</time>
      </trkpt>
      <trkpt lat="49.53531" lon="-1.53254">
        <ele>89.2</ele>
        <time>2022-02-28T14:10:03Z</time>
      </trkpt>
      <trkpt lat="49.53534" lon="-1.53262">
        <ele>89.4</ele>
        <time>2022-02-28T14:10:07Z</time>
      </trkpt>
      <trkpt lat="49.53537" lon="-1.53268">
        <ele>89.9</ele>
        <time>2022-02-28T14:10:11Z</time>
      </trkpt>
      <trkpt lat="49.53541" lon="-1.53274">
        <ele>90.2</ele>
        <time>2022-02-28T14:10:15Z</time>
      </trkpt>
      <trkpt lat="49.53545" lon="-1.5328">
        <ele>90.1</ele>
        <time>2022-02-28T14:10:19Z</time>
      </trkpt>
      <trkpt lat="49.53547" lon="-1.53287">
        <ele>89.9</ele>
        <time>2022-02-28T14:10:22Z</time>
      </trkpt>
      <trkpt lat="49.5355" lon="-1.53295">
        <ele>89.5</ele>
        <time>2022-02-28T14:10:26Z</time>
      </trkpt>
      <trkpt lat="49.53553" lon="-1.53301">
        <ele>89.3</ele>
        <time>2022-02-28T14:10:30Z</time>
      </trkpt>
      <trkpt lat="49.53557" lon="-1.53307">
        <ele>89.4</ele>
        <time>2022-02-28T14:10:34Z</time>
      </trkpt>
      <trkpt lat="49.5356" lon="-1.53313">
        <ele>89.5</ele>
        <time>2022-02-28T14:10:37Z</time>
      </trkpt>
      <trkpt lat="49.53563" lon="-1.53322">
        <ele>89.5</ele>
        <time>2022-02-28T14:10:42Z</time>
      </trkpt>
      <trkpt lat="49.53566" lon="-1.53328">
        <ele>89.4</ele>
        <time>2022-02-28T14:10:46Z</time>
      </trkpt>
      <trkpt lat="49.53568" lon="-1.53335">
        <ele>89.2</ele>
        <time>2022-02-28T14:10:50Z</time>
      </trkpt>
      <trkpt lat="49.53571" lon="-1.53341">
        <ele>88.9</ele>
        <time>2022-02-28T14:10:53Z</time>
      </trkpt>
      <trkpt lat="49.53574" lon="-1.53349">
        <ele>88.7</ele>
        <time>2022-02-28T14:10:57Z</time>
      </trkpt>
      <trkpt lat="49.53577" lon="-1.53355">
        <ele>88.5</ele>
        <time>2022-02-28T14:11:00Z</time>
      </trkpt>
      <trkpt lat="49.5358" lon="-1.53363">
        <ele>88.4</ele>
        <time>2022-02-28T14:11:04Z</time>
      </trkpt>
      <trkpt lat="49.53582" lon="-1.5337">
        <ele>88.2</ele>
        <time>2022-02-28T14:11:07Z</time>
      </trkpt>
      <trkpt lat="49.53585" lon="-1.53376">
        <ele>88</ele>
        <time>2022-02-28T14:11:10Z</time>
      </trkpt>
      <trkpt lat="49.53588" lon="-1.53381">
        <ele>87.6</ele>
        <time>2022-02-28T14:11:13Z</time>
      </trkpt>
      <trkpt lat="49.53591" lon="-1.53387">
        <ele>87.6</ele>
        <time>2022-02-28T14:11:17Z</time>
      </trkpt>
      <trkpt lat="49.53594" lon="-1.53394">
        <ele>87.6</ele>
        <time>2022-02-28T14:11:20Z</time>
      </trkpt>
      <trkpt lat="49.53597" lon="-1.53401">
        <ele>87.8</ele>
        <time>2022-02-28T14:11:24Z</time>
      </trkpt>
      <trkpt lat="49.53601" lon="-1.53406">
        <ele>87.8</ele>
        <time>2022-02-28T14:11:37Z</time>
      </trkpt>
      <trkpt lat="49.53605" lon="-1.5341">
        <ele>87.7</ele>
        <time>2022-02-28T14:11:41Z</time>
      </trkpt>
      <trkpt lat="49.53608" lon="-1.53418">
        <ele>87.6</ele>
        <time>2022-02-28T14:11:44Z</time>
      </trkpt>
      <trkpt lat="49.53611" lon="-1.53425">
        <ele>87.6</ele>
        <time>2022-02-28T14:11:48Z</time>
      </trkpt>
      <trkpt lat="49.53613" lon="-1.53432">
        <ele>87.6</ele>
        <time>2022-02-28T14:11:51Z</time>
      </trkpt>
      <trkpt lat="49.53617" lon="-1.53437">
        <ele>87.5</ele>
        <time>2022-02-28T14:11:55Z</time>
      </trkpt>
      <trkpt lat="49.53621" lon="-1.53441">
        <ele>87.4</ele>
        <time>2022-02-28T14:11:57Z</time>
      </trkpt>
      <trkpt lat="49.53625" lon="-1.53447">
        <ele>87</ele>
        <time>2022-02-28T14:12:01Z</time>
      </trkpt>
      <trkpt lat="49.53629" lon="-1.5345">
        <ele>86.8</ele>
        <time>2022-02-28T14:12:04Z</time>
      </trkpt>
      <trkpt lat="49.53633" lon="-1.53454">
        <ele>86.6</ele>
        <time>2022-02-28T14:12:07Z</time>
      </trkpt>
      <trkpt lat="49.53636" lon="-1.53449">
        <ele>86.3</ele>
        <time>2022-02-28T14:12:25Z</time>
      </trkpt>
      <trkpt lat="49.53642" lon="-1.5345">
        <ele>86.4</ele>
        <time>2022-02-28T14:12:28Z</time>
      </trkpt>
      <trkpt lat="49.53648" lon="-1.53453">
        <ele>86.5</ele>
        <time>2022-02-28T14:12:31Z</time>
      </trkpt>
      <trkpt lat="49.53654" lon="-1.53453">
        <ele>86.6</ele>
        <time>2022-02-28T14:12:35Z</time>
      </trkpt>
      <trkpt lat="49.53658" lon="-1.53451">
        <ele>86.5</ele>
        <time>2022-02-28T14:12:38Z</time>
      </trkpt>
      <trkpt lat="49.53663" lon="-1.53449">
        <ele>86.5</ele>
        <time>2022-02-28T14:12:41Z</time>
      </trkpt>
      <trkpt lat="49.53668" lon="-1.53448">
        <ele>86.5</ele>
        <time>2022-02-28T14:12:44Z</time>
      </trkpt>
      <trkpt lat="49.53673" lon="-1.53447">
        <ele>86.6</ele>
        <time>2022-02-28T14:12:47Z</time>
      </trkpt>
      <trkpt lat="49.53678" lon="-1.53447">
        <ele>87</ele>
        <time>2022-02-28T14:12:51Z</time>
      </trkpt>
      <trkpt lat="49.53683" lon="-1.53446">
        <ele>87.5</ele>
        <time>2022-02-28T14:12:55Z</time>
      </trkpt>
      <trkpt lat="49.53689" lon="-1.53445">
        <ele>87.7</ele>
        <time>2022-02-28T14:12:59Z</time>
      </trkpt>
      <trkpt lat="49.53694" lon="-1.53445">
        <ele>87.7</ele>
        <time>2022-02-28T14:13:03Z</time>
      </trkpt>
      <trkpt lat="49.53699" lon="-1.53445">
        <ele>87.7</ele>
        <time>2022-02-28T14:13:06Z</time>
      </trkpt>
      <trkpt lat="49.53703" lon="-1.53444">
        <ele>87.5</ele>
        <time>2022-02-28T14:13:11Z</time>
      </trkpt>
      <trkpt lat="49.53708" lon="-1.53441">
        <ele>87.5</ele>
        <time>2022-02-28T14:13:15Z</time>
      </trkpt>
      <trkpt lat="49.53712" lon="-1.5344">
        <ele>87.4</ele>
        <time>2022-02-28T14:13:19Z</time>
      </trkpt>
      <trkpt lat="49.53717" lon="-1.53436">
        <ele>87.5</ele>
        <time>2022-02-28T14:13:23Z</time>
      </trkpt>
      <trkpt lat="49.53722" lon="-1.53433">
        <ele>87.6</ele>
        <time>2022-02-28T14:13:27Z</time>
      </trkpt>
      <trkpt lat="49.53726" lon="-1.53431">
        <ele>87.8</ele>
        <time>2022-02-28T14:13:31Z</time>
      </trkpt>
      <trkpt lat="49.53731" lon="-1.53432">
        <ele>88.5</ele>
        <time>2022-02-28T14:13:47Z</time>
      </trkpt>
      <trkpt lat="49.53736" lon="-1.53431">
        <ele>88.5</ele>
        <time>2022-02-28T14:13:49Z</time>
      </trkpt>
      <trkpt lat="49.53741" lon="-1.53429">
        <ele>88.5</ele>
        <time>2022-02-28T14:13:52Z</time>
      </trkpt>
      <trkpt lat="49.53747" lon="-1.53429">
        <ele>88.4</ele>
        <time>2022-02-28T14:13:55Z</time>
      </trkpt>
      <trkpt lat="49.53753" lon="-1.53428">
        <ele>88.4</ele>
        <time>2022-02-28T14:14:00Z</time>
      </trkpt>
      <trkpt lat="49.53758" lon="-1.53427">
        <ele>88.5</ele>
        <time>2022-02-28T14:14:04Z</time>
      </trkpt>
      <trkpt lat="49.53763" lon="-1.53429">
        <ele>88.7</ele>
        <time>2022-02-28T14:14:08Z</time>
      </trkpt>
      <trkpt lat="49.53769" lon="-1.5343">
        <ele>88.5</ele>
        <time>2022-02-28T14:14:13Z</time>
      </trkpt>
      <trkpt lat="49.53774" lon="-1.53429">
        <ele>88.2</ele>
        <time>2022-02-28T14:14:17Z</time>
      </trkpt>
      <trkpt lat="49.5378" lon="-1.53429">
        <ele>87.9</ele>
        <time>2022-02-28T14:14:21Z</time>
      </trkpt>
      <trkpt lat="49.53788" lon="-1.53429">
        <ele>87.9</ele>
        <time>2022-02-28T14:14:25Z</time>
      </trkpt>
      <trkpt lat="49.53794" lon="-1.5343">
        <ele>88.2</ele>
        <time>2022-02-28T14:14:28Z</time>
      </trkpt>
      <trkpt lat="49.53799" lon="-1.5343">
        <ele>88.4</ele>
        <time>2022-02-28T14:14:32Z</time>
      </trkpt>
      <trkpt lat="49.53804" lon="-1.53431">
        <ele>88.4</ele>
        <time>2022-02-28T14:14:35Z</time>
      </trkpt>
      <trkpt lat="49.53811" lon="-1.53431">
        <ele>88.4</ele>
        <time>2022-02-28T14:14:40Z</time>
      </trkpt>
      <trkpt lat="49.53815" lon="-1.5343">
        <ele>88.7</ele>
        <time>2022-02-28T14:14:43Z</time>
      </trkpt>
      <trkpt lat="49.5382" lon="-1.53428">
        <ele>88.8</ele>
        <time>2022-02-28T14:14:46Z</time>
      </trkpt>
      <trkpt lat="49.53826" lon="-1.53424">
        <ele>89</ele>
        <time>2022-02-28T14:14:50Z</time>
      </trkpt>
      <trkpt lat="49.53831" lon="-1.53419">
        <ele>88.9</ele>
        <time>2022-02-28T14:14:54Z</time>
      </trkpt>
      <trkpt lat="49.53835" lon="-1.53413">
        <ele>89</ele>
        <time>2022-02-28T14:14:57Z</time>
      </trkpt>
      <trkpt lat="49.53838" lon="-1.53407">
        <ele>89.1</ele>
        <time>2022-02-28T14:15:00Z</time>
      </trkpt>
      <trkpt lat="49.5384" lon="-1.534">
        <ele>89.1</ele>
        <time>2022-02-28T14:15:03Z</time>
      </trkpt>
      <trkpt lat="49.53843" lon="-1.53392">
        <ele>89.2</ele>
        <time>2022-02-28T14:15:07Z</time>
      </trkpt>
      <trkpt lat="49.53845" lon="-1.53384">
        <ele>89.2</ele>
        <time>2022-02-28T14:15:11Z</time>
      </trkpt>
      <trkpt lat="49.53848" lon="-1.53376">
        <ele>89.5</ele>
        <time>2022-02-28T14:15:15Z</time>
      </trkpt>
      <trkpt lat="49.53851" lon="-1.5337">
        <ele>89.8</ele>
        <time>2022-02-28T14:15:22Z</time>
      </trkpt>
      <trkpt lat="49.53852" lon="-1.53361">
        <ele>89.9</ele>
        <time>2022-02-28T14:15:26Z</time>
      </trkpt>
      <trkpt lat="49.53854" lon="-1.53354">
        <ele>90</ele>
        <time>2022-02-28T14:15:30Z</time>
      </trkpt>
      <trkpt lat="49.53858" lon="-1.53347">
        <ele>90.3</ele>
        <time>2022-02-28T14:15:34Z</time>
      </trkpt>
      <trkpt lat="49.53859" lon="-1.5334">
        <ele>90.5</ele>
        <time>2022-02-28T14:15:37Z</time>
      </trkpt>
      <trkpt lat="49.53862" lon="-1.53332">
        <ele>91.1</ele>
        <time>2022-02-28T14:15:41Z</time>
      </trkpt>
      <trkpt lat="49.53865" lon="-1.53325">
        <ele>91.6</ele>
        <time>2022-02-28T14:15:46Z</time>
      </trkpt>
      <trkpt lat="49.53868" lon="-1.53317">
        <ele>91.8</ele>
        <time>2022-02-28T14:15:50Z</time>
      </trkpt>
      <trkpt lat="49.5387" lon="-1.53311">
        <ele>91.9</ele>
        <time>2022-02-28T14:15:53Z</time>
      </trkpt>
      <trkpt lat="49.53872" lon="-1.53303">
        <ele>92</ele>
        <time>2022-02-28T14:15:57Z</time>
      </trkpt>
      <trkpt lat="49.53876" lon="-1.53297">
        <ele>92.3</ele>
        <time>2022-02-28T14:16:03Z</time>
      </trkpt>
      <trkpt lat="49.53881" lon="-1.53295">
        <ele>92.1</ele>
        <time>2022-02-28T14:16:09Z</time>
      </trkpt>
      <trkpt lat="49.53882" lon="-1.53288">
        <ele>92.1</ele>
        <time>2022-02-28T14:16:11Z</time>
      </trkpt>
      <trkpt lat="49.53884" lon="-1.53281">
        <ele>92.4</ele>
        <time>2022-02-28T14:16:15Z</time>
      </trkpt>
      <trkpt lat="49.53885" lon="-1.53272">
        <ele>92.8</ele>
        <time>2022-02-28T14:16:18Z</time>
      </trkpt>
      <trkpt lat="49.53888" lon="-1.53266">
        <ele>92.9</ele>
        <time>2022-02-28T14:16:22Z</time>
      </trkpt>
      <trkpt lat="49.53892" lon="-1.5326">
        <ele>93.4</ele>
        <time>2022-02-28T14:16:26Z</time>
      </trkpt>
      <trkpt lat="49.53895" lon="-1.53253">
        <ele>94</ele>
        <time>2022-02-28T14:16:29Z</time>
      </trkpt>
      <trkpt lat="49.53897" lon="-1.53245">
        <ele>94.2</ele>
        <time>2022-02-28T14:16:34Z</time>
      </trkpt>
      <trkpt lat="49.539" lon="-1.53237">
        <ele>94.1</ele>
        <time>2022-02-28T14:16:38Z</time>
      </trkpt>
      <trkpt lat="49.53904" lon="-1.53229">
        <ele>93.9</ele>
        <time>2022-02-28T14:16:42Z</time>
      </trkpt>
      <trkpt lat="49.53907" lon="-1.53222">
        <ele>94</ele>
        <time>2022-02-28T14:16:45Z</time>
      </trkpt>
      <trkpt lat="49.53909" lon="-1.53216">
        <ele>94.3</ele>
        <time>2022-02-28T14:16:49Z</time>
      </trkpt>
      <trkpt lat="49.5391" lon="-1.53208">
        <ele>94.7</ele>
        <time>2022-02-28T14:16:53Z</time>
      </trkpt>
      <trkpt lat="49.53912" lon="-1.532">
        <ele>95.4</ele>
        <time>2022-02-28T14:16:59Z</time>
      </trkpt>
      <trkpt lat="49.53913" lon="-1.53192">
        <ele>95.5</ele>
        <time>2022-02-28T14:17:04Z</time>
      </trkpt>
      <trkpt lat="49.53916" lon="-1.53183">
        <ele>95.3</ele>
        <time>2022-02-28T14:17:08Z</time>
      </trkpt>
      <trkpt lat="49.53919" lon="-1.53178">
        <ele>95.2</ele>
        <time>2022-02-28T14:17:11Z</time>
      </trkpt>
      <trkpt lat="49.53922" lon="-1.53171">
        <ele>94.8</ele>
        <time>2022-02-28T14:17:15Z</time>
      </trkpt>
      <trkpt lat="49.53925" lon="-1.53165">
        <ele>94.7</ele>
        <time>2022-02-28T14:17:18Z</time>
      </trkpt>
      <trkpt lat="49.5393" lon="-1.5316">
        <ele>94.8</ele>
        <time>2022-02-28T14:17:22Z</time>
      </trkpt>
      <trkpt lat="49.53935" lon="-1.53157">
        <ele>94.8</ele>
        <time>2022-02-28T14:17:25Z</time>
      </trkpt>
      <trkpt lat="49.5394" lon="-1.53155">
        <ele>94.8</ele>
        <time>2022-02-28T14:17:28Z</time>
      </trkpt>
      <trkpt lat="49.53945" lon="-1.53154">
        <ele>94.6</ele>
        <time>2022-02-28T14:17:31Z</time>
      </trkpt>
      <trkpt lat="49.5395" lon="-1.53155">
        <ele>94.5</ele>
        <time>2022-02-28T14:17:35Z</time>
      </trkpt>
      <trkpt lat="49.53954" lon="-1.53159">
        <ele>94.5</ele>
        <time>2022-02-28T14:17:38Z</time>
      </trkpt>
      <trkpt lat="49.5396" lon="-1.53162">
        <ele>94.3</ele>
        <time>2022-02-28T14:17:42Z</time>
      </trkpt>
      <trkpt lat="49.53964" lon="-1.53166">
        <ele>94</ele>
        <time>2022-02-28T14:17:45Z</time>
      </trkpt>
      <trkpt lat="49.53969" lon="-1.53169">
        <ele>93.5</ele>
        <time>2022-02-28T14:17:49Z</time>
      </trkpt>
      <trkpt lat="49.53974" lon="-1.53172">
        <ele>92.8</ele>
        <time>2022-02-28T14:17:53Z</time>
      </trkpt>
      <trkpt lat="49.53978" lon="-1.53175">
        <ele>92.4</ele>
        <time>2022-02-28T14:17:56Z</time>
      </trkpt>
      <trkpt lat="49.53982" lon="-1.53177">
        <ele>91.9</ele>
        <time>2022-02-28T14:17:59Z</time>
      </trkpt>
      <trkpt lat="49.53987" lon="-1.53181">
        <ele>91.8</ele>
        <time>2022-02-28T14:18:03Z</time>
      </trkpt>
      <trkpt lat="49.53992" lon="-1.53184">
        <ele>91.7</ele>
        <time>2022-02-28T14:18:06Z</time>
      </trkpt>
      <trkpt lat="49.53997" lon="-1.53187">
        <ele>91.4</ele>
        <time>2022-02-28T14:18:09Z</time>
      </trkpt>
      <trkpt lat="49.54002" lon="-1.5319">
        <ele>91.1</ele>
        <time>2022-02-28T14:18:12Z</time>
      </trkpt>
      <trkpt lat="49.54008" lon="-1.53194">
        <ele>90.5</ele>
        <time>2022-02-28T14:18:15Z</time>
      </trkpt>
      <trkpt lat="49.54013" lon="-1.53192">
        <ele>89.9</ele>
        <time>2022-02-28T14:18:27Z</time>
      </trkpt>
      <trkpt lat="49.54017" lon="-1.53186">
        <ele>89.7</ele>
        <time>2022-02-28T14:18:31Z</time>
      </trkpt>
      <trkpt lat="49.54021" lon="-1.53181">
        <ele>89.4</ele>
        <time>2022-02-28T14:18:36Z</time>
      </trkpt>
      <trkpt lat="49.54022" lon="-1.53172">
        <ele>88.8</ele>
        <time>2022-02-28T14:18:40Z</time>
      </trkpt>
      <trkpt lat="49.54022" lon="-1.53165">
        <ele>88.7</ele>
        <time>2022-02-28T14:18:45Z</time>
      </trkpt>
      <trkpt lat="49.54025" lon="-1.53158">
        <ele>89</ele>
        <time>2022-02-28T14:18:49Z</time>
      </trkpt>
      <trkpt lat="49.54029" lon="-1.53154">
        <ele>89</ele>
        <time>2022-02-28T14:18:52Z</time>
      </trkpt>
      <trkpt lat="49.54033" lon="-1.5315">
        <ele>88.8</ele>
        <time>2022-02-28T14:18:55Z</time>
      </trkpt>
      <trkpt lat="49.54037" lon="-1.53145">
        <ele>88.7</ele>
        <time>2022-02-28T14:18:59Z</time>
      </trkpt>
      <trkpt lat="49.54041" lon="-1.5314">
        <ele>88.8</ele>
        <time>2022-02-28T14:19:02Z</time>
      </trkpt>
      <trkpt lat="49.54045" lon="-1.53135">
        <ele>89.3</ele>
        <time>2022-02-28T14:19:05Z</time>
      </trkpt>
      <trkpt lat="49.54048" lon="-1.5313">
        <ele>89.7</ele>
        <time>2022-02-28T14:19:09Z</time>
      </trkpt>
      <trkpt lat="49.54051" lon="-1.53124">
        <ele>90</ele>
        <time>2022-02-28T14:19:12Z</time>
      </trkpt>
      <trkpt lat="49.54053" lon="-1.53117">
        <ele>90.2</ele>
        <time>2022-02-28T14:19:16Z</time>
      </trkpt>
      <trkpt lat="49.54057" lon="-1.53111">
        <ele>90.2</ele>
        <time>2022-02-28T14:19:20Z</time>
      </trkpt>
      <trkpt lat="49.54062" lon="-1.53106">
        <ele>90</ele>
        <time>2022-02-28T14:19:24Z</time>
      </trkpt>
      <trkpt lat="49.54065" lon="-1.53101">
        <ele>90.2</ele>
        <time>2022-02-28T14:19:27Z</time>
      </trkpt>
      <trkpt lat="49.54069" lon="-1.53094">
        <ele>90.3</ele>
        <time>2022-02-28T14:19:30Z</time>
      </trkpt>
      <trkpt lat="49.54073" lon="-1.53089">
        <ele>90.3</ele>
        <time>2022-02-28T14:19:34Z</time>
      </trkpt>
      <trkpt lat="49.54077" lon="-1.53083">
        <ele>90.3</ele>
        <time>2022-02-28T14:19:38Z</time>
      </trkpt>
      <trkpt lat="49.5408" lon="-1.53078">
        <ele>90.4</ele>
        <time>2022-02-28T14:19:42Z</time>
      </trkpt>
      <trkpt lat="49.54083" lon="-1.53073">
        <ele>90.7</ele>
        <time>2022-02-28T14:19:45Z</time>
      </trkpt>
      <trkpt lat="49.54087" lon="-1.53068">
        <ele>91</ele>
        <time>2022-02-28T14:19:48Z</time>
      </trkpt>
      <trkpt lat="49.54091" lon="-1.53063">
        <ele>90.9</ele>
        <time>2022-02-28T14:19:52Z</time>
      </trkpt>
      <trkpt lat="49.54095" lon="-1.5306">
        <ele>90.8</ele>
        <time>2022-02-28T14:19:55Z</time>
      </trkpt>
      <trkpt lat="49.54101" lon="-1.53062">
        <ele>90.7</ele>
        <time>2022-02-28T14:19:59Z</time>
      </trkpt>
      <trkpt lat="49.54104" lon="-1.53067">
        <ele>90.8</ele>
        <time>2022-02-28T14:20:04Z</time>
      </trkpt>
      <trkpt lat="49.54109" lon="-1.53075">
        <ele>90.7</ele>
        <time>2022-02-28T14:20:08Z</time>
      </trkpt>
      <trkpt lat="49.54111" lon="-1.53083">
        <ele>90.6</ele>
        <time>2022-02-28T14:20:13Z</time>
      </trkpt>
      <trkpt lat="49.54114" lon="-1.53091">
        <ele>90.6</ele>
        <time>2022-02-28T14:20:16Z</time>
      </trkpt>
      <trkpt lat="49.54117" lon="-1.53098">
        <ele>90.7</ele>
        <time>2022-02-28T14:20:20Z</time>
      </trkpt>
      <trkpt lat="49.5412" lon="-1.53105">
        <ele>90.3</ele>
        <time>2022-02-28T14:20:24Z</time>
      </trkpt>
      <trkpt lat="49.54123" lon="-1.53111">
        <ele>90</ele>
        <time>2022-02-28T14:20:27Z</time>
      </trkpt>
      <trkpt lat="49.54127" lon="-1.53116">
        <ele>89.7</ele>
        <time>2022-02-28T14:20:30Z</time>
      </trkpt>
      <trkpt lat="49.54131" lon="-1.53122">
        <ele>89.6</ele>
        <time>2022-02-28T14:20:33Z</time>
      </trkpt>
      <trkpt lat="49.54135" lon="-1.53128">
        <ele>89.4</ele>
        <time>2022-02-28T14:20:37Z</time>
      </trkpt>
      <trkpt lat="49.54139" lon="-1.53135">
        <ele>89.3</ele>
        <time>2022-02-28T14:20:40Z</time>
      </trkpt>
      <trkpt lat="49.54142" lon="-1.53142">
        <ele>89.2</ele>
        <time>2022-02-28T14:20:44Z</time>
      </trkpt>
      <trkpt lat="49.54146" lon="-1.53148">
        <ele>88.9</ele>
        <time>2022-02-28T14:20:48Z</time>
      </trkpt>
      <trkpt lat="49.54148" lon="-1.53155">
        <ele>88.5</ele>
        <time>2022-02-28T14:20:53Z</time>
      </trkpt>
      <trkpt lat="49.5415" lon="-1.53163">
        <ele>88.6</ele>
        <time>2022-02-28T14:20:56Z</time>
      </trkpt>
      <trkpt lat="49.54152" lon="-1.53172">
        <ele>89</ele>
        <time>2022-02-28T14:21:01Z</time>
      </trkpt>
      <trkpt lat="49.54154" lon="-1.53181">
        <ele>89.1</ele>
        <time>2022-02-28T14:21:06Z</time>
      </trkpt>
      <trkpt lat="49.54156" lon="-1.53188">
        <ele>89.1</ele>
        <time>2022-02-28T14:21:10Z</time>
      </trkpt>
      <trkpt lat="49.54158" lon="-1.53194">
        <ele>88.9</ele>
        <time>2022-02-28T14:21:14Z</time>
      </trkpt>
      <trkpt lat="49.54161" lon="-1.53201">
        <ele>88.7</ele>
        <time>2022-02-28T14:21:17Z</time>
      </trkpt>
      <trkpt lat="49.54163" lon="-1.53209">
        <ele>88.5</ele>
        <time>2022-02-28T14:21:22Z</time>
      </trkpt>
      <trkpt lat="49.54166" lon="-1.53216">
        <ele>88.5</ele>
        <time>2022-02-28T14:21:25Z</time>
      </trkpt>
      <trkpt lat="49.54168" lon="-1.53223">
        <ele>88.5</ele>
        <time>2022-02-28T14:21:29Z</time>
      </trkpt>
      <trkpt lat="49.54171" lon="-1.5323">
        <ele>88.6</ele>
        <time>2022-02-28T14:21:33Z</time>
      </trkpt>
      <trkpt lat="49.54174" lon="-1.53237">
        <ele>88.4</ele>
        <time>2022-02-28T14:21:36Z</time>
      </trkpt>
      <trkpt lat="49.54177" lon="-1.53246">
        <ele>88</ele>
        <time>2022-02-28T14:21:41Z</time>
      </trkpt>
      <trkpt lat="49.54181" lon="-1.53253">
        <ele>87.7</ele>
        <time>2022-02-28T14:21:45Z</time>
      </trkpt>
      <trkpt lat="49.54184" lon="-1.53261">
        <ele>87.6</ele>
        <time>2022-02-28T14:21:50Z</time>
      </trkpt>
      <trkpt lat="49.54187" lon="-1.53268">
        <ele>87.9</ele>
        <time>2022-02-28T14:21:53Z</time>
      </trkpt>
      <trkpt lat="49.54189" lon="-1.53275">
        <ele>88</ele>
        <time>2022-02-28T14:21:57Z</time>
      </trkpt>
      <trkpt lat="49.54193" lon="-1.53283">
        <ele>87.7</ele>
        <time>2022-02-28T14:22:01Z</time>
      </trkpt>
      <trkpt lat="49.54196" lon="-1.5329">
        <ele>87</ele>
        <time>2022-02-28T14:22:06Z</time>
      </trkpt>
      <trkpt lat="49.54199" lon="-1.53296">
        <ele>86.3</ele>
        <time>2022-02-28T14:22:09Z</time>
      </trkpt>
      <trkpt lat="49.54203" lon="-1.53304">
        <ele>85.7</ele>
        <time>2022-02-28T14:22:13Z</time>
      </trkpt>
      <trkpt lat="49.54206" lon="-1.5331">
        <ele>85.4</ele>
        <time>2022-02-28T14:22:17Z</time>
      </trkpt>
      <trkpt lat="49.54211" lon="-1.53331">
        <ele>84.9</ele>
        <time>2022-02-28T14:22:27Z</time>
      </trkpt>
      <trkpt lat="49.54214" lon="-1.53337">
        <ele>84.8</ele>
        <time>2022-02-28T14:22:30Z</time>
      </trkpt>
      <trkpt lat="49.54216" lon="-1.53344">
        <ele>84.7</ele>
        <time>2022-02-28T14:22:33Z</time>
      </trkpt>
      <trkpt lat="49.54218" lon="-1.5335">
        <ele>84.7</ele>
        <time>2022-02-28T14:22:36Z</time>
      </trkpt>
      <trkpt lat="49.54221" lon="-1.53357">
        <ele>84.7</ele>
        <time>2022-02-28T14:22:40Z</time>
      </trkpt>
      <trkpt lat="49.54224" lon="-1.53363">
        <ele>84.6</ele>
        <time>2022-02-28T14:22:43Z</time>
      </trkpt>
      <trkpt lat="49.54227" lon="-1.53371">
        <ele>84.4</ele>
        <time>2022-02-28T14:22:48Z</time>
      </trkpt>
      <trkpt lat="49.5423" lon="-1.53378">
        <ele>84.3</ele>
        <time>2022-02-28T14:22:51Z</time>
      </trkpt>
      <trkpt lat="49.54233" lon="-1.53386">
        <ele>84.1</ele>
        <time>2022-02-28T14:22:55Z</time>
      </trkpt>
      <trkpt lat="49.54237" lon="-1.53394">
        <ele>83.9</ele>
        <time>2022-02-28T14:22:59Z</time>
      </trkpt>
      <trkpt lat="49.54239" lon="-1.53401">
        <ele>83.6</ele>
        <time>2022-02-28T14:23:02Z</time>
      </trkpt>
      <trkpt lat="49.5425" lon="-1.5343">
        <ele>83.2</ele>
        <time>2022-02-28T14:23:17Z</time>
      </trkpt>
      <trkpt lat="49.54253" lon="-1.53437">
        <ele>83</ele>
        <time>2022-02-28T14:23:20Z</time>
      </trkpt>
      <trkpt lat="49.54256" lon="-1.53444">
        <ele>82.7</ele>
        <time>2022-02-28T14:23:23Z</time>
      </trkpt>
      <trkpt lat="49.54259" lon="-1.5345">
        <ele>82.4</ele>
        <time>2022-02-28T14:23:27Z</time>
      </trkpt>
      <trkpt lat="49.54262" lon="-1.53457">
        <ele>82.4</ele>
        <time>2022-02-28T14:23:31Z</time>
      </trkpt>
      <trkpt lat="49.54265" lon="-1.53463">
        <ele>82.5</ele>
        <time>2022-02-28T14:23:35Z</time>
      </trkpt>
      <trkpt lat="49.54268" lon="-1.5347">
        <ele>82.4</ele>
        <time>2022-02-28T14:23:39Z</time>
      </trkpt>
      <trkpt lat="49.54272" lon="-1.53478">
        <ele>82.2</ele>
        <time>2022-02-28T14:23:42Z</time>
      </trkpt>
      <trkpt lat="49.54275" lon="-1.53485">
        <ele>82.1</ele>
        <time>2022-02-28T14:23:47Z</time>
      </trkpt>
      <trkpt lat="49.5428" lon="-1.53494">
        <ele>82</ele>
        <time>2022-02-28T14:23:51Z</time>
      </trkpt>
      <trkpt lat="49.54282" lon="-1.53502">
        <ele>82.1</ele>
        <time>2022-02-28T14:23:54Z</time>
      </trkpt>
      <trkpt lat="49.54285" lon="-1.53508">
        <ele>82.1</ele>
        <time>2022-02-28T14:23:58Z</time>
      </trkpt>
      <trkpt lat="49.54287" lon="-1.53516">
        <ele>82</ele>
        <time>2022-02-28T14:24:02Z</time>
      </trkpt>
      <trkpt lat="49.54291" lon="-1.53522">
        <ele>81.7</ele>
        <time>2022-02-28T14:24:05Z</time>
      </trkpt>
      <trkpt lat="49.54294" lon="-1.53528">
        <ele>81.5</ele>
        <time>2022-02-28T14:24:08Z</time>
      </trkpt>
      <trkpt lat="49.54296" lon="-1.53534">
        <ele>81.2</ele>
        <time>2022-02-28T14:24:12Z</time>
      </trkpt>
      <trkpt lat="49.54298" lon="-1.53541">
        <ele>80.9</ele>
        <time>2022-02-28T14:24:15Z</time>
      </trkpt>
      <trkpt lat="49.54301" lon="-1.53547">
        <ele>80.5</ele>
        <time>2022-02-28T14:24:18Z</time>
      </trkpt>
      <trkpt lat="49.54305" lon="-1.53553">
        <ele>80.1</ele>
        <time>2022-02-28T14:24:23Z</time>
      </trkpt>
      <trkpt lat="49.54308" lon="-1.5356">
        <ele>79.7</ele>
        <time>2022-02-28T14:24:26Z</time>
      </trkpt>
      <trkpt lat="49.54311" lon="-1.53567">
        <ele>79.3</ele>
        <time>2022-02-28T14:24:30Z</time>
      </trkpt>
      <trkpt lat="49.54316" lon="-1.53575">
        <ele>79</ele>
        <time>2022-02-28T14:24:34Z</time>
      </trkpt>
      <trkpt lat="49.5432" lon="-1.53582">
        <ele>79</ele>
        <time>2022-02-28T14:24:39Z</time>
      </trkpt>
      <trkpt lat="49.54324" lon="-1.53589">
        <ele>78.9</ele>
        <time>2022-02-28T14:24:44Z</time>
      </trkpt>
      <trkpt lat="49.54327" lon="-1.53595">
        <ele>78.8</ele>
        <time>2022-02-28T14:24:49Z</time>
      </trkpt>
      <trkpt lat="49.54331" lon="-1.53601">
        <ele>78.7</ele>
        <time>2022-02-28T14:24:53Z</time>
      </trkpt>
      <trkpt lat="49.54334" lon="-1.53606">
        <ele>78.6</ele>
        <time>2022-02-28T14:24:56Z</time>
      </trkpt>
      <trkpt lat="49.54338" lon="-1.53613">
        <ele>78.6</ele>
        <time>2022-02-28T14:25:00Z</time>
      </trkpt>
      <trkpt lat="49.54341" lon="-1.53608">
        <ele>78.6</ele>
        <time>2022-02-28T14:25:15Z</time>
      </trkpt>
      <trkpt lat="49.54346" lon="-1.53603">
        <ele>78.5</ele>
        <time>2022-02-28T14:25:18Z</time>
      </trkpt>
      <trkpt lat="49.54359" lon="-1.53584">
        <ele>77.7</ele>
        <time>2022-02-28T14:25:27Z</time>
      </trkpt>
      <trkpt lat="49.54363" lon="-1.5358">
        <ele>77.5</ele>
        <time>2022-02-28T14:25:30Z</time>
      </trkpt>
      <trkpt lat="49.5438" lon="-1.53562">
        <ele>76</ele>
        <time>2022-02-28T14:25:43Z</time>
      </trkpt>
      <trkpt lat="49.54385" lon="-1.53561">
        <ele>76</ele>
        <time>2022-02-28T14:25:47Z</time>
      </trkpt>
      <trkpt lat="49.54389" lon="-1.53563">
        <ele>75.8</ele>
        <time>2022-02-28T14:25:56Z</time>
      </trkpt>
      <trkpt lat="49.54394" lon="-1.53567">
        <ele>75.6</ele>
        <time>2022-02-28T14:25:58Z</time>
      </trkpt>
      <trkpt lat="49.54398" lon="-1.53571">
        <ele>75.4</ele>
        <time>2022-02-28T14:26:00Z</time>
      </trkpt>
      <trkpt lat="49.54402" lon="-1.53575">
        <ele>75.2</ele>
        <time>2022-02-28T14:26:02Z</time>
      </trkpt>
      <trkpt lat="49.54408" lon="-1.53581">
        <ele>74.8</ele>
        <time>2022-02-28T14:26:05Z</time>
      </trkpt>
      <trkpt lat="49.5442" lon="-1.53594">
        <ele>74.3</ele>
        <time>2022-02-28T14:26:12Z</time>
      </trkpt>
      <trkpt lat="49.54424" lon="-1.53597">
        <ele>73.9</ele>
        <time>2022-02-28T14:26:16Z</time>
      </trkpt>
      <trkpt lat="49.54429" lon="-1.53603">
        <ele>73.8</ele>
        <time>2022-02-28T14:26:19Z</time>
      </trkpt>
      <trkpt lat="49.54434" lon="-1.53607">
        <ele>73.8</ele>
        <time>2022-02-28T14:26:23Z</time>
      </trkpt>
      <trkpt lat="49.54438" lon="-1.53611">
        <ele>73.8</ele>
        <time>2022-02-28T14:26:26Z</time>
      </trkpt>
      <trkpt lat="49.54458" lon="-1.53627">
        <ele>72.8</ele>
        <time>2022-02-28T14:26:41Z</time>
      </trkpt>
      <trkpt lat="49.54461" lon="-1.53633">
        <ele>72.8</ele>
        <time>2022-02-28T14:26:44Z</time>
      </trkpt>
      <trkpt lat="49.54463" lon="-1.5364">
        <ele>72.8</ele>
        <time>2022-02-28T14:26:48Z</time>
      </trkpt>
      <trkpt lat="49.54466" lon="-1.53649">
        <ele>72.8</ele>
        <time>2022-02-28T14:26:52Z</time>
      </trkpt>
      <trkpt lat="49.54468" lon="-1.53656">
        <ele>72.6</ele>
        <time>2022-02-28T14:26:57Z</time>
      </trkpt>
      <trkpt lat="49.5447" lon="-1.53664">
        <ele>72.7</ele>
        <time>2022-02-28T14:27:01Z</time>
      </trkpt>
      <trkpt lat="49.54471" lon="-1.53672">
        <ele>72.7</ele>
        <time>2022-02-28T14:27:05Z</time>
      </trkpt>
      <trkpt lat="49.54473" lon="-1.5368">
        <ele>72.9</ele>
        <time>2022-02-28T14:27:08Z</time>
      </trkpt>
      <trkpt lat="49.54474" lon="-1.53689">
        <ele>73.2</ele>
        <time>2022-02-28T14:27:13Z</time>
      </trkpt>
      <trkpt lat="49.54477" lon="-1.537">
        <ele>73.4</ele>
        <time>2022-02-28T14:27:18Z</time>
      </trkpt>
      <trkpt lat="49.54478" lon="-1.5371">
        <ele>73.5</ele>
        <time>2022-02-28T14:27:23Z</time>
      </trkpt>
      <trkpt lat="49.54479" lon="-1.53719">
        <ele>73.7</ele>
        <time>2022-02-28T14:27:27Z</time>
      </trkpt>
      <trkpt lat="49.5448" lon="-1.53726">
        <ele>74</ele>
        <time>2022-02-28T14:27:30Z</time>
      </trkpt>
      <trkpt lat="49.54481" lon="-1.53733">
        <ele>74.2</ele>
        <time>2022-02-28T14:27:34Z</time>
      </trkpt>
      <trkpt lat="49.54484" lon="-1.53743">
        <ele>74.5</ele>
        <time>2022-02-28T14:27:39Z</time>
      </trkpt>
      <trkpt lat="49.54486" lon="-1.5375">
        <ele>74.7</ele>
        <time>2022-02-28T14:27:43Z</time>
      </trkpt>
      <trkpt lat="49.54487" lon="-1.53758">
        <ele>74.8</ele>
        <time>2022-02-28T14:27:46Z</time>
      </trkpt>
      <trkpt lat="49.54489" lon="-1.53766">
        <ele>75.1</ele>
        <time>2022-02-28T14:27:50Z</time>
      </trkpt>
      <trkpt lat="49.54491" lon="-1.53774">
        <ele>75.3</ele>
        <time>2022-02-28T14:27:53Z</time>
      </trkpt>
      <trkpt lat="49.54493" lon="-1.53782">
        <ele>75.9</ele>
        <time>2022-02-28T14:27:58Z</time>
      </trkpt>
      <trkpt lat="49.54498" lon="-1.53788">
        <ele>78</ele>
        <time>2022-02-28T14:28:09Z</time>
      </trkpt>
      <trkpt lat="49.54501" lon="-1.53796">
        <ele>78.7</ele>
        <time>2022-02-28T14:28:12Z</time>
      </trkpt>
      <trkpt lat="49.54502" lon="-1.53803">
        <ele>79</ele>
        <time>2022-02-28T14:28:14Z</time>
      </trkpt>
      <trkpt lat="49.54503" lon="-1.53812">
        <ele>79.1</ele>
        <time>2022-02-28T14:28:17Z</time>
      </trkpt>
      <trkpt lat="49.54506" lon="-1.5382">
        <ele>79.1</ele>
        <time>2022-02-28T14:28:21Z</time>
      </trkpt>
      <trkpt lat="49.54507" lon="-1.53828">
        <ele>79.2</ele>
        <time>2022-02-28T14:28:25Z</time>
      </trkpt>
      <trkpt lat="49.54509" lon="-1.53835">
        <ele>79.4</ele>
        <time>2022-02-28T14:28:28Z</time>
      </trkpt>
      <trkpt lat="49.54511" lon="-1.53842">
        <ele>79.6</ele>
        <time>2022-02-28T14:28:32Z</time>
      </trkpt>
      <trkpt lat="49.5451" lon="-1.53849">
        <ele>80.9</ele>
        <time>2022-02-28T14:28:44Z</time>
      </trkpt>
      <trkpt lat="49.54512" lon="-1.53856">
        <ele>81</ele>
        <time>2022-02-28T14:28:50Z</time>
      </trkpt>
      <trkpt lat="49.54515" lon="-1.53865">
        <ele>81</ele>
        <time>2022-02-28T14:28:53Z</time>
      </trkpt>
      <trkpt lat="49.54518" lon="-1.53872">
        <ele>81</ele>
        <time>2022-02-28T14:28:57Z</time>
      </trkpt>
      <trkpt lat="49.54521" lon="-1.53879">
        <ele>81.5</ele>
        <time>2022-02-28T14:29:03Z</time>
      </trkpt>
      <trkpt lat="49.54523" lon="-1.53885">
        <ele>81.9</ele>
        <time>2022-02-28T14:29:05Z</time>
      </trkpt>
      <trkpt lat="49.54526" lon="-1.53891">
        <ele>82.4</ele>
        <time>2022-02-28T14:29:09Z</time>
      </trkpt>
      <trkpt lat="49.54528" lon="-1.53898">
        <ele>82.9</ele>
        <time>2022-02-28T14:29:12Z</time>
      </trkpt>
      <trkpt lat="49.54531" lon="-1.53905">
        <ele>83.3</ele>
        <time>2022-02-28T14:29:15Z</time>
      </trkpt>
      <trkpt lat="49.54534" lon="-1.53914">
        <ele>83.8</ele>
        <time>2022-02-28T14:29:20Z</time>
      </trkpt>
      <trkpt lat="49.54537" lon="-1.5392">
        <ele>84.2</ele>
        <time>2022-02-28T14:29:24Z</time>
      </trkpt>
      <trkpt lat="49.54541" lon="-1.53926">
        <ele>84.3</ele>
        <time>2022-02-28T14:29:28Z</time>
      </trkpt>
      <trkpt lat="49.54544" lon="-1.53932">
        <ele>84.4</ele>
        <time>2022-02-28T14:29:32Z</time>
      </trkpt>
      <trkpt lat="49.54548" lon="-1.53937">
        <ele>84.9</ele>
        <time>2022-02-28T14:29:36Z</time>
      </trkpt>
      <trkpt lat="49.54551" lon="-1.53943">
        <ele>85.5</ele>
        <time>2022-02-28T14:29:39Z</time>
      </trkpt>
      <trkpt lat="49.54554" lon="-1.5395">
        <ele>85.8</ele>
        <time>2022-02-28T14:29:42Z</time>
      </trkpt>
      <trkpt lat="49.54557" lon="-1.53957">
        <ele>85.9</ele>
        <time>2022-02-28T14:29:45Z</time>
      </trkpt>
      <trkpt lat="49.54561" lon="-1.53964">
        <ele>86</ele>
        <time>2022-02-28T14:29:48Z</time>
      </trkpt>
      <trkpt lat="49.54564" lon="-1.53969">
        <ele>86.2</ele>
        <time>2022-02-28T14:29:50Z</time>
      </trkpt>
      <trkpt lat="49.54567" lon="-1.53975">
        <ele>86.7</ele>
        <time>2022-02-28T14:29:54Z</time>
      </trkpt>
      <trkpt lat="49.54571" lon="-1.53981">
        <ele>87.1</ele>
        <time>2022-02-28T14:29:58Z</time>
      </trkpt>
      <trkpt lat="49.54575" lon="-1.53988">
        <ele>87.4</ele>
        <time>2022-02-28T14:30:01Z</time>
      </trkpt>
      <trkpt lat="49.54578" lon="-1.53994">
        <ele>87.7</ele>
        <time>2022-02-28T14:30:04Z</time>
      </trkpt>
      <trkpt lat="49.54581" lon="-1.54">
        <ele>87.9</ele>
        <time>2022-02-28T14:30:08Z</time>
      </trkpt>
      <trkpt lat="49.54585" lon="-1.54007">
        <ele>88.6</ele>
        <time>2022-02-28T14:30:14Z</time>
      </trkpt>
      <trkpt lat="49.54589" lon="-1.54014">
        <ele>89</ele>
        <time>2022-02-28T14:30:17Z</time>
      </trkpt>
      <trkpt lat="49.54593" lon="-1.54021">
        <ele>89.1</ele>
        <time>2022-02-28T14:30:21Z</time>
      </trkpt>
      <trkpt lat="49.54596" lon="-1.54028">
        <ele>89.4</ele>
        <time>2022-02-28T14:30:24Z</time>
      </trkpt>
      <trkpt lat="49.54603" lon="-1.54041">
        <ele>89.7</ele>
        <time>2022-02-28T14:30:30Z</time>
      </trkpt>
      <trkpt lat="49.54607" lon="-1.54047">
        <ele>89.5</ele>
        <time>2022-02-28T14:30:35Z</time>
      </trkpt>
      <trkpt lat="49.5461" lon="-1.54052">
        <ele>89.2</ele>
        <time>2022-02-28T14:30:39Z</time>
      </trkpt>
      <trkpt lat="49.54614" lon="-1.54058">
        <ele>89</ele>
        <time>2022-02-28T14:30:42Z</time>
      </trkpt>
      <trkpt lat="49.54617" lon="-1.54067">
        <ele>88.7</ele>
        <time>2022-02-28T14:30:47Z</time>
      </trkpt>
      <trkpt lat="49.54619" lon="-1.54074">
        <ele>88.3</ele>
        <time>2022-02-28T14:30:51Z</time>
      </trkpt>
      <trkpt lat="49.54621" lon="-1.54082">
        <ele>87.8</ele>
        <time>2022-02-28T14:30:54Z</time>
      </trkpt>
      <trkpt lat="49.54623" lon="-1.5409">
        <ele>87.3</ele>
        <time>2022-02-28T14:30:57Z</time>
      </trkpt>
      <trkpt lat="49.54625" lon="-1.54096">
        <ele>87</ele>
        <time>2022-02-28T14:31:01Z</time>
      </trkpt>
      <trkpt lat="49.54627" lon="-1.54103">
        <ele>86.8</ele>
        <time>2022-02-28T14:31:04Z</time>
      </trkpt>
      <trkpt lat="49.5463" lon="-1.5411">
        <ele>86.7</ele>
        <time>2022-02-28T14:31:07Z</time>
      </trkpt>
      <trkpt lat="49.54634" lon="-1.54118">
        <ele>86.7</ele>
        <time>2022-02-28T14:31:12Z</time>
      </trkpt>
      <trkpt lat="49.54638" lon="-1.54123">
        <ele>86.7</ele>
        <time>2022-02-28T14:31:16Z</time>
      </trkpt>
      <trkpt lat="49.54646" lon="-1.54147">
        <ele>86.8</ele>
        <time>2022-02-28T14:31:28Z</time>
      </trkpt>
      <trkpt lat="49.54647" lon="-1.54154">
        <ele>86.7</ele>
        <time>2022-02-28T14:31:32Z</time>
      </trkpt>
      <trkpt lat="49.54648" lon="-1.54163">
        <ele>86.7</ele>
        <time>2022-02-28T14:31:36Z</time>
      </trkpt>
      <trkpt lat="49.5465" lon="-1.5417">
        <ele>86.6</ele>
        <time>2022-02-28T14:31:40Z</time>
      </trkpt>
      <trkpt lat="49.5466" lon="-1.54223">
        <ele>87.2</ele>
        <time>2022-02-28T14:31:59Z</time>
      </trkpt>
      <trkpt lat="49.54661" lon="-1.5423">
        <ele>87.5</ele>
        <time>2022-02-28T14:32:02Z</time>
      </trkpt>
      <trkpt lat="49.54664" lon="-1.54236">
        <ele>87.7</ele>
        <time>2022-02-28T14:32:05Z</time>
      </trkpt>
      <trkpt lat="49.54667" lon="-1.54244">
        <ele>88</ele>
        <time>2022-02-28T14:32:09Z</time>
      </trkpt>
      <trkpt lat="49.5467" lon="-1.54252">
        <ele>88.5</ele>
        <time>2022-02-28T14:32:14Z</time>
      </trkpt>
      <trkpt lat="49.54672" lon="-1.5426">
        <ele>89</ele>
        <time>2022-02-28T14:32:18Z</time>
      </trkpt>
      <trkpt lat="49.54676" lon="-1.5429">
        <ele>90.2</ele>
        <time>2022-02-28T14:32:29Z</time>
      </trkpt>
      <trkpt lat="49.54677" lon="-1.54297">
        <ele>90.7</ele>
        <time>2022-02-28T14:32:32Z</time>
      </trkpt>
      <trkpt lat="49.5468" lon="-1.54303">
        <ele>91.4</ele>
        <time>2022-02-28T14:32:37Z</time>
      </trkpt>
      <trkpt lat="49.54684" lon="-1.54309">
        <ele>91.6</ele>
        <time>2022-02-28T14:32:45Z</time>
      </trkpt>
      <trkpt lat="49.54687" lon="-1.54315">
        <ele>91.6</ele>
        <time>2022-02-28T14:32:50Z</time>
      </trkpt>
      <trkpt lat="49.54691" lon="-1.54321">
        <ele>91.6</ele>
        <time>2022-02-28T14:32:54Z</time>
      </trkpt>
      <trkpt lat="49.54696" lon="-1.54329">
        <ele>91.8</ele>
        <time>2022-02-28T14:32:59Z</time>
      </trkpt>
      <trkpt lat="49.54699" lon="-1.54335">
        <ele>91.9</ele>
        <time>2022-02-28T14:33:04Z</time>
      </trkpt>
      <trkpt lat="49.54703" lon="-1.54341">
        <ele>92</ele>
        <time>2022-02-28T14:33:09Z</time>
      </trkpt>
      <trkpt lat="49.54706" lon="-1.54348">
        <ele>91.9</ele>
        <time>2022-02-28T14:33:13Z</time>
      </trkpt>
      <trkpt lat="49.54709" lon="-1.54354">
        <ele>92.2</ele>
        <time>2022-02-28T14:33:17Z</time>
      </trkpt>
      <trkpt lat="49.54713" lon="-1.5436">
        <ele>92.6</ele>
        <time>2022-02-28T14:33:20Z</time>
      </trkpt>
      <trkpt lat="49.54717" lon="-1.54366">
        <ele>93</ele>
        <time>2022-02-28T14:33:24Z</time>
      </trkpt>
      <trkpt lat="49.5472" lon="-1.54371">
        <ele>93.2</ele>
        <time>2022-02-28T14:33:27Z</time>
      </trkpt>
      <trkpt lat="49.54723" lon="-1.54377">
        <ele>93.2</ele>
        <time>2022-02-28T14:33:31Z</time>
      </trkpt>
      <trkpt lat="49.54728" lon="-1.54383">
        <ele>93.5</ele>
        <time>2022-02-28T14:33:35Z</time>
      </trkpt>
      <trkpt lat="49.54732" lon="-1.54387">
        <ele>93.8</ele>
        <time>2022-02-28T14:33:40Z</time>
      </trkpt>
      <trkpt lat="49.54737" lon="-1.54394">
        <ele>94.1</ele>
        <time>2022-02-28T14:33:44Z</time>
      </trkpt>
      <trkpt lat="49.54741" lon="-1.544">
        <ele>94.3</ele>
        <time>2022-02-28T14:33:49Z</time>
      </trkpt>
      <trkpt lat="49.54744" lon="-1.54407">
        <ele>94.6</ele>
        <time>2022-02-28T14:33:53Z</time>
      </trkpt>
      <trkpt lat="49.54747" lon="-1.54415">
        <ele>95.1</ele>
        <time>2022-02-28T14:33:57Z</time>
      </trkpt>
      <trkpt lat="49.54749" lon="-1.54422">
        <ele>95.6</ele>
        <time>2022-02-28T14:34:01Z</time>
      </trkpt>
      <trkpt lat="49.54752" lon="-1.54428">
        <ele>96.1</ele>
        <time>2022-02-28T14:34:04Z</time>
      </trkpt>
      <trkpt lat="49.54755" lon="-1.54435">
        <ele>96.8</ele>
        <time>2022-02-28T14:34:09Z</time>
      </trkpt>
      <trkpt lat="49.54757" lon="-1.54442">
        <ele>97.6</ele>
        <time>2022-02-28T14:34:12Z</time>
      </trkpt>
      <trkpt lat="49.5476" lon="-1.5445">
        <ele>98.3</ele>
        <time>2022-02-28T14:34:16Z</time>
      </trkpt>
      <trkpt lat="49.54762" lon="-1.54457">
        <ele>99</ele>
        <time>2022-02-28T14:34:19Z</time>
      </trkpt>
      <trkpt lat="49.54764" lon="-1.54464">
        <ele>99.5</ele>
        <time>2022-02-28T14:34:24Z</time>
      </trkpt>
      <trkpt lat="49.54766" lon="-1.54472">
        <ele>100</ele>
        <time>2022-02-28T14:34:28Z</time>
      </trkpt>
      <trkpt lat="49.54768" lon="-1.54479">
        <ele>100.5</ele>
        <time>2022-02-28T14:34:34Z</time>
      </trkpt>
      <trkpt lat="49.54772" lon="-1.54486">
        <ele>100.8</ele>
        <time>2022-02-28T14:34:38Z</time>
      </trkpt>
      <trkpt lat="49.54775" lon="-1.54492">
        <ele>101</ele>
        <time>2022-02-28T14:34:42Z</time>
      </trkpt>
      <trkpt lat="49.54778" lon="-1.54498">
        <ele>101.2</ele>
        <time>2022-02-28T14:34:46Z</time>
      </trkpt>
      <trkpt lat="49.54781" lon="-1.54504">
        <ele>101.5</ele>
        <time>2022-02-28T14:34:50Z</time>
      </trkpt>
      <trkpt lat="49.54784" lon="-1.54511">
        <ele>101.8</ele>
        <time>2022-02-28T14:34:55Z</time>
      </trkpt>
      <trkpt lat="49.54788" lon="-1.54518">
        <ele>102.1</ele>
        <time>2022-02-28T14:35:00Z</time>
      </trkpt>
      <trkpt lat="49.54791" lon="-1.54524">
        <ele>102.5</ele>
        <time>2022-02-28T14:35:05Z</time>
      </trkpt>
      <trkpt lat="49.54794" lon="-1.5453">
        <ele>103.4</ele>
        <time>2022-02-28T14:35:27Z</time>
      </trkpt>
      <trkpt lat="49.54797" lon="-1.54535">
        <ele>105</ele>
        <time>2022-02-28T14:35:48Z</time>
      </trkpt>
      <trkpt lat="49.54798" lon="-1.54542">
        <ele>105.2</ele>
        <time>2022-02-28T14:36:02Z</time>
      </trkpt>
      <trkpt lat="49.54801" lon="-1.54549">
        <ele>105.1</ele>
        <time>2022-02-28T14:36:05Z</time>
      </trkpt>
      <trkpt lat="49.54815" lon="-1.54582">
        <ele>105.8</ele>
        <time>2022-02-28T14:36:20Z</time>
      </trkpt>
      <trkpt lat="49.54818" lon="-1.54591">
        <ele>106.1</ele>
        <time>2022-02-28T14:36:24Z</time>
      </trkpt>
      <trkpt lat="49.54822" lon="-1.54595">
        <ele>106.5</ele>
        <time>2022-02-28T14:36:36Z</time>
      </trkpt>
      <trkpt lat="49.54825" lon="-1.54605">
        <ele>106.5</ele>
        <time>2022-02-28T14:36:39Z</time>
      </trkpt>
      <trkpt lat="49.54826" lon="-1.54614">
        <ele>106.6</ele>
        <time>2022-02-28T14:36:42Z</time>
      </trkpt>
      <trkpt lat="49.54828" lon="-1.54622">
        <ele>106.9</ele>
        <time>2022-02-28T14:36:45Z</time>
      </trkpt>
      <trkpt lat="49.54831" lon="-1.54629">
        <ele>107.2</ele>
        <time>2022-02-28T14:36:49Z</time>
      </trkpt>
      <trkpt lat="49.54834" lon="-1.54635">
        <ele>107.3</ele>
        <time>2022-02-28T14:36:52Z</time>
      </trkpt>
      <trkpt lat="49.54832" lon="-1.54642">
        <ele>107.7</ele>
        <time>2022-02-28T14:36:59Z</time>
      </trkpt>
      <trkpt lat="49.54836" lon="-1.54648">
        <ele>107.7</ele>
        <time>2022-02-28T14:37:03Z</time>
      </trkpt>
      <trkpt lat="49.54842" lon="-1.54654">
        <ele>107.7</ele>
        <time>2022-02-28T14:37:07Z</time>
      </trkpt>
      <trkpt lat="49.54843" lon="-1.54661">
        <ele>107.6</ele>
        <time>2022-02-28T14:37:11Z</time>
      </trkpt>
      <trkpt lat="49.54845" lon="-1.54667">
        <ele>107.5</ele>
        <time>2022-02-28T14:37:14Z</time>
      </trkpt>
      <trkpt lat="49.54847" lon="-1.54676">
        <ele>107.3</ele>
        <time>2022-02-28T14:37:18Z</time>
      </trkpt>
      <trkpt lat="49.54847" lon="-1.54683">
        <ele>107.4</ele>
        <time>2022-02-28T14:37:22Z</time>
      </trkpt>
      <trkpt lat="49.54848" lon="-1.54691">
        <ele>107.8</ele>
        <time>2022-02-28T14:37:25Z</time>
      </trkpt>
      <trkpt lat="49.54849" lon="-1.54699">
        <ele>108.2</ele>
        <time>2022-02-28T14:37:29Z</time>
      </trkpt>
      <trkpt lat="49.54853" lon="-1.54704">
        <ele>108.6</ele>
        <time>2022-02-28T14:37:34Z</time>
      </trkpt>
      <trkpt lat="49.54858" lon="-1.54706">
        <ele>108.4</ele>
        <time>2022-02-28T14:37:39Z</time>
      </trkpt>
      <trkpt lat="49.54862" lon="-1.54705">
        <ele>108.2</ele>
        <time>2022-02-28T14:37:45Z</time>
      </trkpt>
      <trkpt lat="49.54867" lon="-1.54702">
        <ele>108.2</ele>
        <time>2022-02-28T14:37:48Z</time>
      </trkpt>
      <trkpt lat="49.54872" lon="-1.54699">
        <ele>108.4</ele>
        <time>2022-02-28T14:37:52Z</time>
      </trkpt>
      <trkpt lat="49.54878" lon="-1.54698">
        <ele>108.8</ele>
        <time>2022-02-28T14:37:56Z</time>
      </trkpt>
      <trkpt lat="49.54883" lon="-1.54697">
        <ele>109</ele>
        <time>2022-02-28T14:37:58Z</time>
      </trkpt>
      <trkpt lat="49.54889" lon="-1.54697">
        <ele>109.4</ele>
        <time>2022-02-28T14:38:02Z</time>
      </trkpt>
      <trkpt lat="49.54894" lon="-1.54698">
        <ele>109.9</ele>
        <time>2022-02-28T14:38:06Z</time>
      </trkpt>
      <trkpt lat="49.549" lon="-1.54698">
        <ele>110.2</ele>
        <time>2022-02-28T14:38:10Z</time>
      </trkpt>
      <trkpt lat="49.54905" lon="-1.54696">
        <ele>110.5</ele>
        <time>2022-02-28T14:38:13Z</time>
      </trkpt>
      <trkpt lat="49.54925" lon="-1.54691">
        <ele>111.7</ele>
        <time>2022-02-28T14:38:26Z</time>
      </trkpt>
      <trkpt lat="49.5493" lon="-1.5469">
        <ele>112.3</ele>
        <time>2022-02-28T14:38:32Z</time>
      </trkpt>
      <trkpt lat="49.54935" lon="-1.5469">
        <ele>113.1</ele>
        <time>2022-02-28T14:38:40Z</time>
      </trkpt>
      <trkpt lat="49.5494" lon="-1.54689">
        <ele>113.5</ele>
        <time>2022-02-28T14:38:43Z</time>
      </trkpt>
      <trkpt lat="49.54945" lon="-1.54687">
        <ele>114</ele>
        <time>2022-02-28T14:38:47Z</time>
      </trkpt>
      <trkpt lat="49.54949" lon="-1.54685">
        <ele>114.2</ele>
        <time>2022-02-28T14:38:50Z</time>
      </trkpt>
      <trkpt lat="49.54955" lon="-1.54685">
        <ele>114.7</ele>
        <time>2022-02-28T14:38:53Z</time>
      </trkpt>
      <trkpt lat="49.5496" lon="-1.54686">
        <ele>115.3</ele>
        <time>2022-02-28T14:38:57Z</time>
      </trkpt>
      <trkpt lat="49.54965" lon="-1.54686">
        <ele>115.7</ele>
        <time>2022-02-28T14:39:00Z</time>
      </trkpt>
      <trkpt lat="49.54978" lon="-1.54682">
        <ele>116.2</ele>
        <time>2022-02-28T14:39:09Z</time>
      </trkpt>
      <trkpt lat="49.54985" lon="-1.5468">
        <ele>116.5</ele>
        <time>2022-02-28T14:39:13Z</time>
      </trkpt>
      <trkpt lat="49.54992" lon="-1.5468">
        <ele>117</ele>
        <time>2022-02-28T14:39:19Z</time>
      </trkpt>
      <trkpt lat="49.54997" lon="-1.54681">
        <ele>117.4</ele>
        <time>2022-02-28T14:39:23Z</time>
      </trkpt>
      <trkpt lat="49.55003" lon="-1.54681">
        <ele>118</ele>
        <time>2022-02-28T14:39:28Z</time>
      </trkpt>
      <trkpt lat="49.55008" lon="-1.54678">
        <ele>118.8</ele>
        <time>2022-02-28T14:39:35Z</time>
      </trkpt>
      <trkpt lat="49.55011" lon="-1.54671">
        <ele>119.2</ele>
        <time>2022-02-28T14:39:39Z</time>
      </trkpt>
      <trkpt lat="49.55014" lon="-1.54662">
        <ele>119.7</ele>
        <time>2022-02-28T14:39:43Z</time>
      </trkpt>
      <trkpt lat="49.55015" lon="-1.54655">
        <ele>120.4</ele>
        <time>2022-02-28T14:39:48Z</time>
      </trkpt>
      <trkpt lat="49.55018" lon="-1.54648">
        <ele>121.1</ele>
        <time>2022-02-28T14:39:54Z</time>
      </trkpt>
      <trkpt lat="49.5502" lon="-1.5464">
        <ele>122</ele>
        <time>2022-02-28T14:39:59Z</time>
      </trkpt>
      <trkpt lat="49.55022" lon="-1.54632">
        <ele>122.5</ele>
        <time>2022-02-28T14:40:03Z</time>
      </trkpt>
      <trkpt lat="49.55023" lon="-1.54626">
        <ele>122.8</ele>
        <time>2022-02-28T14:40:06Z</time>
      </trkpt>
      <trkpt lat="49.55024" lon="-1.54619">
        <ele>123.1</ele>
        <time>2022-02-28T14:40:08Z</time>
      </trkpt>
      <trkpt lat="49.55026" lon="-1.54608">
        <ele>123.6</ele>
        <time>2022-02-28T14:40:14Z</time>
      </trkpt>
      <trkpt lat="49.55029" lon="-1.54602">
        <ele>124.6</ele>
        <time>2022-02-28T14:40:22Z</time>
      </trkpt>
      <trkpt lat="49.5503" lon="-1.54594">
        <ele>125.4</ele>
        <time>2022-02-28T14:40:31Z</time>
      </trkpt>
      <trkpt lat="49.55031" lon="-1.54587">
        <ele>125.7</ele>
        <time>2022-02-28T14:40:34Z</time>
      </trkpt>
      <trkpt lat="49.55033" lon="-1.54576">
        <ele>126</ele>
        <time>2022-02-28T14:40:38Z</time>
      </trkpt>
      <trkpt lat="49.55033" lon="-1.54566">
        <ele>126.5</ele>
        <time>2022-02-28T14:40:42Z</time>
      </trkpt>
      <trkpt lat="49.55034" lon="-1.54557">
        <ele>127.2</ele>
        <time>2022-02-28T14:40:47Z</time>
      </trkpt>
      <trkpt lat="49.55035" lon="-1.54549">
        <ele>127.6</ele>
        <time>2022-02-28T14:40:50Z</time>
      </trkpt>
      <trkpt lat="49.55037" lon="-1.54542">
        <ele>128</ele>
        <time>2022-02-28T14:40:53Z</time>
      </trkpt>
      <trkpt lat="49.55039" lon="-1.54533">
        <ele>128.7</ele>
        <time>2022-02-28T14:40:57Z</time>
      </trkpt>
      <trkpt lat="49.55044" lon="-1.545">
        <ele>130.7</ele>
        <time>2022-02-28T14:41:11Z</time>
      </trkpt>
      <trkpt lat="49.55046" lon="-1.54491">
        <ele>131.1</ele>
        <time>2022-02-28T14:41:15Z</time>
      </trkpt>
      <trkpt lat="49.55047" lon="-1.54484">
        <ele>131.8</ele>
        <time>2022-02-28T14:41:20Z</time>
      </trkpt>
      <trkpt lat="49.55049" lon="-1.54477">
        <ele>132.3</ele>
        <time>2022-02-28T14:41:23Z</time>
      </trkpt>
      <trkpt lat="49.55051" lon="-1.5447">
        <ele>132.6</ele>
        <time>2022-02-28T14:41:26Z</time>
      </trkpt>
      <trkpt lat="49.5506" lon="-1.54461">
        <ele>133.1</ele>
        <time>2022-02-28T14:41:34Z</time>
      </trkpt>
      <trkpt lat="49.55065" lon="-1.54465">
        <ele>133.8</ele>
        <time>2022-02-28T14:41:38Z</time>
      </trkpt>
      <trkpt lat="49.55068" lon="-1.54473">
        <ele>134.5</ele>
        <time>2022-02-28T14:41:41Z</time>
      </trkpt>
      <trkpt lat="49.55072" lon="-1.54485">
        <ele>135.1</ele>
        <time>2022-02-28T14:41:44Z</time>
      </trkpt>
      <trkpt lat="49.55078" lon="-1.545">
        <ele>136.2</ele>
        <time>2022-02-28T14:41:52Z</time>
      </trkpt>
      <trkpt lat="49.55082" lon="-1.54506">
        <ele>137</ele>
        <time>2022-02-28T14:41:56Z</time>
      </trkpt>
      <trkpt lat="49.55085" lon="-1.54512">
        <ele>137.7</ele>
        <time>2022-02-28T14:42:00Z</time>
      </trkpt>
      <trkpt lat="49.55088" lon="-1.54518">
        <ele>138.1</ele>
        <time>2022-02-28T14:42:04Z</time>
      </trkpt>
      <trkpt lat="49.55092" lon="-1.54523">
        <ele>138.7</ele>
        <time>2022-02-28T14:42:08Z</time>
      </trkpt>
      <trkpt lat="49.55097" lon="-1.54528">
        <ele>139.3</ele>
        <time>2022-02-28T14:42:12Z</time>
      </trkpt>
      <trkpt lat="49.551" lon="-1.54535">
        <ele>139.6</ele>
        <time>2022-02-28T14:42:16Z</time>
      </trkpt>
      <trkpt lat="49.55104" lon="-1.54541">
        <ele>140</ele>
        <time>2022-02-28T14:42:21Z</time>
      </trkpt>
      <trkpt lat="49.55107" lon="-1.54547">
        <ele>140.2</ele>
        <time>2022-02-28T14:42:25Z</time>
      </trkpt>
      <trkpt lat="49.55111" lon="-1.54554">
        <ele>140.5</ele>
        <time>2022-02-28T14:42:30Z</time>
      </trkpt>
      <trkpt lat="49.55114" lon="-1.5456">
        <ele>140.9</ele>
        <time>2022-02-28T14:42:33Z</time>
      </trkpt>
      <trkpt lat="49.55116" lon="-1.54568">
        <ele>141.9</ele>
        <time>2022-02-28T14:42:38Z</time>
      </trkpt>
      <trkpt lat="49.5512" lon="-1.54573">
        <ele>143.1</ele>
        <time>2022-02-28T14:42:43Z</time>
      </trkpt>
      <trkpt lat="49.55125" lon="-1.54576">
        <ele>143.7</ele>
        <time>2022-02-28T14:42:48Z</time>
      </trkpt>
      <trkpt lat="49.55129" lon="-1.5458">
        <ele>144.1</ele>
        <time>2022-02-28T14:42:52Z</time>
      </trkpt>
      <trkpt lat="49.55133" lon="-1.54586">
        <ele>144.8</ele>
        <time>2022-02-28T14:42:56Z</time>
      </trkpt>
      <trkpt lat="49.55137" lon="-1.54594">
        <ele>145.5</ele>
        <time>2022-02-28T14:43:01Z</time>
      </trkpt>
      <trkpt lat="49.5514" lon="-1.54599">
        <ele>146</ele>
        <time>2022-02-28T14:43:04Z</time>
      </trkpt>
      <trkpt lat="49.55143" lon="-1.54607">
        <ele>147.1</ele>
        <time>2022-02-28T14:43:09Z</time>
      </trkpt>
      <trkpt lat="49.55147" lon="-1.54613">
        <ele>147.9</ele>
        <time>2022-02-28T14:43:13Z</time>
      </trkpt>
      <trkpt lat="49.5515" lon="-1.54618">
        <ele>148.2</ele>
        <time>2022-02-28T14:43:17Z</time>
      </trkpt>
      <trkpt lat="49.55154" lon="-1.54624">
        <ele>149.1</ele>
        <time>2022-02-28T14:43:23Z</time>
      </trkpt>
      <trkpt lat="49.55159" lon="-1.5463">
        <ele>149.9</ele>
        <time>2022-02-28T14:43:28Z</time>
      </trkpt>
      <trkpt lat="49.55162" lon="-1.54635">
        <ele>150.4</ele>
        <time>2022-02-28T14:43:32Z</time>
      </trkpt>
      <trkpt lat="49.55166" lon="-1.54645">
        <ele>151</ele>
        <time>2022-02-28T14:43:36Z</time>
      </trkpt>
      <trkpt lat="49.55171" lon="-1.5465">
        <ele>151.4</ele>
        <time>2022-02-28T14:43:40Z</time>
      </trkpt>
      <trkpt lat="49.55174" lon="-1.54657">
        <ele>151.6</ele>
        <time>2022-02-28T14:43:44Z</time>
      </trkpt>
      <trkpt lat="49.55178" lon="-1.54661">
        <ele>151.9</ele>
        <time>2022-02-28T14:43:47Z</time>
      </trkpt>
      <trkpt lat="49.55182" lon="-1.54667">
        <ele>152.3</ele>
        <time>2022-02-28T14:43:52Z</time>
      </trkpt>
      <trkpt lat="49.55186" lon="-1.54673">
        <ele>152.8</ele>
        <time>2022-02-28T14:43:57Z</time>
      </trkpt>
      <trkpt lat="49.55189" lon="-1.54679">
        <ele>153.3</ele>
        <time>2022-02-28T14:44:01Z</time>
      </trkpt>
      <trkpt lat="49.55192" lon="-1.54684">
        <ele>154.5</ele>
        <time>2022-02-28T14:44:09Z</time>
      </trkpt>
      <trkpt lat="49.55197" lon="-1.5469">
        <ele>155</ele>
        <time>2022-02-28T14:44:13Z</time>
      </trkpt>
      <trkpt lat="49.55202" lon="-1.54692">
        <ele>155.3</ele>
        <time>2022-02-28T14:44:17Z</time>
      </trkpt>
      <trkpt lat="49.55207" lon="-1.54692">
        <ele>155.5</ele>
        <time>2022-02-28T14:44:20Z</time>
      </trkpt>
      <trkpt lat="49.5522" lon="-1.54682">
        <ele>157.2</ele>
        <time>2022-02-28T14:44:28Z</time>
      </trkpt>
      <trkpt lat="49.55223" lon="-1.54676">
        <ele>157.5</ele>
        <time>2022-02-28T14:44:31Z</time>
      </trkpt>
      <trkpt lat="49.55226" lon="-1.54669">
        <ele>157.6</ele>
        <time>2022-02-28T14:44:34Z</time>
      </trkpt>
      <trkpt lat="49.55229" lon="-1.54663">
        <ele>157.6</ele>
        <time>2022-02-28T14:44:38Z</time>
      </trkpt>
      <trkpt lat="49.55231" lon="-1.54655">
        <ele>157.6</ele>
        <time>2022-02-28T14:44:41Z</time>
      </trkpt>
      <trkpt lat="49.55233" lon="-1.54648">
        <ele>157.6</ele>
        <time>2022-02-28T14:44:45Z</time>
      </trkpt>
      <trkpt lat="49.55236" lon="-1.54642">
        <ele>157.5</ele>
        <time>2022-02-28T14:44:48Z</time>
      </trkpt>
      <trkpt lat="49.55239" lon="-1.54636">
        <ele>157.3</ele>
        <time>2022-02-28T14:44:51Z</time>
      </trkpt>
      <trkpt lat="49.55242" lon="-1.54631">
        <ele>157.1</ele>
        <time>2022-02-28T14:44:54Z</time>
      </trkpt>
      <trkpt lat="49.55244" lon="-1.54624">
        <ele>157</ele>
        <time>2022-02-28T14:44:59Z</time>
      </trkpt>
      <trkpt lat="49.55248" lon="-1.54617">
        <ele>157</ele>
        <time>2022-02-28T14:45:03Z</time>
      </trkpt>
      <trkpt lat="49.55251" lon="-1.54611">
        <ele>157</ele>
        <time>2022-02-28T14:45:07Z</time>
      </trkpt>
      <trkpt lat="49.55254" lon="-1.54605">
        <ele>157.1</ele>
        <time>2022-02-28T14:45:11Z</time>
      </trkpt>
      <trkpt lat="49.55259" lon="-1.54598">
        <ele>157.2</ele>
        <time>2022-02-28T14:45:16Z</time>
      </trkpt>
      <trkpt lat="49.55262" lon="-1.54592">
        <ele>157.5</ele>
        <time>2022-02-28T14:45:20Z</time>
      </trkpt>
      <trkpt lat="49.55265" lon="-1.54586">
        <ele>157.8</ele>
        <time>2022-02-28T14:45:25Z</time>
      </trkpt>
      <trkpt lat="49.55268" lon="-1.54578">
        <ele>158</ele>
        <time>2022-02-28T14:45:30Z</time>
      </trkpt>
      <trkpt lat="49.55272" lon="-1.54572">
        <ele>158.1</ele>
        <time>2022-02-28T14:45:35Z</time>
      </trkpt>
      <trkpt lat="49.55277" lon="-1.54566">
        <ele>158.2</ele>
        <time>2022-02-28T14:45:38Z</time>
      </trkpt>
      <trkpt lat="49.5528" lon="-1.54559">
        <ele>159</ele>
        <time>2022-02-28T14:45:48Z</time>
      </trkpt>
      <trkpt lat="49.55284" lon="-1.54556">
        <ele>159.2</ele>
        <time>2022-02-28T14:46:28Z</time>
      </trkpt>
      <trkpt lat="49.55289" lon="-1.54551">
        <ele>159.2</ele>
        <time>2022-02-28T14:46:33Z</time>
      </trkpt>
      <trkpt lat="49.55295" lon="-1.54537">
        <ele>159.2</ele>
        <time>2022-02-28T14:46:39Z</time>
      </trkpt>
      <trkpt lat="49.55297" lon="-1.54529">
        <ele>159.2</ele>
        <time>2022-02-28T14:46:42Z</time>
      </trkpt>
      <trkpt lat="49.553" lon="-1.54522">
        <ele>159.2</ele>
        <time>2022-02-28T14:46:46Z</time>
      </trkpt>
      <trkpt lat="49.55303" lon="-1.54516">
        <ele>159</ele>
        <time>2022-02-28T14:46:49Z</time>
      </trkpt>
      <trkpt lat="49.55306" lon="-1.5451">
        <ele>158.9</ele>
        <time>2022-02-28T14:46:52Z</time>
      </trkpt>
      <trkpt lat="49.5531" lon="-1.54504">
        <ele>158.9</ele>
        <time>2022-02-28T14:46:55Z</time>
      </trkpt>
      <trkpt lat="49.55313" lon="-1.54498">
        <ele>159</ele>
        <time>2022-02-28T14:46:58Z</time>
      </trkpt>
      <trkpt lat="49.55316" lon="-1.54491">
        <ele>159</ele>
        <time>2022-02-28T14:47:02Z</time>
      </trkpt>
      <trkpt lat="49.55363" lon="-1.54404">
        <ele>157.3</ele>
        <time>2022-02-28T14:47:52Z</time>
      </trkpt>
      <trkpt lat="49.55366" lon="-1.54398">
        <ele>157.1</ele>
        <time>2022-02-28T14:47:56Z</time>
      </trkpt>
      <trkpt lat="49.55368" lon="-1.5439">
        <ele>157.5</ele>
        <time>2022-02-28T14:48:04Z</time>
      </trkpt>
      <trkpt lat="49.55371" lon="-1.54385">
        <ele>157.4</ele>
        <time>2022-02-28T14:48:07Z</time>
      </trkpt>
      <trkpt lat="49.55375" lon="-1.54378">
        <ele>157.1</ele>
        <time>2022-02-28T14:48:11Z</time>
      </trkpt>
      <trkpt lat="49.55379" lon="-1.54372">
        <ele>156.7</ele>
        <time>2022-02-28T14:48:14Z</time>
      </trkpt>
      <trkpt lat="49.55383" lon="-1.54364">
        <ele>156.2</ele>
        <time>2022-02-28T14:48:18Z</time>
      </trkpt>
      <trkpt lat="49.55386" lon="-1.54359">
        <ele>156.1</ele>
        <time>2022-02-28T14:48:22Z</time>
      </trkpt>
      <trkpt lat="49.5539" lon="-1.54352">
        <ele>156.1</ele>
        <time>2022-02-28T14:48:27Z</time>
      </trkpt>
      <trkpt lat="49.55394" lon="-1.54347">
        <ele>156.1</ele>
        <time>2022-02-28T14:48:31Z</time>
      </trkpt>
      <trkpt lat="49.55398" lon="-1.54341">
        <ele>156</ele>
        <time>2022-02-28T14:48:35Z</time>
      </trkpt>
      <trkpt lat="49.55402" lon="-1.54333">
        <ele>156.5</ele>
        <time>2022-02-28T14:48:39Z</time>
      </trkpt>
      <trkpt lat="49.55405" lon="-1.54326">
        <ele>157</ele>
        <time>2022-02-28T14:48:43Z</time>
      </trkpt>
      <trkpt lat="49.55409" lon="-1.54321">
        <ele>157.2</ele>
        <time>2022-02-28T14:48:46Z</time>
      </trkpt>
      <trkpt lat="49.55412" lon="-1.54315">
        <ele>157.3</ele>
        <time>2022-02-28T14:48:50Z</time>
      </trkpt>
      <trkpt lat="49.55416" lon="-1.54308">
        <ele>157.4</ele>
        <time>2022-02-28T14:48:54Z</time>
      </trkpt>
      <trkpt lat="49.55428" lon="-1.54286">
        <ele>157</ele>
        <time>2022-02-28T14:49:07Z</time>
      </trkpt>
      <trkpt lat="49.55432" lon="-1.54281">
        <ele>156.8</ele>
        <time>2022-02-28T14:49:11Z</time>
      </trkpt>
      <trkpt lat="49.55436" lon="-1.54274">
        <ele>156.7</ele>
        <time>2022-02-28T14:49:15Z</time>
      </trkpt>
      <trkpt lat="49.55439" lon="-1.54267">
        <ele>156.8</ele>
        <time>2022-02-28T14:49:19Z</time>
      </trkpt>
      <trkpt lat="49.55442" lon="-1.54262">
        <ele>156.9</ele>
        <time>2022-02-28T14:49:22Z</time>
      </trkpt>
      <trkpt lat="49.55445" lon="-1.54255">
        <ele>157</ele>
        <time>2022-02-28T14:49:26Z</time>
      </trkpt>
      <trkpt lat="49.55447" lon="-1.54249">
        <ele>157</ele>
        <time>2022-02-28T14:49:30Z</time>
      </trkpt>
      <trkpt lat="49.5545" lon="-1.54241">
        <ele>156.9</ele>
        <time>2022-02-28T14:49:34Z</time>
      </trkpt>
      <trkpt lat="49.55453" lon="-1.54233">
        <ele>157.4</ele>
        <time>2022-02-28T14:49:40Z</time>
      </trkpt>
      <trkpt lat="49.55458" lon="-1.54228">
        <ele>157.9</ele>
        <time>2022-02-28T14:49:44Z</time>
      </trkpt>
      <trkpt lat="49.55463" lon="-1.54224">
        <ele>157.7</ele>
        <time>2022-02-28T14:49:48Z</time>
      </trkpt>
      <trkpt lat="49.55466" lon="-1.54218">
        <ele>157.7</ele>
        <time>2022-02-28T14:49:52Z</time>
      </trkpt>
      <trkpt lat="49.5547" lon="-1.54205">
        <ele>158.2</ele>
        <time>2022-02-28T14:49:57Z</time>
      </trkpt>
      <trkpt lat="49.55473" lon="-1.54199">
        <ele>158.3</ele>
        <time>2022-02-28T14:50:00Z</time>
      </trkpt>
      <trkpt lat="49.55477" lon="-1.54192">
        <ele>158.2</ele>
        <time>2022-02-28T14:50:04Z</time>
      </trkpt>
      <trkpt lat="49.55484" lon="-1.5418">
        <ele>158.6</ele>
        <time>2022-02-28T14:50:10Z</time>
      </trkpt>
      <trkpt lat="49.55491" lon="-1.54165">
        <ele>159.4</ele>
        <time>2022-02-28T14:50:19Z</time>
      </trkpt>
      <trkpt lat="49.55493" lon="-1.54158">
        <ele>160.6</ele>
        <time>2022-02-28T14:50:36Z</time>
      </trkpt>
      <trkpt lat="49.55495" lon="-1.54149">
        <ele>160.6</ele>
        <time>2022-02-28T14:50:39Z</time>
      </trkpt>
      <trkpt lat="49.55496" lon="-1.5414">
        <ele>160.7</ele>
        <time>2022-02-28T14:50:43Z</time>
      </trkpt>
      <trkpt lat="49.55484" lon="-1.54111">
        <ele>161.1</ele>
        <time>2022-02-28T14:50:58Z</time>
      </trkpt>
      <trkpt lat="49.5548" lon="-1.54106">
        <ele>160.4</ele>
        <time>2022-02-28T14:51:02Z</time>
      </trkpt>
      <trkpt lat="49.55476" lon="-1.54101">
        <ele>160.2</ele>
        <time>2022-02-28T14:51:06Z</time>
      </trkpt>
      <trkpt lat="49.55471" lon="-1.54096">
        <ele>160</ele>
        <time>2022-02-28T14:51:10Z</time>
      </trkpt>
      <trkpt lat="49.55468" lon="-1.54091">
        <ele>159.6</ele>
        <time>2022-02-28T14:51:14Z</time>
      </trkpt>
      <trkpt lat="49.55464" lon="-1.54086">
        <ele>159.4</ele>
        <time>2022-02-28T14:51:19Z</time>
      </trkpt>
      <trkpt lat="49.5546" lon="-1.54082">
        <ele>159.2</ele>
        <time>2022-02-28T14:51:23Z</time>
      </trkpt>
      <trkpt lat="49.55454" lon="-1.54076">
        <ele>159.2</ele>
        <time>2022-02-28T14:51:30Z</time>
      </trkpt>
      <trkpt lat="49.5545" lon="-1.54069">
        <ele>159.4</ele>
        <time>2022-02-28T14:51:34Z</time>
      </trkpt>
      <trkpt lat="49.55439" lon="-1.54051">
        <ele>158.8</ele>
        <time>2022-02-28T14:51:43Z</time>
      </trkpt>
      <trkpt lat="49.55437" lon="-1.54044">
        <ele>158.6</ele>
        <time>2022-02-28T14:51:45Z</time>
      </trkpt>
      <trkpt lat="49.55433" lon="-1.54037">
        <ele>158.5</ele>
        <time>2022-02-28T14:51:48Z</time>
      </trkpt>
      <trkpt lat="49.5543" lon="-1.54031">
        <ele>158.5</ele>
        <time>2022-02-28T14:51:51Z</time>
      </trkpt>
      <trkpt lat="49.55427" lon="-1.54025">
        <ele>158.5</ele>
        <time>2022-02-28T14:51:54Z</time>
      </trkpt>
      <trkpt lat="49.55424" lon="-1.5402">
        <ele>158.4</ele>
        <time>2022-02-28T14:51:58Z</time>
      </trkpt>
      <trkpt lat="49.5542" lon="-1.54015">
        <ele>157.9</ele>
        <time>2022-02-28T14:52:20Z</time>
      </trkpt>
      <trkpt lat="49.55417" lon="-1.5401">
        <ele>157.8</ele>
        <time>2022-02-28T14:52:23Z</time>
      </trkpt>
      <trkpt lat="49.55413" lon="-1.54005">
        <ele>157.9</ele>
        <time>2022-02-28T14:52:27Z</time>
      </trkpt>
      <trkpt lat="49.55409" lon="-1.53998">
        <ele>157.9</ele>
        <time>2022-02-28T14:52:31Z</time>
      </trkpt>
      <trkpt lat="49.55406" lon="-1.53992">
        <ele>157.9</ele>
        <time>2022-02-28T14:52:35Z</time>
      </trkpt>
      <trkpt lat="49.55402" lon="-1.53986">
        <ele>157.8</ele>
        <time>2022-02-28T14:52:39Z</time>
      </trkpt>
      <trkpt lat="49.55399" lon="-1.5398">
        <ele>157.6</ele>
        <time>2022-02-28T14:52:44Z</time>
      </trkpt>
      <trkpt lat="49.55395" lon="-1.53975">
        <ele>157.5</ele>
        <time>2022-02-28T14:52:48Z</time>
      </trkpt>
      <trkpt lat="49.55391" lon="-1.53971">
        <ele>157.5</ele>
        <time>2022-02-28T14:52:52Z</time>
      </trkpt>
      <trkpt lat="49.55387" lon="-1.53964">
        <ele>157.5</ele>
        <time>2022-02-28T14:52:57Z</time>
      </trkpt>
      <trkpt lat="49.55384" lon="-1.53958">
        <ele>157.7</ele>
        <time>2022-02-28T14:53:00Z</time>
      </trkpt>
      <trkpt lat="49.55379" lon="-1.53953">
        <ele>157.8</ele>
        <time>2022-02-28T14:53:04Z</time>
      </trkpt>
      <trkpt lat="49.55375" lon="-1.53948">
        <ele>158</ele>
        <time>2022-02-28T14:53:07Z</time>
      </trkpt>
      <trkpt lat="49.5537" lon="-1.53942">
        <ele>158.1</ele>
        <time>2022-02-28T14:53:11Z</time>
      </trkpt>
      <trkpt lat="49.55367" lon="-1.53936">
        <ele>158.3</ele>
        <time>2022-02-28T14:53:15Z</time>
      </trkpt>
      <trkpt lat="49.55363" lon="-1.53929">
        <ele>158.5</ele>
        <time>2022-02-28T14:53:20Z</time>
      </trkpt>
      <trkpt lat="49.55362" lon="-1.53921">
        <ele>158.8</ele>
        <time>2022-02-28T14:53:25Z</time>
      </trkpt>
      <trkpt lat="49.55359" lon="-1.53916">
        <ele>159</ele>
        <time>2022-02-28T14:53:28Z</time>
      </trkpt>
      <trkpt lat="49.55355" lon="-1.5391">
        <ele>158.9</ele>
        <time>2022-02-28T14:53:32Z</time>
      </trkpt>
      <trkpt lat="49.55351" lon="-1.53906">
        <ele>159.1</ele>
        <time>2022-02-28T14:53:35Z</time>
      </trkpt>
      <trkpt lat="49.55347" lon="-1.53902">
        <ele>159.2</ele>
        <time>2022-02-28T14:53:40Z</time>
      </trkpt>
      <trkpt lat="49.55343" lon="-1.53897">
        <ele>159.1</ele>
        <time>2022-02-28T14:53:45Z</time>
      </trkpt>
      <trkpt lat="49.55339" lon="-1.53891">
        <ele>158.8</ele>
        <time>2022-02-28T14:53:48Z</time>
      </trkpt>
      <trkpt lat="49.55335" lon="-1.53885">
        <ele>158.6</ele>
        <time>2022-02-28T14:53:51Z</time>
      </trkpt>
      <trkpt lat="49.5533" lon="-1.5388">
        <ele>158.6</ele>
        <time>2022-02-28T14:53:55Z</time>
      </trkpt>
      <trkpt lat="49.55326" lon="-1.53876">
        <ele>158.7</ele>
        <time>2022-02-28T14:53:58Z</time>
      </trkpt>
      <trkpt lat="49.55322" lon="-1.5387">
        <ele>158.8</ele>
        <time>2022-02-28T14:54:00Z</time>
      </trkpt>
      <trkpt lat="49.55319" lon="-1.53862">
        <ele>158.9</ele>
        <time>2022-02-28T14:54:03Z</time>
      </trkpt>
      <trkpt lat="49.55316" lon="-1.53856">
        <ele>159</ele>
        <time>2022-02-28T14:54:06Z</time>
      </trkpt>
      <trkpt lat="49.55313" lon="-1.5385">
        <ele>159.1</ele>
        <time>2022-02-28T14:54:09Z</time>
      </trkpt>
      <trkpt lat="49.5531" lon="-1.53845">
        <ele>159</ele>
        <time>2022-02-28T14:54:12Z</time>
      </trkpt>
      <trkpt lat="49.55306" lon="-1.53838">
        <ele>158.7</ele>
        <time>2022-02-28T14:54:17Z</time>
      </trkpt>
      <trkpt lat="49.55303" lon="-1.53831">
        <ele>158.3</ele>
        <time>2022-02-28T14:54:21Z</time>
      </trkpt>
      <trkpt lat="49.553" lon="-1.53826">
        <ele>158</ele>
        <time>2022-02-28T14:54:24Z</time>
      </trkpt>
      <trkpt lat="49.55295" lon="-1.53819">
        <ele>157.8</ele>
        <time>2022-02-28T14:54:28Z</time>
      </trkpt>
      <trkpt lat="49.55291" lon="-1.53812">
        <ele>157.8</ele>
        <time>2022-02-28T14:54:32Z</time>
      </trkpt>
      <trkpt lat="49.55289" lon="-1.53805">
        <ele>157.7</ele>
        <time>2022-02-28T14:54:36Z</time>
      </trkpt>
      <trkpt lat="49.55286" lon="-1.538">
        <ele>157.7</ele>
        <time>2022-02-28T14:54:40Z</time>
      </trkpt>
      <trkpt lat="49.55281" lon="-1.53795">
        <ele>157.1</ele>
        <time>2022-02-28T14:54:44Z</time>
      </trkpt>
      <trkpt lat="49.55277" lon="-1.53793">
        <ele>156.2</ele>
        <time>2022-02-28T14:54:48Z</time>
      </trkpt>
      <trkpt lat="49.55272" lon="-1.5379">
        <ele>155.7</ele>
        <time>2022-02-28T14:54:52Z</time>
      </trkpt>
      <trkpt lat="49.55269" lon="-1.53785">
        <ele>155.6</ele>
        <time>2022-02-28T14:54:55Z</time>
      </trkpt>
      <trkpt lat="49.55264" lon="-1.53779">
        <ele>155.3</ele>
        <time>2022-02-28T14:55:00Z</time>
      </trkpt>
      <trkpt lat="49.55261" lon="-1.53773">
        <ele>155.1</ele>
        <time>2022-02-28T14:55:05Z</time>
      </trkpt>
      <trkpt lat="49.55258" lon="-1.53765">
        <ele>154.9</ele>
        <time>2022-02-28T14:55:09Z</time>
      </trkpt>
      <trkpt lat="49.55254" lon="-1.5376">
        <ele>154.6</ele>
        <time>2022-02-28T14:55:13Z</time>
      </trkpt>
      <trkpt lat="49.55255" lon="-1.53752">
        <ele>155</ele>
        <time>2022-02-28T14:55:37Z</time>
      </trkpt>
      <trkpt lat="49.55259" lon="-1.53748">
        <ele>154.6</ele>
        <time>2022-02-28T14:55:42Z</time>
      </trkpt>
      <trkpt lat="49.5526" lon="-1.5374">
        <ele>154</ele>
        <time>2022-02-28T14:55:48Z</time>
      </trkpt>
      <trkpt lat="49.55262" lon="-1.53732">
        <ele>153.8</ele>
        <time>2022-02-28T14:55:54Z</time>
      </trkpt>
      <trkpt lat="49.55264" lon="-1.53723">
        <ele>153.8</ele>
        <time>2022-02-28T14:55:58Z</time>
      </trkpt>
      <trkpt lat="49.55266" lon="-1.53716">
        <ele>153.8</ele>
        <time>2022-02-28T14:56:02Z</time>
      </trkpt>
      <trkpt lat="49.55268" lon="-1.53709">
        <ele>153.8</ele>
        <time>2022-02-28T14:56:05Z</time>
      </trkpt>
      <trkpt lat="49.55271" lon="-1.53703">
        <ele>153.5</ele>
        <time>2022-02-28T14:56:08Z</time>
      </trkpt>
      <trkpt lat="49.55274" lon="-1.53696">
        <ele>153.4</ele>
        <time>2022-02-28T14:56:12Z</time>
      </trkpt>
      <trkpt lat="49.55277" lon="-1.53688">
        <ele>153.4</ele>
        <time>2022-02-28T14:56:16Z</time>
      </trkpt>
      <trkpt lat="49.5528" lon="-1.53682">
        <ele>153.6</ele>
        <time>2022-02-28T14:56:20Z</time>
      </trkpt>
      <trkpt lat="49.55281" lon="-1.53674">
        <ele>153.8</ele>
        <time>2022-02-28T14:56:25Z</time>
      </trkpt>
      <trkpt lat="49.55285" lon="-1.53668">
        <ele>154.1</ele>
        <time>2022-02-28T14:56:29Z</time>
      </trkpt>
      <trkpt lat="49.55288" lon="-1.53662">
        <ele>154.1</ele>
        <time>2022-02-28T14:56:33Z</time>
      </trkpt>
      <trkpt lat="49.55291" lon="-1.53656">
        <ele>154.3</ele>
        <time>2022-02-28T14:56:37Z</time>
      </trkpt>
      <trkpt lat="49.55295" lon="-1.53653">
        <ele>154.5</ele>
        <time>2022-02-28T14:56:41Z</time>
      </trkpt>
      <trkpt lat="49.55299" lon="-1.53646">
        <ele>155.2</ele>
        <time>2022-02-28T14:56:46Z</time>
      </trkpt>
      <trkpt lat="49.55302" lon="-1.53637">
        <ele>155.8</ele>
        <time>2022-02-28T14:56:50Z</time>
      </trkpt>
      <trkpt lat="49.55304" lon="-1.53629">
        <ele>156</ele>
        <time>2022-02-28T14:56:53Z</time>
      </trkpt>
      <trkpt lat="49.55307" lon="-1.53622">
        <ele>156.2</ele>
        <time>2022-02-28T14:56:56Z</time>
      </trkpt>
      <trkpt lat="49.5531" lon="-1.53616">
        <ele>156.4</ele>
        <time>2022-02-28T14:56:59Z</time>
      </trkpt>
      <trkpt lat="49.55313" lon="-1.53608">
        <ele>156.5</ele>
        <time>2022-02-28T14:57:02Z</time>
      </trkpt>
      <trkpt lat="49.55316" lon="-1.53602">
        <ele>156.5</ele>
        <time>2022-02-28T14:57:06Z</time>
      </trkpt>
      <trkpt lat="49.55318" lon="-1.53595">
        <ele>155.9</ele>
        <time>2022-02-28T14:57:13Z</time>
      </trkpt>
      <trkpt lat="49.55321" lon="-1.53587">
        <ele>155.4</ele>
        <time>2022-02-28T14:57:19Z</time>
      </trkpt>
      <trkpt lat="49.55323" lon="-1.53581">
        <ele>155.4</ele>
        <time>2022-02-28T14:57:23Z</time>
      </trkpt>
      <trkpt lat="49.55327" lon="-1.53574">
        <ele>155.6</ele>
        <time>2022-02-28T14:57:28Z</time>
      </trkpt>
      <trkpt lat="49.5533" lon="-1.53567">
        <ele>155.8</ele>
        <time>2022-02-28T14:57:33Z</time>
      </trkpt>
      <trkpt lat="49.55333" lon="-1.53561">
        <ele>156.1</ele>
        <time>2022-02-28T14:57:36Z</time>
      </trkpt>
      <trkpt lat="49.55337" lon="-1.53554">
        <ele>156.5</ele>
        <time>2022-02-28T14:57:40Z</time>
      </trkpt>
      <trkpt lat="49.55339" lon="-1.53547">
        <ele>156.6</ele>
        <time>2022-02-28T14:57:43Z</time>
      </trkpt>
      <trkpt lat="49.55341" lon="-1.5354">
        <ele>156.7</ele>
        <time>2022-02-28T14:57:47Z</time>
      </trkpt>
      <trkpt lat="49.55344" lon="-1.53532">
        <ele>156.6</ele>
        <time>2022-02-28T14:57:51Z</time>
      </trkpt>
      <trkpt lat="49.55347" lon="-1.53526">
        <ele>156.6</ele>
        <time>2022-02-28T14:57:55Z</time>
      </trkpt>
      <trkpt lat="49.5535" lon="-1.53521">
        <ele>156.6</ele>
        <time>2022-02-28T14:57:58Z</time>
      </trkpt>
      <trkpt lat="49.55353" lon="-1.53514">
        <ele>156.9</ele>
        <time>2022-02-28T14:58:02Z</time>
      </trkpt>
      <trkpt lat="49.55356" lon="-1.53508">
        <ele>157.2</ele>
        <time>2022-02-28T14:58:06Z</time>
      </trkpt>
      <trkpt lat="49.55358" lon="-1.53501">
        <ele>157.3</ele>
        <time>2022-02-28T14:58:10Z</time>
      </trkpt>
      <trkpt lat="49.55358" lon="-1.53493">
        <ele>157.1</ele>
        <time>2022-02-28T14:58:15Z</time>
      </trkpt>
      <trkpt lat="49.55356" lon="-1.53487">
        <ele>157.6</ele>
        <time>2022-02-28T14:58:25Z</time>
      </trkpt>
      <trkpt lat="49.55352" lon="-1.53478">
        <ele>157.4</ele>
        <time>2022-02-28T14:58:29Z</time>
      </trkpt>
      <trkpt lat="49.55348" lon="-1.53471">
        <ele>157.1</ele>
        <time>2022-02-28T14:58:34Z</time>
      </trkpt>
      <trkpt lat="49.55345" lon="-1.53465">
        <ele>156.9</ele>
        <time>2022-02-28T14:58:37Z</time>
      </trkpt>
      <trkpt lat="49.55342" lon="-1.53459">
        <ele>156.8</ele>
        <time>2022-02-28T14:58:41Z</time>
      </trkpt>
      <trkpt lat="49.5534" lon="-1.53452">
        <ele>156.7</ele>
        <time>2022-02-28T14:58:45Z</time>
      </trkpt>
      <trkpt lat="49.55338" lon="-1.53445">
        <ele>156.8</ele>
        <time>2022-02-28T14:58:49Z</time>
      </trkpt>
      <trkpt lat="49.55336" lon="-1.53438">
        <ele>157</ele>
        <time>2022-02-28T14:58:53Z</time>
      </trkpt>
      <trkpt lat="49.55334" lon="-1.5343">
        <ele>157.1</ele>
        <time>2022-02-28T14:58:57Z</time>
      </trkpt>
      <trkpt lat="49.55332" lon="-1.53422">
        <ele>157.2</ele>
        <time>2022-02-28T14:59:01Z</time>
      </trkpt>
      <trkpt lat="49.55329" lon="-1.53415">
        <ele>157.1</ele>
        <time>2022-02-28T14:59:05Z</time>
      </trkpt>
      <trkpt lat="49.55326" lon="-1.53408">
        <ele>157</ele>
        <time>2022-02-28T14:59:10Z</time>
      </trkpt>
      <trkpt lat="49.55325" lon="-1.534">
        <ele>157.2</ele>
        <time>2022-02-28T14:59:16Z</time>
      </trkpt>
      <trkpt lat="49.55323" lon="-1.53394">
        <ele>156.9</ele>
        <time>2022-02-28T14:59:53Z</time>
      </trkpt>
      <trkpt lat="49.55321" lon="-1.53387">
        <ele>156.8</ele>
        <time>2022-02-28T14:59:55Z</time>
      </trkpt>
      <trkpt lat="49.55313" lon="-1.53364">
        <ele>156.1</ele>
        <time>2022-02-28T15:00:05Z</time>
      </trkpt>
      <trkpt lat="49.55313" lon="-1.53355">
        <ele>156</ele>
        <time>2022-02-28T15:00:10Z</time>
      </trkpt>
      <trkpt lat="49.55317" lon="-1.53348">
        <ele>156</ele>
        <time>2022-02-28T15:00:13Z</time>
      </trkpt>
      <trkpt lat="49.55321" lon="-1.53344">
        <ele>156</ele>
        <time>2022-02-28T15:00:16Z</time>
      </trkpt>
      <trkpt lat="49.55328" lon="-1.53339">
        <ele>156.1</ele>
        <time>2022-02-28T15:00:21Z</time>
      </trkpt>
      <trkpt lat="49.55333" lon="-1.53336">
        <ele>156.3</ele>
        <time>2022-02-28T15:00:26Z</time>
      </trkpt>
      <trkpt lat="49.55338" lon="-1.53333">
        <ele>156.3</ele>
        <time>2022-02-28T15:00:30Z</time>
      </trkpt>
      <trkpt lat="49.55343" lon="-1.5333">
        <ele>156.4</ele>
        <time>2022-02-28T15:00:42Z</time>
      </trkpt>
      <trkpt lat="49.55344" lon="-1.53324">
        <ele>156.4</ele>
        <time>2022-02-28T15:00:48Z</time>
      </trkpt>
      <trkpt lat="49.55347" lon="-1.53316">
        <ele>156.8</ele>
        <time>2022-02-28T15:00:57Z</time>
      </trkpt>
      <trkpt lat="49.55352" lon="-1.5331">
        <ele>156.9</ele>
        <time>2022-02-28T15:01:01Z</time>
      </trkpt>
      <trkpt lat="49.55355" lon="-1.53306">
        <ele>157</ele>
        <time>2022-02-28T15:01:06Z</time>
      </trkpt>
      <trkpt lat="49.5536" lon="-1.53303">
        <ele>156.7</ele>
        <time>2022-02-28T15:01:27Z</time>
      </trkpt>
      <trkpt lat="49.55365" lon="-1.53296">
        <ele>156.4</ele>
        <time>2022-02-28T15:01:32Z</time>
      </trkpt>
      <trkpt lat="49.55369" lon="-1.53289">
        <ele>156.2</ele>
        <time>2022-02-28T15:01:37Z</time>
      </trkpt>
      <trkpt lat="49.55373" lon="-1.53285">
        <ele>156.4</ele>
        <time>2022-02-28T15:01:45Z</time>
      </trkpt>
      <trkpt lat="49.55375" lon="-1.53278">
        <ele>156.7</ele>
        <time>2022-02-28T15:02:09Z</time>
      </trkpt>
      <trkpt lat="49.5538" lon="-1.53272">
        <ele>156.5</ele>
        <time>2022-02-28T15:02:12Z</time>
      </trkpt>
      <trkpt lat="49.55384" lon="-1.53267">
        <ele>157</ele>
        <time>2022-02-28T15:02:28Z</time>
      </trkpt>
      <trkpt lat="49.55388" lon="-1.53261">
        <ele>156.8</ele>
        <time>2022-02-28T15:02:31Z</time>
      </trkpt>
      <trkpt lat="49.55392" lon="-1.53254">
        <ele>156.7</ele>
        <time>2022-02-28T15:02:35Z</time>
      </trkpt>
      <trkpt lat="49.55396" lon="-1.53251">
        <ele>157</ele>
        <time>2022-02-28T15:02:50Z</time>
      </trkpt>
      <trkpt lat="49.55401" lon="-1.53243">
        <ele>156.9</ele>
        <time>2022-02-28T15:02:55Z</time>
      </trkpt>
      <trkpt lat="49.55406" lon="-1.53239">
        <ele>156.9</ele>
        <time>2022-02-28T15:02:58Z</time>
      </trkpt>
      <trkpt lat="49.5541" lon="-1.53236">
        <ele>157.1</ele>
        <time>2022-02-28T15:03:01Z</time>
      </trkpt>
      <trkpt lat="49.55416" lon="-1.53231">
        <ele>156.9</ele>
        <time>2022-02-28T15:03:28Z</time>
      </trkpt>
      <trkpt lat="49.5542" lon="-1.53227">
        <ele>156.9</ele>
        <time>2022-02-28T15:03:30Z</time>
      </trkpt>
      <trkpt lat="49.55423" lon="-1.53222">
        <ele>156.9</ele>
        <time>2022-02-28T15:03:33Z</time>
      </trkpt>
      <trkpt lat="49.55427" lon="-1.53217">
        <ele>157</ele>
        <time>2022-02-28T15:03:37Z</time>
      </trkpt>
      <trkpt lat="49.5543" lon="-1.53212">
        <ele>157.1</ele>
        <time>2022-02-28T15:03:40Z</time>
      </trkpt>
      <trkpt lat="49.55435" lon="-1.53207">
        <ele>157.2</ele>
        <time>2022-02-28T15:03:45Z</time>
      </trkpt>
      <trkpt lat="49.55439" lon="-1.53203">
        <ele>157.2</ele>
        <time>2022-02-28T15:03:49Z</time>
      </trkpt>
      <trkpt lat="49.55444" lon="-1.53197">
        <ele>157.3</ele>
        <time>2022-02-28T15:03:53Z</time>
      </trkpt>
      <trkpt lat="49.55449" lon="-1.53193">
        <ele>157.3</ele>
        <time>2022-02-28T15:03:58Z</time>
      </trkpt>
      <trkpt lat="49.55454" lon="-1.53187">
        <ele>157.2</ele>
        <time>2022-02-28T15:04:03Z</time>
      </trkpt>
      <trkpt lat="49.55457" lon="-1.53182">
        <ele>157.2</ele>
        <time>2022-02-28T15:04:07Z</time>
      </trkpt>
      <trkpt lat="49.55461" lon="-1.53176">
        <ele>157.2</ele>
        <time>2022-02-28T15:04:11Z</time>
      </trkpt>
      <trkpt lat="49.55466" lon="-1.53169">
        <ele>157.1</ele>
        <time>2022-02-28T15:04:16Z</time>
      </trkpt>
      <trkpt lat="49.5547" lon="-1.53165">
        <ele>156.8</ele>
        <time>2022-02-28T15:04:21Z</time>
      </trkpt>
      <trkpt lat="49.55474" lon="-1.53161">
        <ele>156.7</ele>
        <time>2022-02-28T15:04:24Z</time>
      </trkpt>
      <trkpt lat="49.55478" lon="-1.53154">
        <ele>156.6</ele>
        <time>2022-02-28T15:04:28Z</time>
      </trkpt>
      <trkpt lat="49.55483" lon="-1.53147">
        <ele>156.5</ele>
        <time>2022-02-28T15:04:34Z</time>
      </trkpt>
      <trkpt lat="49.55489" lon="-1.53142">
        <ele>156.5</ele>
        <time>2022-02-28T15:04:38Z</time>
      </trkpt>
      <trkpt lat="49.55494" lon="-1.53136">
        <ele>156.6</ele>
        <time>2022-02-28T15:04:43Z</time>
      </trkpt>
      <trkpt lat="49.55499" lon="-1.5313">
        <ele>156.6</ele>
        <time>2022-02-28T15:04:48Z</time>
      </trkpt>
      <trkpt lat="49.55504" lon="-1.53123">
        <ele>156.7</ele>
        <time>2022-02-28T15:04:53Z</time>
      </trkpt>
      <trkpt lat="49.55508" lon="-1.53118">
        <ele>156.8</ele>
        <time>2022-02-28T15:04:58Z</time>
      </trkpt>
      <trkpt lat="49.55512" lon="-1.53113">
        <ele>156.9</ele>
        <time>2022-02-28T15:05:02Z</time>
      </trkpt>
      <trkpt lat="49.55516" lon="-1.53107">
        <ele>157</ele>
        <time>2022-02-28T15:05:06Z</time>
      </trkpt>
      <trkpt lat="49.5552" lon="-1.53101">
        <ele>157.1</ele>
        <time>2022-02-28T15:05:10Z</time>
      </trkpt>
      <trkpt lat="49.55524" lon="-1.53097">
        <ele>157</ele>
        <time>2022-02-28T15:05:13Z</time>
      </trkpt>
      <trkpt lat="49.55528" lon="-1.53091">
        <ele>157</ele>
        <time>2022-02-28T15:05:18Z</time>
      </trkpt>
      <trkpt lat="49.55533" lon="-1.53086">
        <ele>157.1</ele>
        <time>2022-02-28T15:05:23Z</time>
      </trkpt>
      <trkpt lat="49.55536" lon="-1.5308">
        <ele>157.1</ele>
        <time>2022-02-28T15:05:27Z</time>
      </trkpt>
      <trkpt lat="49.5554" lon="-1.53074">
        <ele>156.6</ele>
        <time>2022-02-28T15:05:31Z</time>
      </trkpt>
      <trkpt lat="49.55544" lon="-1.53069">
        <ele>156.4</ele>
        <time>2022-02-28T15:05:35Z</time>
      </trkpt>
      <trkpt lat="49.55547" lon="-1.53065">
        <ele>156.3</ele>
        <time>2022-02-28T15:05:39Z</time>
      </trkpt>
      <trkpt lat="49.55553" lon="-1.53059">
        <ele>156.2</ele>
        <time>2022-02-28T15:05:44Z</time>
      </trkpt>
      <trkpt lat="49.55557" lon="-1.53055">
        <ele>156.2</ele>
        <time>2022-02-28T15:05:48Z</time>
      </trkpt>
      <trkpt lat="49.55561" lon="-1.53051">
        <ele>156.4</ele>
        <time>2022-02-28T15:05:51Z</time>
      </trkpt>
      <trkpt lat="49.55565" lon="-1.53046">
        <ele>156.5</ele>
        <time>2022-02-28T15:05:55Z</time>
      </trkpt>
      <trkpt lat="49.5557" lon="-1.5304">
        <ele>156.6</ele>
        <time>2022-02-28T15:05:59Z</time>
      </trkpt>
      <trkpt lat="49.55573" lon="-1.53035">
        <ele>156.5</ele>
        <time>2022-02-28T15:06:03Z</time>
      </trkpt>
      <trkpt lat="49.55578" lon="-1.53029">
        <ele>156.4</ele>
        <time>2022-02-28T15:06:07Z</time>
      </trkpt>
      <trkpt lat="49.55582" lon="-1.53024">
        <ele>156.3</ele>
        <time>2022-02-28T15:06:11Z</time>
      </trkpt>
      <trkpt lat="49.55586" lon="-1.53019">
        <ele>156</ele>
        <time>2022-02-28T15:06:15Z</time>
      </trkpt>
      <trkpt lat="49.5559" lon="-1.53015">
        <ele>156</ele>
        <time>2022-02-28T15:06:19Z</time>
      </trkpt>
      <trkpt lat="49.55594" lon="-1.5301">
        <ele>156</ele>
        <time>2022-02-28T15:06:24Z</time>
      </trkpt>
      <trkpt lat="49.55598" lon="-1.53004">
        <ele>156</ele>
        <time>2022-02-28T15:06:28Z</time>
      </trkpt>
      <trkpt lat="49.55602" lon="-1.52999">
        <ele>156</ele>
        <time>2022-02-28T15:06:32Z</time>
      </trkpt>
      <trkpt lat="49.55606" lon="-1.52994">
        <ele>156</ele>
        <time>2022-02-28T15:06:36Z</time>
      </trkpt>
      <trkpt lat="49.5561" lon="-1.52989">
        <ele>155.9</ele>
        <time>2022-02-28T15:06:41Z</time>
      </trkpt>
      <trkpt lat="49.55614" lon="-1.52984">
        <ele>156</ele>
        <time>2022-02-28T15:06:46Z</time>
      </trkpt>
      <trkpt lat="49.55617" lon="-1.52978">
        <ele>156.4</ele>
        <time>2022-02-28T15:06:49Z</time>
      </trkpt>
      <trkpt lat="49.55626" lon="-1.52966">
        <ele>156.8</ele>
        <time>2022-02-28T15:06:55Z</time>
      </trkpt>
      <trkpt lat="49.5563" lon="-1.52962">
        <ele>156.4</ele>
        <time>2022-02-28T15:06:58Z</time>
      </trkpt>
      <trkpt lat="49.55635" lon="-1.52957">
        <ele>156.3</ele>
        <time>2022-02-28T15:07:03Z</time>
      </trkpt>
      <trkpt lat="49.55637" lon="-1.52951">
        <ele>156.4</ele>
        <time>2022-02-28T15:07:08Z</time>
      </trkpt>
      <trkpt lat="49.5564" lon="-1.52944">
        <ele>156.3</ele>
        <time>2022-02-28T15:07:13Z</time>
      </trkpt>
      <trkpt lat="49.55638" lon="-1.52937">
        <ele>156.3</ele>
        <time>2022-02-28T15:07:18Z</time>
      </trkpt>
      <trkpt lat="49.55635" lon="-1.52931">
        <ele>156.3</ele>
        <time>2022-02-28T15:07:22Z</time>
      </trkpt>
      <trkpt lat="49.55632" lon="-1.52923">
        <ele>156.2</ele>
        <time>2022-02-28T15:07:25Z</time>
      </trkpt>
      <trkpt lat="49.55629" lon="-1.52915">
        <ele>155.8</ele>
        <time>2022-02-28T15:07:28Z</time>
      </trkpt>
      <trkpt lat="49.55627" lon="-1.52909">
        <ele>155.3</ele>
        <time>2022-02-28T15:07:33Z</time>
      </trkpt>
      <trkpt lat="49.55624" lon="-1.52902">
        <ele>154.7</ele>
        <time>2022-02-28T15:07:42Z</time>
      </trkpt>
      <trkpt lat="49.55621" lon="-1.52895">
        <ele>154.4</ele>
        <time>2022-02-28T15:07:45Z</time>
      </trkpt>
      <trkpt lat="49.55618" lon="-1.52884">
        <ele>153.9</ele>
        <time>2022-02-28T15:07:49Z</time>
      </trkpt>
      <trkpt lat="49.55615" lon="-1.52871">
        <ele>153.3</ele>
        <time>2022-02-28T15:07:54Z</time>
      </trkpt>
      <trkpt lat="49.55613" lon="-1.52864">
        <ele>153.1</ele>
        <time>2022-02-28T15:07:57Z</time>
      </trkpt>
      <trkpt lat="49.55611" lon="-1.52856">
        <ele>152.6</ele>
        <time>2022-02-28T15:08:01Z</time>
      </trkpt>
      <trkpt lat="49.55608" lon="-1.52847">
        <ele>151.7</ele>
        <time>2022-02-28T15:08:05Z</time>
      </trkpt>
      <trkpt lat="49.55605" lon="-1.52839">
        <ele>150.5</ele>
        <time>2022-02-28T15:08:10Z</time>
      </trkpt>
      <trkpt lat="49.55602" lon="-1.52833">
        <ele>149.4</ele>
        <time>2022-02-28T15:08:14Z</time>
      </trkpt>
      <trkpt lat="49.556" lon="-1.52824">
        <ele>148.7</ele>
        <time>2022-02-28T15:08:18Z</time>
      </trkpt>
      <trkpt lat="49.55598" lon="-1.52817">
        <ele>148.3</ele>
        <time>2022-02-28T15:08:21Z</time>
      </trkpt>
      <trkpt lat="49.55594" lon="-1.52809">
        <ele>147.9</ele>
        <time>2022-02-28T15:08:24Z</time>
      </trkpt>
      <trkpt lat="49.55592" lon="-1.52802">
        <ele>147.5</ele>
        <time>2022-02-28T15:08:28Z</time>
      </trkpt>
      <trkpt lat="49.5559" lon="-1.52795">
        <ele>147.1</ele>
        <time>2022-02-28T15:08:31Z</time>
      </trkpt>
      <trkpt lat="49.55588" lon="-1.52787">
        <ele>146.2</ele>
        <time>2022-02-28T15:08:35Z</time>
      </trkpt>
      <trkpt lat="49.55585" lon="-1.52781">
        <ele>145.6</ele>
        <time>2022-02-28T15:08:39Z</time>
      </trkpt>
      <trkpt lat="49.55583" lon="-1.52775">
        <ele>145.1</ele>
        <time>2022-02-28T15:08:42Z</time>
      </trkpt>
      <trkpt lat="49.5558" lon="-1.52767">
        <ele>144.6</ele>
        <time>2022-02-28T15:08:45Z</time>
      </trkpt>
      <trkpt lat="49.55578" lon="-1.52757">
        <ele>143.8</ele>
        <time>2022-02-28T15:08:50Z</time>
      </trkpt>
      <trkpt lat="49.55574" lon="-1.52749">
        <ele>143.1</ele>
        <time>2022-02-28T15:08:55Z</time>
      </trkpt>
      <trkpt lat="49.55571" lon="-1.52742">
        <ele>142.5</ele>
        <time>2022-02-28T15:09:05Z</time>
      </trkpt>
      <trkpt lat="49.55569" lon="-1.52733">
        <ele>142.4</ele>
        <time>2022-02-28T15:09:08Z</time>
      </trkpt>
      <trkpt lat="49.55567" lon="-1.52727">
        <ele>142.2</ele>
        <time>2022-02-28T15:09:10Z</time>
      </trkpt>
      <trkpt lat="49.55565" lon="-1.52719">
        <ele>141.4</ele>
        <time>2022-02-28T15:09:15Z</time>
      </trkpt>
      <trkpt lat="49.55563" lon="-1.52712">
        <ele>140.2</ele>
        <time>2022-02-28T15:09:22Z</time>
      </trkpt>
      <trkpt lat="49.55561" lon="-1.52705">
        <ele>140.1</ele>
        <time>2022-02-28T15:09:26Z</time>
      </trkpt>
      <trkpt lat="49.55559" lon="-1.52698">
        <ele>139.8</ele>
        <time>2022-02-28T15:09:29Z</time>
      </trkpt>
      <trkpt lat="49.55557" lon="-1.52691">
        <ele>139.4</ele>
        <time>2022-02-28T15:09:33Z</time>
      </trkpt>
      <trkpt lat="49.55549" lon="-1.52667">
        <ele>137.6</ele>
        <time>2022-02-28T15:09:43Z</time>
      </trkpt>
      <trkpt lat="49.55547" lon="-1.5266">
        <ele>136.8</ele>
        <time>2022-02-28T15:09:47Z</time>
      </trkpt>
      <trkpt lat="49.55545" lon="-1.52653">
        <ele>136.8</ele>
        <time>2022-02-28T15:09:55Z</time>
      </trkpt>
      <trkpt lat="49.55541" lon="-1.52644">
        <ele>136.4</ele>
        <time>2022-02-28T15:10:03Z</time>
      </trkpt>
      <trkpt lat="49.55538" lon="-1.52637">
        <ele>135.7</ele>
        <time>2022-02-28T15:10:06Z</time>
      </trkpt>
      <trkpt lat="49.55535" lon="-1.5263">
        <ele>134.7</ele>
        <time>2022-02-28T15:10:10Z</time>
      </trkpt>
      <trkpt lat="49.55526" lon="-1.526">
        <ele>131.6</ele>
        <time>2022-02-28T15:10:20Z</time>
      </trkpt>
      <trkpt lat="49.55524" lon="-1.52593">
        <ele>130.8</ele>
        <time>2022-02-28T15:10:25Z</time>
      </trkpt>
      <trkpt lat="49.55523" lon="-1.52585">
        <ele>130.7</ele>
        <time>2022-02-28T15:10:34Z</time>
      </trkpt>
      <trkpt lat="49.55523" lon="-1.52576">
        <ele>130.3</ele>
        <time>2022-02-28T15:10:39Z</time>
      </trkpt>
      <trkpt lat="49.55524" lon="-1.52569">
        <ele>129.9</ele>
        <time>2022-02-28T15:10:43Z</time>
      </trkpt>
      <trkpt lat="49.55522" lon="-1.52561">
        <ele>129.3</ele>
        <time>2022-02-28T15:10:58Z</time>
      </trkpt>
      <trkpt lat="49.55525" lon="-1.52555">
        <ele>129.2</ele>
        <time>2022-02-28T15:11:02Z</time>
      </trkpt>
      <trkpt lat="49.55528" lon="-1.52548">
        <ele>128.8</ele>
        <time>2022-02-28T15:11:06Z</time>
      </trkpt>
      <trkpt lat="49.55531" lon="-1.52541">
        <ele>128.3</ele>
        <time>2022-02-28T15:11:10Z</time>
      </trkpt>
      <trkpt lat="49.55534" lon="-1.52535">
        <ele>128.1</ele>
        <time>2022-02-28T15:11:13Z</time>
      </trkpt>
      <trkpt lat="49.55538" lon="-1.5253">
        <ele>127.7</ele>
        <time>2022-02-28T15:11:16Z</time>
      </trkpt>
      <trkpt lat="49.55542" lon="-1.52527">
        <ele>127.4</ele>
        <time>2022-02-28T15:11:20Z</time>
      </trkpt>
      <trkpt lat="49.55546" lon="-1.52523">
        <ele>127.2</ele>
        <time>2022-02-28T15:11:24Z</time>
      </trkpt>
      <trkpt lat="49.55551" lon="-1.52521">
        <ele>127.8</ele>
        <time>2022-02-28T15:11:35Z</time>
      </trkpt>
      <trkpt lat="49.55555" lon="-1.52519">
        <ele>128</ele>
        <time>2022-02-28T15:11:43Z</time>
      </trkpt>
      <trkpt lat="49.55561" lon="-1.52516">
        <ele>128.3</ele>
        <time>2022-02-28T15:11:52Z</time>
      </trkpt>
      <trkpt lat="49.55566" lon="-1.52511">
        <ele>128.7</ele>
        <time>2022-02-28T15:11:58Z</time>
      </trkpt>
      <trkpt lat="49.55571" lon="-1.52503">
        <ele>128.9</ele>
        <time>2022-02-28T15:12:02Z</time>
      </trkpt>
      <trkpt lat="49.55577" lon="-1.52495">
        <ele>129.2</ele>
        <time>2022-02-28T15:12:07Z</time>
      </trkpt>
      <trkpt lat="49.55582" lon="-1.5249">
        <ele>129.7</ele>
        <time>2022-02-28T15:12:11Z</time>
      </trkpt>
      <trkpt lat="49.5559" lon="-1.52475">
        <ele>130.2</ele>
        <time>2022-02-28T15:12:16Z</time>
      </trkpt>
      <trkpt lat="49.55594" lon="-1.5247">
        <ele>130.4</ele>
        <time>2022-02-28T15:12:21Z</time>
      </trkpt>
      <trkpt lat="49.55598" lon="-1.52466">
        <ele>130.7</ele>
        <time>2022-02-28T15:12:26Z</time>
      </trkpt>
      <trkpt lat="49.55602" lon="-1.52462">
        <ele>131.4</ele>
        <time>2022-02-28T15:12:38Z</time>
      </trkpt>
      <trkpt lat="49.55607" lon="-1.52457">
        <ele>131.4</ele>
        <time>2022-02-28T15:12:44Z</time>
      </trkpt>
      <trkpt lat="49.5561" lon="-1.52452">
        <ele>131.3</ele>
        <time>2022-02-28T15:12:49Z</time>
      </trkpt>
      <trkpt lat="49.55614" lon="-1.52447">
        <ele>131.2</ele>
        <time>2022-02-28T15:12:53Z</time>
      </trkpt>
      <trkpt lat="49.55618" lon="-1.52443">
        <ele>131.2</ele>
        <time>2022-02-28T15:12:56Z</time>
      </trkpt>
      <trkpt lat="49.55633" lon="-1.52428">
        <ele>130.1</ele>
        <time>2022-02-28T15:13:08Z</time>
      </trkpt>
      <trkpt lat="49.55639" lon="-1.52423">
        <ele>129.6</ele>
        <time>2022-02-28T15:13:12Z</time>
      </trkpt>
      <trkpt lat="49.55644" lon="-1.5242">
        <ele>129.4</ele>
        <time>2022-02-28T15:13:17Z</time>
      </trkpt>
      <trkpt lat="49.55648" lon="-1.52414">
        <ele>128</ele>
        <time>2022-02-28T15:13:38Z</time>
      </trkpt>
      <trkpt lat="49.55652" lon="-1.5241">
        <ele>127.8</ele>
        <time>2022-02-28T15:13:42Z</time>
      </trkpt>
      <trkpt lat="49.55657" lon="-1.52404">
        <ele>127.6</ele>
        <time>2022-02-28T15:13:46Z</time>
      </trkpt>
      <trkpt lat="49.55661" lon="-1.52397">
        <ele>127.5</ele>
        <time>2022-02-28T15:13:50Z</time>
      </trkpt>
      <trkpt lat="49.55665" lon="-1.52391">
        <ele>127.2</ele>
        <time>2022-02-28T15:13:53Z</time>
      </trkpt>
      <trkpt lat="49.5567" lon="-1.52388">
        <ele>127</ele>
        <time>2022-02-28T15:13:56Z</time>
      </trkpt>
      <trkpt lat="49.55675" lon="-1.52383">
        <ele>126.8</ele>
        <time>2022-02-28T15:14:00Z</time>
      </trkpt>
      <trkpt lat="49.55679" lon="-1.52379">
        <ele>126.9</ele>
        <time>2022-02-28T15:14:04Z</time>
      </trkpt>
      <trkpt lat="49.55683" lon="-1.52374">
        <ele>126.9</ele>
        <time>2022-02-28T15:14:09Z</time>
      </trkpt>
      <trkpt lat="49.55687" lon="-1.52369">
        <ele>126.9</ele>
        <time>2022-02-28T15:14:20Z</time>
      </trkpt>
      <trkpt lat="49.55691" lon="-1.52364">
        <ele>126.9</ele>
        <time>2022-02-28T15:14:25Z</time>
      </trkpt>
      <trkpt lat="49.55695" lon="-1.52359">
        <ele>126.9</ele>
        <time>2022-02-28T15:14:29Z</time>
      </trkpt>
      <trkpt lat="49.557" lon="-1.52354">
        <ele>126.9</ele>
        <time>2022-02-28T15:14:32Z</time>
      </trkpt>
      <trkpt lat="49.55704" lon="-1.52349">
        <ele>126.9</ele>
        <time>2022-02-28T15:14:35Z</time>
      </trkpt>
      <trkpt lat="49.55711" lon="-1.52342">
        <ele>126.9</ele>
        <time>2022-02-28T15:14:41Z</time>
      </trkpt>
      <trkpt lat="49.55714" lon="-1.52336">
        <ele>127.2</ele>
        <time>2022-02-28T15:14:48Z</time>
      </trkpt>
      <trkpt lat="49.55718" lon="-1.52334">
        <ele>127.5</ele>
        <time>2022-02-28T15:14:56Z</time>
      </trkpt>
      <trkpt lat="49.55723" lon="-1.5233">
        <ele>127.4</ele>
        <time>2022-02-28T15:15:11Z</time>
      </trkpt>
      <trkpt lat="49.55727" lon="-1.52328">
        <ele>127.3</ele>
        <time>2022-02-28T15:15:22Z</time>
      </trkpt>
      <trkpt lat="49.55731" lon="-1.52323">
        <ele>127.3</ele>
        <time>2022-02-28T15:15:25Z</time>
      </trkpt>
      <trkpt lat="49.55736" lon="-1.52318">
        <ele>127.1</ele>
        <time>2022-02-28T15:15:28Z</time>
      </trkpt>
      <trkpt lat="49.55739" lon="-1.52312">
        <ele>126.8</ele>
        <time>2022-02-28T15:15:33Z</time>
      </trkpt>
      <trkpt lat="49.55743" lon="-1.52307">
        <ele>126.8</ele>
        <time>2022-02-28T15:15:36Z</time>
      </trkpt>
      <trkpt lat="49.55746" lon="-1.52304">
        <ele>126.5</ele>
        <time>2022-02-28T15:15:40Z</time>
      </trkpt>
      <trkpt lat="49.55752" lon="-1.52301">
        <ele>125</ele>
        <time>2022-02-28T15:15:55Z</time>
      </trkpt>
      <trkpt lat="49.55756" lon="-1.52303">
        <ele>126.5</ele>
        <time>2022-02-28T15:16:09Z</time>
      </trkpt>
      <trkpt lat="49.55758" lon="-1.52297">
        <ele>125.5</ele>
        <time>2022-02-28T15:16:55Z</time>
      </trkpt>
      <trkpt lat="49.55762" lon="-1.52292">
        <ele>125.7</ele>
        <time>2022-02-28T15:17:15Z</time>
      </trkpt>
      <trkpt lat="49.55766" lon="-1.52289">
        <ele>125.7</ele>
        <time>2022-02-28T15:17:18Z</time>
      </trkpt>
      <trkpt lat="49.5577" lon="-1.52285">
        <ele>125.5</ele>
        <time>2022-02-28T15:17:30Z</time>
      </trkpt>
      <trkpt lat="49.55774" lon="-1.52285">
        <ele>125.2</ele>
        <time>2022-02-28T15:17:50Z</time>
      </trkpt>
      <trkpt lat="49.55779" lon="-1.52284">
        <ele>125.7</ele>
        <time>2022-02-28T15:17:54Z</time>
      </trkpt>
      <trkpt lat="49.55783" lon="-1.52278">
        <ele>125.7</ele>
        <time>2022-02-28T15:17:59Z</time>
      </trkpt>
      <trkpt lat="49.55788" lon="-1.52273">
        <ele>125.1</ele>
        <time>2022-02-28T15:18:02Z</time>
      </trkpt>
      <trkpt lat="49.55791" lon="-1.52268">
        <ele>124.5</ele>
        <time>2022-02-28T15:18:06Z</time>
      </trkpt>
      <trkpt lat="49.55795" lon="-1.52262">
        <ele>123.8</ele>
        <time>2022-02-28T15:18:10Z</time>
      </trkpt>
      <trkpt lat="49.55799" lon="-1.52256">
        <ele>123.1</ele>
        <time>2022-02-28T15:18:14Z</time>
      </trkpt>
      <trkpt lat="49.55804" lon="-1.52253">
        <ele>122.1</ele>
        <time>2022-02-28T15:18:18Z</time>
      </trkpt>
      <trkpt lat="49.55808" lon="-1.52248">
        <ele>121.8</ele>
        <time>2022-02-28T15:18:22Z</time>
      </trkpt>
      <trkpt lat="49.55813" lon="-1.52244">
        <ele>121.6</ele>
        <time>2022-02-28T15:18:27Z</time>
      </trkpt>
      <trkpt lat="49.55817" lon="-1.52241">
        <ele>120.6</ele>
        <time>2022-02-28T15:18:32Z</time>
      </trkpt>
      <trkpt lat="49.55821" lon="-1.52237">
        <ele>120.1</ele>
        <time>2022-02-28T15:18:36Z</time>
      </trkpt>
      <trkpt lat="49.55825" lon="-1.52232">
        <ele>119.9</ele>
        <time>2022-02-28T15:18:38Z</time>
      </trkpt>
      <trkpt lat="49.55829" lon="-1.52226">
        <ele>119.6</ele>
        <time>2022-02-28T15:18:42Z</time>
      </trkpt>
      <trkpt lat="49.55833" lon="-1.52221">
        <ele>118.5</ele>
        <time>2022-02-28T15:18:47Z</time>
      </trkpt>
      <trkpt lat="49.55836" lon="-1.52216">
        <ele>116.8</ele>
        <time>2022-02-28T15:19:00Z</time>
      </trkpt>
      <trkpt lat="49.55842" lon="-1.52209">
        <ele>116.5</ele>
        <time>2022-02-28T15:19:03Z</time>
      </trkpt>
      <trkpt lat="49.55846" lon="-1.52203">
        <ele>116.1</ele>
        <time>2022-02-28T15:19:06Z</time>
      </trkpt>
      <trkpt lat="49.5585" lon="-1.52199">
        <ele>115.7</ele>
        <time>2022-02-28T15:19:09Z</time>
      </trkpt>
      <trkpt lat="49.55854" lon="-1.52199">
        <ele>115.2</ele>
        <time>2022-02-28T15:19:13Z</time>
      </trkpt>
      <trkpt lat="49.5586" lon="-1.52199">
        <ele>114.8</ele>
        <time>2022-02-28T15:19:16Z</time>
      </trkpt>
      <trkpt lat="49.55865" lon="-1.52202">
        <ele>114.3</ele>
        <time>2022-02-28T15:19:21Z</time>
      </trkpt>
      <trkpt lat="49.55869" lon="-1.52207">
        <ele>114.3</ele>
        <time>2022-02-28T15:19:25Z</time>
      </trkpt>
      <trkpt lat="49.55874" lon="-1.52211">
        <ele>114.4</ele>
        <time>2022-02-28T15:19:29Z</time>
      </trkpt>
      <trkpt lat="49.55879" lon="-1.52215">
        <ele>114.6</ele>
        <time>2022-02-28T15:19:34Z</time>
      </trkpt>
      <trkpt lat="49.55883" lon="-1.52219">
        <ele>114.7</ele>
        <time>2022-02-28T15:19:40Z</time>
      </trkpt>
      <trkpt lat="49.55887" lon="-1.52224">
        <ele>114.8</ele>
        <time>2022-02-28T15:19:44Z</time>
      </trkpt>
      <trkpt lat="49.55892" lon="-1.52228">
        <ele>115</ele>
        <time>2022-02-28T15:19:47Z</time>
      </trkpt>
      <trkpt lat="49.55896" lon="-1.5223">
        <ele>115.2</ele>
        <time>2022-02-28T15:19:49Z</time>
      </trkpt>
      <trkpt lat="49.55901" lon="-1.52233">
        <ele>115.3</ele>
        <time>2022-02-28T15:19:52Z</time>
      </trkpt>
      <trkpt lat="49.55923" lon="-1.52241">
        <ele>115.4</ele>
        <time>2022-02-28T15:20:06Z</time>
      </trkpt>
      <trkpt lat="49.55927" lon="-1.52245">
        <ele>115.5</ele>
        <time>2022-02-28T15:20:10Z</time>
      </trkpt>
      <trkpt lat="49.55931" lon="-1.52247">
        <ele>115.6</ele>
        <time>2022-02-28T15:20:14Z</time>
      </trkpt>
      <trkpt lat="49.55936" lon="-1.52251">
        <ele>115.6</ele>
        <time>2022-02-28T15:20:18Z</time>
      </trkpt>
      <trkpt lat="49.55942" lon="-1.52255">
        <ele>115.4</ele>
        <time>2022-02-28T15:20:22Z</time>
      </trkpt>
      <trkpt lat="49.55946" lon="-1.52258">
        <ele>115.1</ele>
        <time>2022-02-28T15:20:26Z</time>
      </trkpt>
      <trkpt lat="49.55951" lon="-1.52261">
        <ele>114.9</ele>
        <time>2022-02-28T15:20:29Z</time>
      </trkpt>
      <trkpt lat="49.55956" lon="-1.52265">
        <ele>115.1</ele>
        <time>2022-02-28T15:20:33Z</time>
      </trkpt>
      <trkpt lat="49.5596" lon="-1.52269">
        <ele>115.7</ele>
        <time>2022-02-28T15:20:38Z</time>
      </trkpt>
      <trkpt lat="49.55965" lon="-1.52273">
        <ele>115.7</ele>
        <time>2022-02-28T15:20:43Z</time>
      </trkpt>
      <trkpt lat="49.5597" lon="-1.52276">
        <ele>115.7</ele>
        <time>2022-02-28T15:20:46Z</time>
      </trkpt>
      <trkpt lat="49.55977" lon="-1.52277">
        <ele>115.6</ele>
        <time>2022-02-28T15:20:50Z</time>
      </trkpt>
      <trkpt lat="49.55982" lon="-1.52277">
        <ele>115.4</ele>
        <time>2022-02-28T15:20:54Z</time>
      </trkpt>
      <trkpt lat="49.55987" lon="-1.5228">
        <ele>115.3</ele>
        <time>2022-02-28T15:20:58Z</time>
      </trkpt>
      <trkpt lat="49.55991" lon="-1.52284">
        <ele>115.3</ele>
        <time>2022-02-28T15:21:01Z</time>
      </trkpt>
      <trkpt lat="49.55997" lon="-1.52289">
        <ele>115.1</ele>
        <time>2022-02-28T15:21:06Z</time>
      </trkpt>
      <trkpt lat="49.56001" lon="-1.52291">
        <ele>115</ele>
        <time>2022-02-28T15:21:10Z</time>
      </trkpt>
      <trkpt lat="49.56006" lon="-1.52294">
        <ele>114.9</ele>
        <time>2022-02-28T15:21:13Z</time>
      </trkpt>
      <trkpt lat="49.5601" lon="-1.52298">
        <ele>114.7</ele>
        <time>2022-02-28T15:21:16Z</time>
      </trkpt>
      <trkpt lat="49.56015" lon="-1.52301">
        <ele>114.2</ele>
        <time>2022-02-28T15:21:21Z</time>
      </trkpt>
      <trkpt lat="49.56018" lon="-1.52306">
        <ele>113.9</ele>
        <time>2022-02-28T15:21:24Z</time>
      </trkpt>
      <trkpt lat="49.56022" lon="-1.5231">
        <ele>113.5</ele>
        <time>2022-02-28T15:21:28Z</time>
      </trkpt>
      <trkpt lat="49.56027" lon="-1.52313">
        <ele>113.6</ele>
        <time>2022-02-28T15:21:32Z</time>
      </trkpt>
      <trkpt lat="49.56034" lon="-1.52317">
        <ele>113.4</ele>
        <time>2022-02-28T15:21:36Z</time>
      </trkpt>
      <trkpt lat="49.56039" lon="-1.5232">
        <ele>113.2</ele>
        <time>2022-02-28T15:21:41Z</time>
      </trkpt>
      <trkpt lat="49.56052" lon="-1.52331">
        <ele>112.5</ele>
        <time>2022-02-28T15:21:51Z</time>
      </trkpt>
      <trkpt lat="49.56058" lon="-1.52336">
        <ele>111.9</ele>
        <time>2022-02-28T15:21:55Z</time>
      </trkpt>
      <trkpt lat="49.56062" lon="-1.52339">
        <ele>111.1</ele>
        <time>2022-02-28T15:21:59Z</time>
      </trkpt>
      <trkpt lat="49.56067" lon="-1.52343">
        <ele>110.6</ele>
        <time>2022-02-28T15:22:02Z</time>
      </trkpt>
      <trkpt lat="49.56072" lon="-1.52347">
        <ele>110.3</ele>
        <time>2022-02-28T15:22:05Z</time>
      </trkpt>
      <trkpt lat="49.56078" lon="-1.52352">
        <ele>110.1</ele>
        <time>2022-02-28T15:22:10Z</time>
      </trkpt>
      <trkpt lat="49.56083" lon="-1.52355">
        <ele>109.8</ele>
        <time>2022-02-28T15:22:14Z</time>
      </trkpt>
      <trkpt lat="49.56088" lon="-1.52359">
        <ele>109.8</ele>
        <time>2022-02-28T15:22:18Z</time>
      </trkpt>
      <trkpt lat="49.56094" lon="-1.52363">
        <ele>109.9</ele>
        <time>2022-02-28T15:22:21Z</time>
      </trkpt>
      <trkpt lat="49.56099" lon="-1.52365">
        <ele>110.1</ele>
        <time>2022-02-28T15:22:24Z</time>
      </trkpt>
      <trkpt lat="49.56103" lon="-1.52368">
        <ele>110</ele>
        <time>2022-02-28T15:22:27Z</time>
      </trkpt>
      <trkpt lat="49.56108" lon="-1.52372">
        <ele>109.7</ele>
        <time>2022-02-28T15:22:31Z</time>
      </trkpt>
      <trkpt lat="49.56113" lon="-1.52374">
        <ele>109.1</ele>
        <time>2022-02-28T15:22:37Z</time>
      </trkpt>
      <trkpt lat="49.56117" lon="-1.52373">
        <ele>108.4</ele>
        <time>2022-02-28T15:23:07Z</time>
      </trkpt>
      <trkpt lat="49.56122" lon="-1.52378">
        <ele>108.3</ele>
        <time>2022-02-28T15:23:12Z</time>
      </trkpt>
      <trkpt lat="49.56125" lon="-1.52384">
        <ele>108.2</ele>
        <time>2022-02-28T15:23:17Z</time>
      </trkpt>
      <trkpt lat="49.56129" lon="-1.52389">
        <ele>107.9</ele>
        <time>2022-02-28T15:23:22Z</time>
      </trkpt>
      <trkpt lat="49.56133" lon="-1.52393">
        <ele>107.7</ele>
        <time>2022-02-28T15:23:25Z</time>
      </trkpt>
      <trkpt lat="49.56137" lon="-1.52397">
        <ele>107.7</ele>
        <time>2022-02-28T15:23:31Z</time>
      </trkpt>
      <trkpt lat="49.56142" lon="-1.52402">
        <ele>107.8</ele>
        <time>2022-02-28T15:23:46Z</time>
      </trkpt>
      <trkpt lat="49.56146" lon="-1.52407">
        <ele>107.8</ele>
        <time>2022-02-28T15:23:49Z</time>
      </trkpt>
      <trkpt lat="49.5615" lon="-1.52413">
        <ele>107.7</ele>
        <time>2022-02-28T15:23:52Z</time>
      </trkpt>
      <trkpt lat="49.56155" lon="-1.52411">
        <ele>107.6</ele>
        <time>2022-02-28T15:23:59Z</time>
      </trkpt>
      <trkpt lat="49.56159" lon="-1.52406">
        <ele>107.8</ele>
        <time>2022-02-28T15:24:05Z</time>
      </trkpt>
      <trkpt lat="49.56164" lon="-1.52404">
        <ele>107.7</ele>
        <time>2022-02-28T15:24:10Z</time>
      </trkpt>
      <trkpt lat="49.56168" lon="-1.52408">
        <ele>107.5</ele>
        <time>2022-02-28T15:24:24Z</time>
      </trkpt>
      <trkpt lat="49.56168" lon="-1.52415">
        <ele>107.4</ele>
        <time>2022-02-28T15:25:07Z</time>
      </trkpt>
      <trkpt lat="49.56171" lon="-1.52422">
        <ele>107.4</ele>
        <time>2022-02-28T15:25:17Z</time>
      </trkpt>
      <trkpt lat="49.56174" lon="-1.52428">
        <ele>107.5</ele>
        <time>2022-02-28T15:25:21Z</time>
      </trkpt>
      <trkpt lat="49.56179" lon="-1.52431">
        <ele>107.4</ele>
        <time>2022-02-28T15:25:25Z</time>
      </trkpt>
      <trkpt lat="49.56183" lon="-1.52434">
        <ele>107.3</ele>
        <time>2022-02-28T15:25:32Z</time>
      </trkpt>
      <trkpt lat="49.56187" lon="-1.52441">
        <ele>107.2</ele>
        <time>2022-02-28T15:25:47Z</time>
      </trkpt>
      <trkpt lat="49.56191" lon="-1.52448">
        <ele>107</ele>
        <time>2022-02-28T15:25:52Z</time>
      </trkpt>
      <trkpt lat="49.56195" lon="-1.52454">
        <ele>106.7</ele>
        <time>2022-02-28T15:25:56Z</time>
      </trkpt>
      <trkpt lat="49.562" lon="-1.52459">
        <ele>106.7</ele>
        <time>2022-02-28T15:26:01Z</time>
      </trkpt>
      <trkpt lat="49.56204" lon="-1.52463">
        <ele>106.6</ele>
        <time>2022-02-28T15:26:04Z</time>
      </trkpt>
      <trkpt lat="49.56215" lon="-1.52474">
        <ele>106.6</ele>
        <time>2022-02-28T15:26:11Z</time>
      </trkpt>
      <trkpt lat="49.5622" lon="-1.52479">
        <ele>106.5</ele>
        <time>2022-02-28T15:26:14Z</time>
      </trkpt>
      <trkpt lat="49.56226" lon="-1.52482">
        <ele>106.3</ele>
        <time>2022-02-28T15:26:18Z</time>
      </trkpt>
      <trkpt lat="49.56232" lon="-1.52481">
        <ele>106.3</ele>
        <time>2022-02-28T15:26:21Z</time>
      </trkpt>
      <trkpt lat="49.56238" lon="-1.52482">
        <ele>106.3</ele>
        <time>2022-02-28T15:26:23Z</time>
      </trkpt>
      <trkpt lat="49.56243" lon="-1.52485">
        <ele>106.6</ele>
        <time>2022-02-28T15:26:25Z</time>
      </trkpt>
      <trkpt lat="49.56248" lon="-1.52487">
        <ele>106.9</ele>
        <time>2022-02-28T15:26:27Z</time>
      </trkpt>
      <trkpt lat="49.56254" lon="-1.52491">
        <ele>107</ele>
        <time>2022-02-28T15:26:30Z</time>
      </trkpt>
      <trkpt lat="49.56259" lon="-1.52495">
        <ele>107</ele>
        <time>2022-02-28T15:26:33Z</time>
      </trkpt>
      <trkpt lat="49.56263" lon="-1.52497">
        <ele>106.5</ele>
        <time>2022-02-28T15:26:55Z</time>
      </trkpt>
      <trkpt lat="49.56269" lon="-1.525">
        <ele>106.5</ele>
        <time>2022-02-28T15:26:59Z</time>
      </trkpt>
      <trkpt lat="49.56273" lon="-1.52504">
        <ele>106.3</ele>
        <time>2022-02-28T15:27:03Z</time>
      </trkpt>
      <trkpt lat="49.56278" lon="-1.52508">
        <ele>106.1</ele>
        <time>2022-02-28T15:27:07Z</time>
      </trkpt>
      <trkpt lat="49.56282" lon="-1.52514">
        <ele>106.3</ele>
        <time>2022-02-28T15:27:12Z</time>
      </trkpt>
      <trkpt lat="49.56285" lon="-1.5251">
        <ele>106.6</ele>
        <time>2022-02-28T15:28:12Z</time>
      </trkpt>
      <trkpt lat="49.56282" lon="-1.52506">
        <ele>105.9</ele>
        <time>2022-02-28T15:28:31Z</time>
      </trkpt>
      <trkpt lat="49.5628" lon="-1.52512">
        <ele>105.4</ele>
        <time>2022-02-28T15:29:34Z</time>
      </trkpt>
      <trkpt lat="49.56285" lon="-1.52515">
        <ele>105.6</ele>
        <time>2022-02-28T15:29:41Z</time>
      </trkpt>
      <trkpt lat="49.56289" lon="-1.52519">
        <ele>105.7</ele>
        <time>2022-02-28T15:29:44Z</time>
      </trkpt>
      <trkpt lat="49.56293" lon="-1.52525">
        <ele>105.8</ele>
        <time>2022-02-28T15:29:47Z</time>
      </trkpt>
      <trkpt lat="49.56299" lon="-1.52532">
        <ele>105.8</ele>
        <time>2022-02-28T15:29:51Z</time>
      </trkpt>
      <trkpt lat="49.56301" lon="-1.52537">
        <ele>105.7</ele>
        <time>2022-02-28T15:29:57Z</time>
      </trkpt>
      <trkpt lat="49.56306" lon="-1.5254">
        <ele>106.5</ele>
        <time>2022-02-28T15:30:11Z</time>
      </trkpt>
      <trkpt lat="49.5631" lon="-1.52544">
        <ele>106.9</ele>
        <time>2022-02-28T15:30:22Z</time>
      </trkpt>
      <trkpt lat="49.56311" lon="-1.52537">
        <ele>107.2</ele>
        <time>2022-02-28T15:30:44Z</time>
      </trkpt>
      <trkpt lat="49.56311" lon="-1.5253">
        <ele>107.4</ele>
        <time>2022-02-28T15:31:05Z</time>
      </trkpt>
      <trkpt lat="49.5631" lon="-1.52523">
        <ele>107.4</ele>
        <time>2022-02-28T15:32:02Z</time>
      </trkpt>
      <trkpt lat="49.56306" lon="-1.52525">
        <ele>107.5</ele>
        <time>2022-02-28T15:33:05Z</time>
      </trkpt>
      <trkpt lat="49.5631" lon="-1.52529">
        <ele>106.7</ele>
        <time>2022-02-28T15:33:45Z</time>
      </trkpt>
      <trkpt lat="49.56314" lon="-1.52533">
        <ele>106.8</ele>
        <time>2022-02-28T15:33:51Z</time>
      </trkpt>
      <trkpt lat="49.56318" lon="-1.52537">
        <ele>106.9</ele>
        <time>2022-02-28T15:33:54Z</time>
      </trkpt>
      <trkpt lat="49.56322" lon="-1.52541">
        <ele>107</ele>
        <time>2022-02-28T15:33:57Z</time>
      </trkpt>
      <trkpt lat="49.56327" lon="-1.52545">
        <ele>107.1</ele>
        <time>2022-02-28T15:34:00Z</time>
      </trkpt>
      <trkpt lat="49.56332" lon="-1.52548">
        <ele>107.2</ele>
        <time>2022-02-28T15:34:03Z</time>
      </trkpt>
      <trkpt lat="49.56336" lon="-1.52553">
        <ele>107.5</ele>
        <time>2022-02-28T15:34:07Z</time>
      </trkpt>
      <trkpt lat="49.56341" lon="-1.52557">
        <ele>108</ele>
        <time>2022-02-28T15:34:14Z</time>
      </trkpt>
      <trkpt lat="49.56345" lon="-1.52559">
        <ele>108.2</ele>
        <time>2022-02-28T15:34:19Z</time>
      </trkpt>
      <trkpt lat="49.5635" lon="-1.52564">
        <ele>108.4</ele>
        <time>2022-02-28T15:34:24Z</time>
      </trkpt>
      <trkpt lat="49.56355" lon="-1.52569">
        <ele>108.7</ele>
        <time>2022-02-28T15:34:29Z</time>
      </trkpt>
      <trkpt lat="49.56359" lon="-1.52572">
        <ele>109.5</ele>
        <time>2022-02-28T15:34:39Z</time>
      </trkpt>
      <trkpt lat="49.56364" lon="-1.52576">
        <ele>109.8</ele>
        <time>2022-02-28T15:34:49Z</time>
      </trkpt>
      <trkpt lat="49.56368" lon="-1.5258">
        <ele>109.9</ele>
        <time>2022-02-28T15:34:53Z</time>
      </trkpt>
      <trkpt lat="49.56373" lon="-1.52583">
        <ele>109.9</ele>
        <time>2022-02-28T15:34:55Z</time>
      </trkpt>
      <trkpt lat="49.56377" lon="-1.52587">
        <ele>110</ele>
        <time>2022-02-28T15:34:57Z</time>
      </trkpt>
      <trkpt lat="49.56382" lon="-1.5259">
        <ele>110</ele>
        <time>2022-02-28T15:35:00Z</time>
      </trkpt>
      <trkpt lat="49.56388" lon="-1.52594">
        <ele>110.3</ele>
        <time>2022-02-28T15:35:05Z</time>
      </trkpt>
      <trkpt lat="49.56392" lon="-1.52598">
        <ele>110.7</ele>
        <time>2022-02-28T15:35:09Z</time>
      </trkpt>
      <trkpt lat="49.56397" lon="-1.52603">
        <ele>111.4</ele>
        <time>2022-02-28T15:35:14Z</time>
      </trkpt>
      <trkpt lat="49.56402" lon="-1.52607">
        <ele>111.8</ele>
        <time>2022-02-28T15:35:19Z</time>
      </trkpt>
      <trkpt lat="49.56407" lon="-1.52609">
        <ele>112.1</ele>
        <time>2022-02-28T15:35:23Z</time>
      </trkpt>
      <trkpt lat="49.56412" lon="-1.52611">
        <ele>112.4</ele>
        <time>2022-02-28T15:35:26Z</time>
      </trkpt>
      <trkpt lat="49.56427" lon="-1.52621">
        <ele>113</ele>
        <time>2022-02-28T15:35:36Z</time>
      </trkpt>
      <trkpt lat="49.56432" lon="-1.52625">
        <ele>113.8</ele>
        <time>2022-02-28T15:35:41Z</time>
      </trkpt>
      <trkpt lat="49.56436" lon="-1.52628">
        <ele>114.1</ele>
        <time>2022-02-28T15:35:46Z</time>
      </trkpt>
      <trkpt lat="49.56441" lon="-1.52632">
        <ele>114.1</ele>
        <time>2022-02-28T15:35:50Z</time>
      </trkpt>
      <trkpt lat="49.56444" lon="-1.52636">
        <ele>114.3</ele>
        <time>2022-02-28T15:35:55Z</time>
      </trkpt>
      <trkpt lat="49.56449" lon="-1.5264">
        <ele>114.5</ele>
        <time>2022-02-28T15:36:00Z</time>
      </trkpt>
      <trkpt lat="49.56454" lon="-1.52645">
        <ele>114.8</ele>
        <time>2022-02-28T15:36:05Z</time>
      </trkpt>
      <trkpt lat="49.56458" lon="-1.52648">
        <ele>115.2</ele>
        <time>2022-02-28T15:36:08Z</time>
      </trkpt>
      <trkpt lat="49.56465" lon="-1.52652">
        <ele>115.5</ele>
        <time>2022-02-28T15:36:11Z</time>
      </trkpt>
      <trkpt lat="49.56471" lon="-1.52654">
        <ele>115.9</ele>
        <time>2022-02-28T15:36:15Z</time>
      </trkpt>
      <trkpt lat="49.56475" lon="-1.52657">
        <ele>116.1</ele>
        <time>2022-02-28T15:36:18Z</time>
      </trkpt>
      <trkpt lat="49.5648" lon="-1.5266">
        <ele>116.4</ele>
        <time>2022-02-28T15:36:21Z</time>
      </trkpt>
      <trkpt lat="49.56485" lon="-1.52665">
        <ele>116.8</ele>
        <time>2022-02-28T15:36:26Z</time>
      </trkpt>
      <trkpt lat="49.56491" lon="-1.52668">
        <ele>117.1</ele>
        <time>2022-02-28T15:36:30Z</time>
      </trkpt>
      <trkpt lat="49.56496" lon="-1.52671">
        <ele>117.4</ele>
        <time>2022-02-28T15:36:34Z</time>
      </trkpt>
      <trkpt lat="49.56501" lon="-1.52672">
        <ele>117.6</ele>
        <time>2022-02-28T15:36:37Z</time>
      </trkpt>
      <trkpt lat="49.56506" lon="-1.52678">
        <ele>117.9</ele>
        <time>2022-02-28T15:36:41Z</time>
      </trkpt>
      <trkpt lat="49.5651" lon="-1.52681">
        <ele>118.4</ele>
        <time>2022-02-28T15:36:46Z</time>
      </trkpt>
      <trkpt lat="49.56514" lon="-1.52685">
        <ele>118.8</ele>
        <time>2022-02-28T15:36:50Z</time>
      </trkpt>
      <trkpt lat="49.56518" lon="-1.52689">
        <ele>119.2</ele>
        <time>2022-02-28T15:36:53Z</time>
      </trkpt>
      <trkpt lat="49.56523" lon="-1.52694">
        <ele>119.7</ele>
        <time>2022-02-28T15:36:58Z</time>
      </trkpt>
      <trkpt lat="49.56526" lon="-1.527">
        <ele>120.2</ele>
        <time>2022-02-28T15:37:08Z</time>
      </trkpt>
      <trkpt lat="49.56531" lon="-1.52701">
        <ele>120.8</ele>
        <time>2022-02-28T15:37:17Z</time>
      </trkpt>
      <trkpt lat="49.56536" lon="-1.52703">
        <ele>120.9</ele>
        <time>2022-02-28T15:37:20Z</time>
      </trkpt>
      <trkpt lat="49.5654" lon="-1.52707">
        <ele>120.9</ele>
        <time>2022-02-28T15:37:23Z</time>
      </trkpt>
      <trkpt lat="49.56545" lon="-1.52708">
        <ele>121.6</ele>
        <time>2022-02-28T15:37:48Z</time>
      </trkpt>
      <trkpt lat="49.5655" lon="-1.52709">
        <ele>121.6</ele>
        <time>2022-02-28T15:37:51Z</time>
      </trkpt>
      <trkpt lat="49.56555" lon="-1.5271">
        <ele>121.5</ele>
        <time>2022-02-28T15:37:55Z</time>
      </trkpt>
      <trkpt lat="49.5656" lon="-1.52712">
        <ele>121.4</ele>
        <time>2022-02-28T15:37:58Z</time>
      </trkpt>
      <trkpt lat="49.56565" lon="-1.52713">
        <ele>121.7</ele>
        <time>2022-02-28T15:38:02Z</time>
      </trkpt>
      <trkpt lat="49.5657" lon="-1.52717">
        <ele>122.2</ele>
        <time>2022-02-28T15:38:06Z</time>
      </trkpt>
      <trkpt lat="49.56574" lon="-1.52718">
        <ele>123.3</ele>
        <time>2022-02-28T15:38:13Z</time>
      </trkpt>
      <trkpt lat="49.5658" lon="-1.52717">
        <ele>123.7</ele>
        <time>2022-02-28T15:38:18Z</time>
      </trkpt>
      <trkpt lat="49.56585" lon="-1.52714">
        <ele>124</ele>
        <time>2022-02-28T15:38:22Z</time>
      </trkpt>
      <trkpt lat="49.56589" lon="-1.52712">
        <ele>124.1</ele>
        <time>2022-02-28T15:38:24Z</time>
      </trkpt>
      <trkpt lat="49.56599" lon="-1.52714">
        <ele>124.7</ele>
        <time>2022-02-28T15:38:31Z</time>
      </trkpt>
      <trkpt lat="49.56604" lon="-1.52717">
        <ele>125</ele>
        <time>2022-02-28T15:38:35Z</time>
      </trkpt>
      <trkpt lat="49.56609" lon="-1.52721">
        <ele>125.3</ele>
        <time>2022-02-28T15:38:38Z</time>
      </trkpt>
      <trkpt lat="49.56615" lon="-1.52726">
        <ele>125.7</ele>
        <time>2022-02-28T15:38:41Z</time>
      </trkpt>
      <trkpt lat="49.5662" lon="-1.52731">
        <ele>126</ele>
        <time>2022-02-28T15:38:45Z</time>
      </trkpt>
      <trkpt lat="49.56626" lon="-1.52734">
        <ele>126.3</ele>
        <time>2022-02-28T15:38:48Z</time>
      </trkpt>
      <trkpt lat="49.56632" lon="-1.5274">
        <ele>126.7</ele>
        <time>2022-02-28T15:38:51Z</time>
      </trkpt>
      <trkpt lat="49.56636" lon="-1.52744">
        <ele>127.1</ele>
        <time>2022-02-28T15:38:55Z</time>
      </trkpt>
      <trkpt lat="49.56639" lon="-1.5275">
        <ele>127.6</ele>
        <time>2022-02-28T15:38:59Z</time>
      </trkpt>
      <trkpt lat="49.56643" lon="-1.52756">
        <ele>128.1</ele>
        <time>2022-02-28T15:39:02Z</time>
      </trkpt>
      <trkpt lat="49.56646" lon="-1.52766">
        <ele>128.6</ele>
        <time>2022-02-28T15:39:06Z</time>
      </trkpt>
      <trkpt lat="49.56649" lon="-1.52772">
        <ele>129.3</ele>
        <time>2022-02-28T15:39:11Z</time>
      </trkpt>
      <trkpt lat="49.56653" lon="-1.52778">
        <ele>129.8</ele>
        <time>2022-02-28T15:39:14Z</time>
      </trkpt>
      <trkpt lat="49.56657" lon="-1.52783">
        <ele>130.5</ele>
        <time>2022-02-28T15:39:18Z</time>
      </trkpt>
      <trkpt lat="49.5666" lon="-1.52788">
        <ele>131.6</ele>
        <time>2022-02-28T15:39:24Z</time>
      </trkpt>
      <trkpt lat="49.56663" lon="-1.52795">
        <ele>132.1</ele>
        <time>2022-02-28T15:39:27Z</time>
      </trkpt>
      <trkpt lat="49.56666" lon="-1.52802">
        <ele>132.8</ele>
        <time>2022-02-28T15:39:32Z</time>
      </trkpt>
      <trkpt lat="49.5667" lon="-1.52808">
        <ele>133.5</ele>
        <time>2022-02-28T15:39:35Z</time>
      </trkpt>
      <trkpt lat="49.56671" lon="-1.52815">
        <ele>135.3</ele>
        <time>2022-02-28T15:39:41Z</time>
      </trkpt>
      <trkpt lat="49.56667" lon="-1.52818">
        <ele>136.2</ele>
        <time>2022-02-28T15:39:49Z</time>
      </trkpt>
      <trkpt lat="49.56663" lon="-1.52823">
        <ele>136.6</ele>
        <time>2022-02-28T15:39:56Z</time>
      </trkpt>
      <trkpt lat="49.56663" lon="-1.52831">
        <ele>137</ele>
        <time>2022-02-28T15:40:01Z</time>
      </trkpt>
      <trkpt lat="49.56659" lon="-1.52842">
        <ele>137.3</ele>
        <time>2022-02-28T15:40:04Z</time>
      </trkpt>
      <trkpt lat="49.56655" lon="-1.52851">
        <ele>137.5</ele>
        <time>2022-02-28T15:40:06Z</time>
      </trkpt>
      <trkpt lat="49.56652" lon="-1.52857">
        <ele>137.6</ele>
        <time>2022-02-28T15:40:07Z</time>
      </trkpt>
      <trkpt lat="49.56649" lon="-1.52865">
        <ele>138</ele>
        <time>2022-02-28T15:40:10Z</time>
      </trkpt>
      <trkpt lat="49.56645" lon="-1.5287">
        <ele>138.1</ele>
        <time>2022-02-28T15:40:12Z</time>
      </trkpt>
      <trkpt lat="49.56643" lon="-1.52877">
        <ele>138.1</ele>
        <time>2022-02-28T15:40:14Z</time>
      </trkpt>
      <trkpt lat="49.5664" lon="-1.52885">
        <ele>138.1</ele>
        <time>2022-02-28T15:40:18Z</time>
      </trkpt>
      <trkpt lat="49.56637" lon="-1.52891">
        <ele>138.4</ele>
        <time>2022-02-28T15:40:22Z</time>
      </trkpt>
      <trkpt lat="49.56635" lon="-1.52898">
        <ele>139.2</ele>
        <time>2022-02-28T15:40:27Z</time>
      </trkpt>
      <trkpt lat="49.56632" lon="-1.52903">
        <ele>139.6</ele>
        <time>2022-02-28T15:40:31Z</time>
      </trkpt>
      <trkpt lat="49.56628" lon="-1.52908">
        <ele>140.2</ele>
        <time>2022-02-28T15:40:37Z</time>
      </trkpt>
      <trkpt lat="49.56625" lon="-1.52913">
        <ele>140.6</ele>
        <time>2022-02-28T15:40:41Z</time>
      </trkpt>
      <trkpt lat="49.56621" lon="-1.5292">
        <ele>140.8</ele>
        <time>2022-02-28T15:40:46Z</time>
      </trkpt>
      <trkpt lat="49.5662" lon="-1.52926">
        <ele>141</ele>
        <time>2022-02-28T15:40:54Z</time>
      </trkpt>
      <trkpt lat="49.56617" lon="-1.52933">
        <ele>142.1</ele>
        <time>2022-02-28T15:40:58Z</time>
      </trkpt>
      <trkpt lat="49.56615" lon="-1.5294">
        <ele>142.5</ele>
        <time>2022-02-28T15:41:00Z</time>
      </trkpt>
      <trkpt lat="49.56613" lon="-1.52946">
        <ele>143</ele>
        <time>2022-02-28T15:41:03Z</time>
      </trkpt>
      <trkpt lat="49.56612" lon="-1.52957">
        <ele>143</ele>
        <time>2022-02-28T15:41:09Z</time>
      </trkpt>
      <trkpt lat="49.56611" lon="-1.52965">
        <ele>143.4</ele>
        <time>2022-02-28T15:41:20Z</time>
      </trkpt>
      <trkpt lat="49.56608" lon="-1.52975">
        <ele>143.5</ele>
        <time>2022-02-28T15:41:24Z</time>
      </trkpt>
      <trkpt lat="49.56605" lon="-1.52984">
        <ele>143.6</ele>
        <time>2022-02-28T15:41:27Z</time>
      </trkpt>
      <trkpt lat="49.56602" lon="-1.5299">
        <ele>143.6</ele>
        <time>2022-02-28T15:41:30Z</time>
      </trkpt>
      <trkpt lat="49.56601" lon="-1.52997">
        <ele>143.8</ele>
        <time>2022-02-28T15:41:33Z</time>
      </trkpt>
      <trkpt lat="49.56598" lon="-1.53004">
        <ele>144</ele>
        <time>2022-02-28T15:41:36Z</time>
      </trkpt>
      <trkpt lat="49.56596" lon="-1.53011">
        <ele>144.3</ele>
        <time>2022-02-28T15:41:39Z</time>
      </trkpt>
      <trkpt lat="49.56593" lon="-1.53018">
        <ele>144.6</ele>
        <time>2022-02-28T15:41:42Z</time>
      </trkpt>
      <trkpt lat="49.56591" lon="-1.53025">
        <ele>144.9</ele>
        <time>2022-02-28T15:41:46Z</time>
      </trkpt>
      <trkpt lat="49.56589" lon="-1.53032">
        <ele>145.3</ele>
        <time>2022-02-28T15:41:50Z</time>
      </trkpt>
      <trkpt lat="49.56587" lon="-1.53039">
        <ele>145.8</ele>
        <time>2022-02-28T15:41:56Z</time>
      </trkpt>
      <trkpt lat="49.56583" lon="-1.53045">
        <ele>146.1</ele>
        <time>2022-02-28T15:42:01Z</time>
      </trkpt>
      <trkpt lat="49.56579" lon="-1.53052">
        <ele>146.2</ele>
        <time>2022-02-28T15:42:05Z</time>
      </trkpt>
      <trkpt lat="49.56577" lon="-1.53059">
        <ele>146.4</ele>
        <time>2022-02-28T15:42:08Z</time>
      </trkpt>
      <trkpt lat="49.56563" lon="-1.53106">
        <ele>147</ele>
        <time>2022-02-28T15:42:25Z</time>
      </trkpt>
      <trkpt lat="49.56561" lon="-1.53112">
        <ele>147.2</ele>
        <time>2022-02-28T15:42:29Z</time>
      </trkpt>
      <trkpt lat="49.56559" lon="-1.53119">
        <ele>147.3</ele>
        <time>2022-02-28T15:42:33Z</time>
      </trkpt>
      <trkpt lat="49.56557" lon="-1.53125">
        <ele>147.4</ele>
        <time>2022-02-28T15:42:36Z</time>
      </trkpt>
      <trkpt lat="49.56554" lon="-1.53131">
        <ele>147.4</ele>
        <time>2022-02-28T15:42:39Z</time>
      </trkpt>
      <trkpt lat="49.56553" lon="-1.5314">
        <ele>147.3</ele>
        <time>2022-02-28T15:42:43Z</time>
      </trkpt>
      <trkpt lat="49.56552" lon="-1.53147">
        <ele>147.3</ele>
        <time>2022-02-28T15:42:47Z</time>
      </trkpt>
      <trkpt lat="49.56551" lon="-1.53154">
        <ele>147.6</ele>
        <time>2022-02-28T15:42:53Z</time>
      </trkpt>
      <trkpt lat="49.56548" lon="-1.5316">
        <ele>147.8</ele>
        <time>2022-02-28T15:43:05Z</time>
      </trkpt>
      <trkpt lat="49.56545" lon="-1.53166">
        <ele>147.8</ele>
        <time>2022-02-28T15:43:16Z</time>
      </trkpt>
      <trkpt lat="49.56541" lon="-1.53174">
        <ele>147.7</ele>
        <time>2022-02-28T15:43:19Z</time>
      </trkpt>
      <trkpt lat="49.56513" lon="-1.53264">
        <ele>148.1</ele>
        <time>2022-02-28T15:43:56Z</time>
      </trkpt>
      <trkpt lat="49.5651" lon="-1.53271">
        <ele>148.4</ele>
        <time>2022-02-28T15:44:00Z</time>
      </trkpt>
      <trkpt lat="49.56507" lon="-1.53279">
        <ele>148.5</ele>
        <time>2022-02-28T15:44:04Z</time>
      </trkpt>
      <trkpt lat="49.56506" lon="-1.53286">
        <ele>148.6</ele>
        <time>2022-02-28T15:44:07Z</time>
      </trkpt>
      <trkpt lat="49.56503" lon="-1.53295">
        <ele>148.8</ele>
        <time>2022-02-28T15:44:11Z</time>
      </trkpt>
      <trkpt lat="49.565" lon="-1.53302">
        <ele>148.9</ele>
        <time>2022-02-28T15:44:14Z</time>
      </trkpt>
      <trkpt lat="49.56498" lon="-1.53309">
        <ele>149</ele>
        <time>2022-02-28T15:44:17Z</time>
      </trkpt>
      <trkpt lat="49.56496" lon="-1.53315">
        <ele>149.1</ele>
        <time>2022-02-28T15:44:20Z</time>
      </trkpt>
      <trkpt lat="49.56494" lon="-1.53322">
        <ele>149.2</ele>
        <time>2022-02-28T15:44:25Z</time>
      </trkpt>
      <trkpt lat="49.56491" lon="-1.5333">
        <ele>149.4</ele>
        <time>2022-02-28T15:44:29Z</time>
      </trkpt>
      <trkpt lat="49.56488" lon="-1.53336">
        <ele>149.5</ele>
        <time>2022-02-28T15:44:32Z</time>
      </trkpt>
      <trkpt lat="49.56485" lon="-1.53343">
        <ele>149.5</ele>
        <time>2022-02-28T15:44:36Z</time>
      </trkpt>
      <trkpt lat="49.56484" lon="-1.53351">
        <ele>149.5</ele>
        <time>2022-02-28T15:44:39Z</time>
      </trkpt>
      <trkpt lat="49.5648" lon="-1.53365">
        <ele>149.5</ele>
        <time>2022-02-28T15:44:46Z</time>
      </trkpt>
      <trkpt lat="49.56478" lon="-1.53371">
        <ele>149.4</ele>
        <time>2022-02-28T15:44:49Z</time>
      </trkpt>
      <trkpt lat="49.56477" lon="-1.53378">
        <ele>149.1</ele>
        <time>2022-02-28T15:44:53Z</time>
      </trkpt>
      <trkpt lat="49.56476" lon="-1.53385">
        <ele>149.1</ele>
        <time>2022-02-28T15:44:57Z</time>
      </trkpt>
      <trkpt lat="49.56475" lon="-1.53394">
        <ele>149.9</ele>
        <time>2022-02-28T15:45:02Z</time>
      </trkpt>
      <trkpt lat="49.56473" lon="-1.53401">
        <ele>150.5</ele>
        <time>2022-02-28T15:45:05Z</time>
      </trkpt>
      <trkpt lat="49.56469" lon="-1.53406">
        <ele>150.5</ele>
        <time>2022-02-28T15:45:07Z</time>
      </trkpt>
      <trkpt lat="49.56466" lon="-1.53411">
        <ele>150.5</ele>
        <time>2022-02-28T15:45:09Z</time>
      </trkpt>
      <trkpt lat="49.56464" lon="-1.53418">
        <ele>150.5</ele>
        <time>2022-02-28T15:45:11Z</time>
      </trkpt>
      <trkpt lat="49.56461" lon="-1.53425">
        <ele>150.5</ele>
        <time>2022-02-28T15:45:14Z</time>
      </trkpt>
      <trkpt lat="49.56459" lon="-1.53432">
        <ele>150.4</ele>
        <time>2022-02-28T15:45:17Z</time>
      </trkpt>
      <trkpt lat="49.56456" lon="-1.53438">
        <ele>150.2</ele>
        <time>2022-02-28T15:45:21Z</time>
      </trkpt>
      <trkpt lat="49.56451" lon="-1.53442">
        <ele>149.8</ele>
        <time>2022-02-28T15:45:37Z</time>
      </trkpt>
      <trkpt lat="49.56445" lon="-1.5344">
        <ele>149.2</ele>
        <time>2022-02-28T15:45:40Z</time>
      </trkpt>
      <trkpt lat="49.5644" lon="-1.53434">
        <ele>148.7</ele>
        <time>2022-02-28T15:45:44Z</time>
      </trkpt>
      <trkpt lat="49.56435" lon="-1.53428">
        <ele>148.2</ele>
        <time>2022-02-28T15:45:47Z</time>
      </trkpt>
      <trkpt lat="49.56431" lon="-1.53422">
        <ele>147.7</ele>
        <time>2022-02-28T15:45:50Z</time>
      </trkpt>
      <trkpt lat="49.56421" lon="-1.53402">
        <ele>146.3</ele>
        <time>2022-02-28T15:46:00Z</time>
      </trkpt>
      <trkpt lat="49.5641" lon="-1.53389">
        <ele>146.1</ele>
        <time>2022-02-28T15:46:09Z</time>
      </trkpt>
      <trkpt lat="49.56406" lon="-1.53384">
        <ele>146.2</ele>
        <time>2022-02-28T15:46:13Z</time>
      </trkpt>
      <trkpt lat="49.56402" lon="-1.53378">
        <ele>146.2</ele>
        <time>2022-02-28T15:46:17Z</time>
      </trkpt>
      <trkpt lat="49.56399" lon="-1.53373">
        <ele>146.2</ele>
        <time>2022-02-28T15:46:20Z</time>
      </trkpt>
      <trkpt lat="49.56395" lon="-1.53367">
        <ele>146.3</ele>
        <time>2022-02-28T15:46:24Z</time>
      </trkpt>
      <trkpt lat="49.56392" lon="-1.53362">
        <ele>146.6</ele>
        <time>2022-02-28T15:46:29Z</time>
      </trkpt>
      <trkpt lat="49.56388" lon="-1.53357">
        <ele>147.2</ele>
        <time>2022-02-28T15:46:33Z</time>
      </trkpt>
      <trkpt lat="49.56385" lon="-1.53351">
        <ele>147.9</ele>
        <time>2022-02-28T15:46:38Z</time>
      </trkpt>
      <trkpt lat="49.56381" lon="-1.53345">
        <ele>148.4</ele>
        <time>2022-02-28T15:46:42Z</time>
      </trkpt>
      <trkpt lat="49.56378" lon="-1.5334">
        <ele>148.9</ele>
        <time>2022-02-28T15:46:44Z</time>
      </trkpt>
      <trkpt lat="49.56373" lon="-1.53335">
        <ele>149.7</ele>
        <time>2022-02-28T15:46:50Z</time>
      </trkpt>
      <trkpt lat="49.56368" lon="-1.53331">
        <ele>149.9</ele>
        <time>2022-02-28T15:46:55Z</time>
      </trkpt>
      <trkpt lat="49.56364" lon="-1.53326">
        <ele>150.2</ele>
        <time>2022-02-28T15:46:59Z</time>
      </trkpt>
      <trkpt lat="49.5636" lon="-1.53321">
        <ele>150.5</ele>
        <time>2022-02-28T15:47:02Z</time>
      </trkpt>
      <trkpt lat="49.56356" lon="-1.53317">
        <ele>150.8</ele>
        <time>2022-02-28T15:47:05Z</time>
      </trkpt>
      <trkpt lat="49.56351" lon="-1.53315">
        <ele>152.3</ele>
        <time>2022-02-28T15:47:23Z</time>
      </trkpt>
      <trkpt lat="49.56346" lon="-1.53316">
        <ele>152.2</ele>
        <time>2022-02-28T15:47:25Z</time>
      </trkpt>
      <trkpt lat="49.56342" lon="-1.53317">
        <ele>152.1</ele>
        <time>2022-02-28T15:47:28Z</time>
      </trkpt>
      <trkpt lat="49.56308" lon="-1.53339">
        <ele>154.2</ele>
        <time>2022-02-28T15:47:50Z</time>
      </trkpt>
      <trkpt lat="49.56302" lon="-1.53343">
        <ele>154.7</ele>
        <time>2022-02-28T15:48:02Z</time>
      </trkpt>
      <trkpt lat="49.56297" lon="-1.53347">
        <ele>154.7</ele>
        <time>2022-02-28T15:48:06Z</time>
      </trkpt>
      <trkpt lat="49.56293" lon="-1.5335">
        <ele>154.7</ele>
        <time>2022-02-28T15:48:10Z</time>
      </trkpt>
      <trkpt lat="49.56288" lon="-1.53355">
        <ele>154.8</ele>
        <time>2022-02-28T15:48:13Z</time>
      </trkpt>
      <trkpt lat="49.56284" lon="-1.53358">
        <ele>154.7</ele>
        <time>2022-02-28T15:48:17Z</time>
      </trkpt>
      <trkpt lat="49.56279" lon="-1.53361">
        <ele>154.5</ele>
        <time>2022-02-28T15:48:21Z</time>
      </trkpt>
      <trkpt lat="49.56273" lon="-1.53364">
        <ele>154.3</ele>
        <time>2022-02-28T15:48:26Z</time>
      </trkpt>
      <trkpt lat="49.56268" lon="-1.53368">
        <ele>154.7</ele>
        <time>2022-02-28T15:48:31Z</time>
      </trkpt>
      <trkpt lat="49.56263" lon="-1.53373">
        <ele>155.4</ele>
        <time>2022-02-28T15:48:35Z</time>
      </trkpt>
      <trkpt lat="49.5626" lon="-1.53377">
        <ele>155.9</ele>
        <time>2022-02-28T15:48:39Z</time>
      </trkpt>
      <trkpt lat="49.56255" lon="-1.53381">
        <ele>156.1</ele>
        <time>2022-02-28T15:48:42Z</time>
      </trkpt>
      <trkpt lat="49.5625" lon="-1.53385">
        <ele>156.1</ele>
        <time>2022-02-28T15:48:46Z</time>
      </trkpt>
      <trkpt lat="49.56246" lon="-1.53389">
        <ele>156.2</ele>
        <time>2022-02-28T15:48:50Z</time>
      </trkpt>
      <trkpt lat="49.56241" lon="-1.53394">
        <ele>156.3</ele>
        <time>2022-02-28T15:48:54Z</time>
      </trkpt>
      <trkpt lat="49.56237" lon="-1.53397">
        <ele>156.3</ele>
        <time>2022-02-28T15:48:57Z</time>
      </trkpt>
      <trkpt lat="49.56232" lon="-1.53401">
        <ele>156.1</ele>
        <time>2022-02-28T15:49:02Z</time>
      </trkpt>
      <trkpt lat="49.56227" lon="-1.53405">
        <ele>156</ele>
        <time>2022-02-28T15:49:06Z</time>
      </trkpt>
      <trkpt lat="49.56222" lon="-1.53408">
        <ele>156</ele>
        <time>2022-02-28T15:49:08Z</time>
      </trkpt>
      <trkpt lat="49.56218" lon="-1.53412">
        <ele>156.3</ele>
        <time>2022-02-28T15:49:12Z</time>
      </trkpt>
      <trkpt lat="49.56213" lon="-1.53416">
        <ele>156.4</ele>
        <time>2022-02-28T15:49:16Z</time>
      </trkpt>
      <trkpt lat="49.56208" lon="-1.53419">
        <ele>156.5</ele>
        <time>2022-02-28T15:49:20Z</time>
      </trkpt>
      <trkpt lat="49.56202" lon="-1.53422">
        <ele>156.3</ele>
        <time>2022-02-28T15:49:23Z</time>
      </trkpt>
      <trkpt lat="49.56197" lon="-1.53425">
        <ele>156.4</ele>
        <time>2022-02-28T15:49:27Z</time>
      </trkpt>
      <trkpt lat="49.56192" lon="-1.5343">
        <ele>156.5</ele>
        <time>2022-02-28T15:49:31Z</time>
      </trkpt>
      <trkpt lat="49.56187" lon="-1.53434">
        <ele>156.9</ele>
        <time>2022-02-28T15:49:34Z</time>
      </trkpt>
      <trkpt lat="49.56183" lon="-1.53438">
        <ele>156.8</ele>
        <time>2022-02-28T15:49:38Z</time>
      </trkpt>
      <trkpt lat="49.56179" lon="-1.53442">
        <ele>156.9</ele>
        <time>2022-02-28T15:49:43Z</time>
      </trkpt>
      <trkpt lat="49.56173" lon="-1.53448">
        <ele>157.4</ele>
        <time>2022-02-28T15:49:47Z</time>
      </trkpt>
      <trkpt lat="49.56169" lon="-1.53451">
        <ele>157.9</ele>
        <time>2022-02-28T15:49:51Z</time>
      </trkpt>
      <trkpt lat="49.56164" lon="-1.53456">
        <ele>158.2</ele>
        <time>2022-02-28T15:49:55Z</time>
      </trkpt>
      <trkpt lat="49.56159" lon="-1.5346">
        <ele>158.3</ele>
        <time>2022-02-28T15:49:58Z</time>
      </trkpt>
      <trkpt lat="49.56155" lon="-1.53463">
        <ele>158.5</ele>
        <time>2022-02-28T15:50:03Z</time>
      </trkpt>
      <trkpt lat="49.56151" lon="-1.53468">
        <ele>158.7</ele>
        <time>2022-02-28T15:50:07Z</time>
      </trkpt>
      <trkpt lat="49.56147" lon="-1.53472">
        <ele>158.8</ele>
        <time>2022-02-28T15:50:12Z</time>
      </trkpt>
      <trkpt lat="49.56142" lon="-1.53478">
        <ele>159.1</ele>
        <time>2022-02-28T15:50:16Z</time>
      </trkpt>
      <trkpt lat="49.56138" lon="-1.53482">
        <ele>159.2</ele>
        <time>2022-02-28T15:50:20Z</time>
      </trkpt>
      <trkpt lat="49.56133" lon="-1.53485">
        <ele>159</ele>
        <time>2022-02-28T15:50:24Z</time>
      </trkpt>
      <trkpt lat="49.56128" lon="-1.53488">
        <ele>158.9</ele>
        <time>2022-02-28T15:50:28Z</time>
      </trkpt>
      <trkpt lat="49.56123" lon="-1.5349">
        <ele>159.1</ele>
        <time>2022-02-28T15:50:32Z</time>
      </trkpt>
      <trkpt lat="49.56118" lon="-1.53492">
        <ele>159.6</ele>
        <time>2022-02-28T15:50:36Z</time>
      </trkpt>
      <trkpt lat="49.56114" lon="-1.53494">
        <ele>159.6</ele>
        <time>2022-02-28T15:50:39Z</time>
      </trkpt>
      <trkpt lat="49.56109" lon="-1.53497">
        <ele>159.5</ele>
        <time>2022-02-28T15:50:42Z</time>
      </trkpt>
      <trkpt lat="49.56105" lon="-1.53502">
        <ele>159.7</ele>
        <time>2022-02-28T15:50:47Z</time>
      </trkpt>
      <trkpt lat="49.561" lon="-1.53502">
        <ele>161.2</ele>
        <time>2022-02-28T15:51:18Z</time>
      </trkpt>
      <trkpt lat="49.56097" lon="-1.53507">
        <ele>161.2</ele>
        <time>2022-02-28T15:51:22Z</time>
      </trkpt>
      <trkpt lat="49.56094" lon="-1.53512">
        <ele>161.2</ele>
        <time>2022-02-28T15:51:25Z</time>
      </trkpt>
      <trkpt lat="49.56089" lon="-1.53517">
        <ele>161</ele>
        <time>2022-02-28T15:51:28Z</time>
      </trkpt>
      <trkpt lat="49.56086" lon="-1.53522">
        <ele>160.8</ele>
        <time>2022-02-28T15:51:31Z</time>
      </trkpt>
      <trkpt lat="49.56082" lon="-1.53526">
        <ele>160.8</ele>
        <time>2022-02-28T15:51:35Z</time>
      </trkpt>
      <trkpt lat="49.56077" lon="-1.53529">
        <ele>161.1</ele>
        <time>2022-02-28T15:51:38Z</time>
      </trkpt>
      <trkpt lat="49.56073" lon="-1.53531">
        <ele>161.5</ele>
        <time>2022-02-28T15:51:41Z</time>
      </trkpt>
      <trkpt lat="49.56067" lon="-1.53534">
        <ele>161.8</ele>
        <time>2022-02-28T15:51:45Z</time>
      </trkpt>
      <trkpt lat="49.56063" lon="-1.53538">
        <ele>161.7</ele>
        <time>2022-02-28T15:51:48Z</time>
      </trkpt>
      <trkpt lat="49.56059" lon="-1.53542">
        <ele>161.7</ele>
        <time>2022-02-28T15:51:52Z</time>
      </trkpt>
      <trkpt lat="49.56053" lon="-1.53546">
        <ele>161.8</ele>
        <time>2022-02-28T15:51:55Z</time>
      </trkpt>
      <trkpt lat="49.56049" lon="-1.53549">
        <ele>161.8</ele>
        <time>2022-02-28T15:51:59Z</time>
      </trkpt>
      <trkpt lat="49.56045" lon="-1.53555">
        <ele>161.9</ele>
        <time>2022-02-28T15:52:03Z</time>
      </trkpt>
      <trkpt lat="49.56041" lon="-1.53559">
        <ele>162</ele>
        <time>2022-02-28T15:52:06Z</time>
      </trkpt>
      <trkpt lat="49.56035" lon="-1.53561">
        <ele>161.9</ele>
        <time>2022-02-28T15:52:11Z</time>
      </trkpt>
      <trkpt lat="49.56029" lon="-1.53565">
        <ele>162.2</ele>
        <time>2022-02-28T15:52:17Z</time>
      </trkpt>
      <trkpt lat="49.56023" lon="-1.5357">
        <ele>162.2</ele>
        <time>2022-02-28T15:52:21Z</time>
      </trkpt>
      <trkpt lat="49.56018" lon="-1.53574">
        <ele>161.9</ele>
        <time>2022-02-28T15:52:25Z</time>
      </trkpt>
      <trkpt lat="49.56014" lon="-1.53577">
        <ele>161.6</ele>
        <time>2022-02-28T15:52:28Z</time>
      </trkpt>
      <trkpt lat="49.56008" lon="-1.53584">
        <ele>161.5</ele>
        <time>2022-02-28T15:52:34Z</time>
      </trkpt>
      <trkpt lat="49.56004" lon="-1.53587">
        <ele>161.5</ele>
        <time>2022-02-28T15:52:37Z</time>
      </trkpt>
      <trkpt lat="49.55999" lon="-1.53592">
        <ele>161.6</ele>
        <time>2022-02-28T15:52:40Z</time>
      </trkpt>
      <trkpt lat="49.55985" lon="-1.53604">
        <ele>162.1</ele>
        <time>2022-02-28T15:52:51Z</time>
      </trkpt>
      <trkpt lat="49.55979" lon="-1.53609">
        <ele>162.1</ele>
        <time>2022-02-28T15:52:55Z</time>
      </trkpt>
      <trkpt lat="49.55974" lon="-1.53613">
        <ele>162.1</ele>
        <time>2022-02-28T15:52:58Z</time>
      </trkpt>
      <trkpt lat="49.5597" lon="-1.53617">
        <ele>162.2</ele>
        <time>2022-02-28T15:53:01Z</time>
      </trkpt>
      <trkpt lat="49.55964" lon="-1.5362">
        <ele>162.2</ele>
        <time>2022-02-28T15:53:06Z</time>
      </trkpt>
      <trkpt lat="49.55958" lon="-1.53621">
        <ele>162.2</ele>
        <time>2022-02-28T15:53:10Z</time>
      </trkpt>
      <trkpt lat="49.55954" lon="-1.53625">
        <ele>162.5</ele>
        <time>2022-02-28T15:53:15Z</time>
      </trkpt>
      <trkpt lat="49.5595" lon="-1.53629">
        <ele>162.6</ele>
        <time>2022-02-28T15:53:17Z</time>
      </trkpt>
      <trkpt lat="49.55945" lon="-1.53636">
        <ele>162.8</ele>
        <time>2022-02-28T15:53:22Z</time>
      </trkpt>
      <trkpt lat="49.55941" lon="-1.53639">
        <ele>162.7</ele>
        <time>2022-02-28T15:53:26Z</time>
      </trkpt>
      <trkpt lat="49.55935" lon="-1.53644">
        <ele>162.5</ele>
        <time>2022-02-28T15:53:29Z</time>
      </trkpt>
      <trkpt lat="49.55923" lon="-1.53658">
        <ele>162.4</ele>
        <time>2022-02-28T15:53:39Z</time>
      </trkpt>
      <trkpt lat="49.55918" lon="-1.53662">
        <ele>162.9</ele>
        <time>2022-02-28T15:53:43Z</time>
      </trkpt>
      <trkpt lat="49.55914" lon="-1.53666">
        <ele>163.3</ele>
        <time>2022-02-28T15:53:46Z</time>
      </trkpt>
      <trkpt lat="49.55896" lon="-1.53676">
        <ele>163.5</ele>
        <time>2022-02-28T15:53:58Z</time>
      </trkpt>
      <trkpt lat="49.55892" lon="-1.5368">
        <ele>163.6</ele>
        <time>2022-02-28T15:54:01Z</time>
      </trkpt>
      <trkpt lat="49.55887" lon="-1.53683">
        <ele>163.6</ele>
        <time>2022-02-28T15:54:04Z</time>
      </trkpt>
      <trkpt lat="49.55882" lon="-1.53687">
        <ele>163.7</ele>
        <time>2022-02-28T15:54:08Z</time>
      </trkpt>
      <trkpt lat="49.55877" lon="-1.53691">
        <ele>163.9</ele>
        <time>2022-02-28T15:54:11Z</time>
      </trkpt>
      <trkpt lat="49.55873" lon="-1.53696">
        <ele>163.9</ele>
        <time>2022-02-28T15:54:15Z</time>
      </trkpt>
      <trkpt lat="49.55868" lon="-1.53701">
        <ele>163.8</ele>
        <time>2022-02-28T15:54:19Z</time>
      </trkpt>
      <trkpt lat="49.55864" lon="-1.53705">
        <ele>163.7</ele>
        <time>2022-02-28T15:54:22Z</time>
      </trkpt>
      <trkpt lat="49.55855" lon="-1.53711">
        <ele>163.8</ele>
        <time>2022-02-28T15:54:30Z</time>
      </trkpt>
      <trkpt lat="49.55849" lon="-1.53714">
        <ele>163.9</ele>
        <time>2022-02-28T15:54:33Z</time>
      </trkpt>
      <trkpt lat="49.55845" lon="-1.53718">
        <ele>163.9</ele>
        <time>2022-02-28T15:54:36Z</time>
      </trkpt>
      <trkpt lat="49.5584" lon="-1.5372">
        <ele>163.9</ele>
        <time>2022-02-28T15:54:40Z</time>
      </trkpt>
      <trkpt lat="49.55836" lon="-1.53725">
        <ele>163.9</ele>
        <time>2022-02-28T15:54:43Z</time>
      </trkpt>
      <trkpt lat="49.55832" lon="-1.53729">
        <ele>164.1</ele>
        <time>2022-02-28T15:54:47Z</time>
      </trkpt>
      <trkpt lat="49.55827" lon="-1.53733">
        <ele>164.2</ele>
        <time>2022-02-28T15:54:50Z</time>
      </trkpt>
      <trkpt lat="49.55823" lon="-1.53738">
        <ele>164.4</ele>
        <time>2022-02-28T15:54:54Z</time>
      </trkpt>
      <trkpt lat="49.55818" lon="-1.53743">
        <ele>164.6</ele>
        <time>2022-02-28T15:54:57Z</time>
      </trkpt>
      <trkpt lat="49.55813" lon="-1.53747">
        <ele>165</ele>
        <time>2022-02-28T15:55:00Z</time>
      </trkpt>
      <trkpt lat="49.55809" lon="-1.5375">
        <ele>165.1</ele>
        <time>2022-02-28T15:55:04Z</time>
      </trkpt>
      <trkpt lat="49.55804" lon="-1.53753">
        <ele>165.2</ele>
        <time>2022-02-28T15:55:07Z</time>
      </trkpt>
      <trkpt lat="49.55798" lon="-1.53758">
        <ele>165.7</ele>
        <time>2022-02-28T15:55:10Z</time>
      </trkpt>
      <trkpt lat="49.55794" lon="-1.53762">
        <ele>166</ele>
        <time>2022-02-28T15:55:14Z</time>
      </trkpt>
      <trkpt lat="49.5579" lon="-1.53765">
        <ele>166.2</ele>
        <time>2022-02-28T15:55:17Z</time>
      </trkpt>
      <trkpt lat="49.55785" lon="-1.53768">
        <ele>166.2</ele>
        <time>2022-02-28T15:55:21Z</time>
      </trkpt>
      <trkpt lat="49.5578" lon="-1.53774">
        <ele>166.1</ele>
        <time>2022-02-28T15:55:26Z</time>
      </trkpt>
      <trkpt lat="49.55776" lon="-1.53778">
        <ele>166.1</ele>
        <time>2022-02-28T15:55:29Z</time>
      </trkpt>
      <trkpt lat="49.55772" lon="-1.53782">
        <ele>166.1</ele>
        <time>2022-02-28T15:55:32Z</time>
      </trkpt>
      <trkpt lat="49.55766" lon="-1.53784">
        <ele>166.1</ele>
        <time>2022-02-28T15:55:36Z</time>
      </trkpt>
      <trkpt lat="49.55761" lon="-1.53787">
        <ele>166.4</ele>
        <time>2022-02-28T15:55:39Z</time>
      </trkpt>
      <trkpt lat="49.55756" lon="-1.53791">
        <ele>166.8</ele>
        <time>2022-02-28T15:55:42Z</time>
      </trkpt>
      <trkpt lat="49.55751" lon="-1.53794">
        <ele>167.1</ele>
        <time>2022-02-28T15:55:46Z</time>
      </trkpt>
      <trkpt lat="49.55747" lon="-1.53797">
        <ele>167</ele>
        <time>2022-02-28T15:55:49Z</time>
      </trkpt>
      <trkpt lat="49.55743" lon="-1.53801">
        <ele>166.9</ele>
        <time>2022-02-28T15:55:52Z</time>
      </trkpt>
      <trkpt lat="49.55739" lon="-1.53806">
        <ele>166.8</ele>
        <time>2022-02-28T15:55:56Z</time>
      </trkpt>
      <trkpt lat="49.55734" lon="-1.5381">
        <ele>166.8</ele>
        <time>2022-02-28T15:56:00Z</time>
      </trkpt>
      <trkpt lat="49.55729" lon="-1.53815">
        <ele>166.6</ele>
        <time>2022-02-28T15:56:04Z</time>
      </trkpt>
      <trkpt lat="49.55725" lon="-1.53819">
        <ele>166.5</ele>
        <time>2022-02-28T15:56:08Z</time>
      </trkpt>
      <trkpt lat="49.55721" lon="-1.53823">
        <ele>166.6</ele>
        <time>2022-02-28T15:56:11Z</time>
      </trkpt>
      <trkpt lat="49.55715" lon="-1.53826">
        <ele>166.8</ele>
        <time>2022-02-28T15:56:15Z</time>
      </trkpt>
      <trkpt lat="49.55718" lon="-1.53832">
        <ele>167.6</ele>
        <time>2022-02-28T15:56:22Z</time>
      </trkpt>
      <trkpt lat="49.55719" lon="-1.5384">
        <ele>167.5</ele>
        <time>2022-02-28T15:56:24Z</time>
      </trkpt>
      <trkpt lat="49.55723" lon="-1.53846">
        <ele>167.4</ele>
        <time>2022-02-28T15:56:26Z</time>
      </trkpt>
      <trkpt lat="49.55726" lon="-1.53854">
        <ele>166.6</ele>
        <time>2022-02-28T15:56:29Z</time>
      </trkpt>
      <trkpt lat="49.55729" lon="-1.53859">
        <ele>166.6</ele>
        <time>2022-02-28T15:56:32Z</time>
      </trkpt>
      <trkpt lat="49.55733" lon="-1.53867">
        <ele>166.7</ele>
        <time>2022-02-28T15:56:36Z</time>
      </trkpt>
      <trkpt lat="49.55736" lon="-1.53874">
        <ele>166.7</ele>
        <time>2022-02-28T15:56:40Z</time>
      </trkpt>
      <trkpt lat="49.5574" lon="-1.5388">
        <ele>166.7</ele>
        <time>2022-02-28T15:56:44Z</time>
      </trkpt>
      <trkpt lat="49.55743" lon="-1.53886">
        <ele>166.8</ele>
        <time>2022-02-28T15:56:48Z</time>
      </trkpt>
      <trkpt lat="49.55746" lon="-1.53892">
        <ele>166.8</ele>
        <time>2022-02-28T15:56:51Z</time>
      </trkpt>
      <trkpt lat="49.55751" lon="-1.539">
        <ele>166.8</ele>
        <time>2022-02-28T15:56:56Z</time>
      </trkpt>
      <trkpt lat="49.55755" lon="-1.53906">
        <ele>166.8</ele>
        <time>2022-02-28T15:57:00Z</time>
      </trkpt>
      <trkpt lat="49.55758" lon="-1.53911">
        <ele>166.8</ele>
        <time>2022-02-28T15:57:04Z</time>
      </trkpt>
      <trkpt lat="49.5576" lon="-1.53918">
        <ele>166.8</ele>
        <time>2022-02-28T15:57:07Z</time>
      </trkpt>
      <trkpt lat="49.55764" lon="-1.53927">
        <ele>166.8</ele>
        <time>2022-02-28T15:57:12Z</time>
      </trkpt>
      <trkpt lat="49.55766" lon="-1.53933">
        <ele>166.6</ele>
        <time>2022-02-28T15:57:17Z</time>
      </trkpt>
      <trkpt lat="49.55766" lon="-1.53942">
        <ele>166.1</ele>
        <time>2022-02-28T15:57:22Z</time>
      </trkpt>
      <trkpt lat="49.55768" lon="-1.5395">
        <ele>166.1</ele>
        <time>2022-02-28T15:57:28Z</time>
      </trkpt>
      <trkpt lat="49.55771" lon="-1.53955">
        <ele>166.4</ele>
        <time>2022-02-28T15:57:31Z</time>
      </trkpt>
      <trkpt lat="49.55777" lon="-1.5396">
        <ele>166.6</ele>
        <time>2022-02-28T15:57:35Z</time>
      </trkpt>
      <trkpt lat="49.55781" lon="-1.53966">
        <ele>166.6</ele>
        <time>2022-02-28T15:57:38Z</time>
      </trkpt>
      <trkpt lat="49.55786" lon="-1.53973">
        <ele>166.5</ele>
        <time>2022-02-28T15:57:41Z</time>
      </trkpt>
      <trkpt lat="49.55792" lon="-1.53979">
        <ele>166.5</ele>
        <time>2022-02-28T15:57:45Z</time>
      </trkpt>
      <trkpt lat="49.55815" lon="-1.54009">
        <ele>166.2</ele>
        <time>2022-02-28T15:58:02Z</time>
      </trkpt>
      <trkpt lat="49.55823" lon="-1.54021">
        <ele>165.9</ele>
        <time>2022-02-28T15:58:10Z</time>
      </trkpt>
      <trkpt lat="49.55826" lon="-1.54028">
        <ele>165.7</ele>
        <time>2022-02-28T15:58:14Z</time>
      </trkpt>
      <trkpt lat="49.5583" lon="-1.54034">
        <ele>165.7</ele>
        <time>2022-02-28T15:58:18Z</time>
      </trkpt>
      <trkpt lat="49.55834" lon="-1.54039">
        <ele>165.5</ele>
        <time>2022-02-28T15:58:21Z</time>
      </trkpt>
      <trkpt lat="49.55837" lon="-1.54048">
        <ele>165.2</ele>
        <time>2022-02-28T15:58:26Z</time>
      </trkpt>
      <trkpt lat="49.5584" lon="-1.54054">
        <ele>165.1</ele>
        <time>2022-02-28T15:58:30Z</time>
      </trkpt>
      <trkpt lat="49.55842" lon="-1.5406">
        <ele>165.3</ele>
        <time>2022-02-28T15:58:33Z</time>
      </trkpt>
      <trkpt lat="49.55846" lon="-1.54068">
        <ele>165.5</ele>
        <time>2022-02-28T15:58:37Z</time>
      </trkpt>
      <trkpt lat="49.55849" lon="-1.54073">
        <ele>165.4</ele>
        <time>2022-02-28T15:58:41Z</time>
      </trkpt>
      <trkpt lat="49.55853" lon="-1.54079">
        <ele>165.1</ele>
        <time>2022-02-28T15:58:44Z</time>
      </trkpt>
      <trkpt lat="49.55858" lon="-1.54088">
        <ele>164.8</ele>
        <time>2022-02-28T15:58:50Z</time>
      </trkpt>
      <trkpt lat="49.55861" lon="-1.54094">
        <ele>164.8</ele>
        <time>2022-02-28T15:58:53Z</time>
      </trkpt>
      <trkpt lat="49.55865" lon="-1.54101">
        <ele>164.8</ele>
        <time>2022-02-28T15:58:57Z</time>
      </trkpt>
      <trkpt lat="49.55868" lon="-1.54107">
        <ele>164.9</ele>
        <time>2022-02-28T15:59:00Z</time>
      </trkpt>
      <trkpt lat="49.5587" lon="-1.54113">
        <ele>165.1</ele>
        <time>2022-02-28T15:59:03Z</time>
      </trkpt>
      <trkpt lat="49.55871" lon="-1.5412">
        <ele>165.3</ele>
        <time>2022-02-28T15:59:06Z</time>
      </trkpt>
      <trkpt lat="49.55874" lon="-1.54126">
        <ele>165.3</ele>
        <time>2022-02-28T15:59:10Z</time>
      </trkpt>
      <trkpt lat="49.55878" lon="-1.54131">
        <ele>165.1</ele>
        <time>2022-02-28T15:59:13Z</time>
      </trkpt>
      <trkpt lat="49.55881" lon="-1.54137">
        <ele>165</ele>
        <time>2022-02-28T15:59:17Z</time>
      </trkpt>
      <trkpt lat="49.55884" lon="-1.54145">
        <ele>164.8</ele>
        <time>2022-02-28T15:59:21Z</time>
      </trkpt>
      <trkpt lat="49.55887" lon="-1.54151">
        <ele>164.6</ele>
        <time>2022-02-28T15:59:25Z</time>
      </trkpt>
      <trkpt lat="49.5589" lon="-1.54157">
        <ele>164.6</ele>
        <time>2022-02-28T15:59:28Z</time>
      </trkpt>
      <trkpt lat="49.55894" lon="-1.54163">
        <ele>164.5</ele>
        <time>2022-02-28T15:59:32Z</time>
      </trkpt>
      <trkpt lat="49.55898" lon="-1.54168">
        <ele>164.5</ele>
        <time>2022-02-28T15:59:36Z</time>
      </trkpt>
      <trkpt lat="49.55901" lon="-1.54174">
        <ele>164.5</ele>
        <time>2022-02-28T15:59:39Z</time>
      </trkpt>
      <trkpt lat="49.55904" lon="-1.54182">
        <ele>164.4</ele>
        <time>2022-02-28T15:59:43Z</time>
      </trkpt>
      <trkpt lat="49.55906" lon="-1.54188">
        <ele>164.3</ele>
        <time>2022-02-28T15:59:46Z</time>
      </trkpt>
      <trkpt lat="49.55917" lon="-1.5421">
        <ele>163.4</ele>
        <time>2022-02-28T15:59:58Z</time>
      </trkpt>
      <trkpt lat="49.55921" lon="-1.54215">
        <ele>163.3</ele>
        <time>2022-02-28T16:00:02Z</time>
      </trkpt>
      <trkpt lat="49.55924" lon="-1.54222">
        <ele>163.5</ele>
        <time>2022-02-28T16:00:06Z</time>
      </trkpt>
      <trkpt lat="49.55927" lon="-1.54227">
        <ele>163.9</ele>
        <time>2022-02-28T16:00:10Z</time>
      </trkpt>
      <trkpt lat="49.55929" lon="-1.54236">
        <ele>164.1</ele>
        <time>2022-02-28T16:00:15Z</time>
      </trkpt>
      <trkpt lat="49.55931" lon="-1.54243">
        <ele>164.1</ele>
        <time>2022-02-28T16:00:18Z</time>
      </trkpt>
      <trkpt lat="49.55935" lon="-1.54249">
        <ele>163.9</ele>
        <time>2022-02-28T16:00:22Z</time>
      </trkpt>
      <trkpt lat="49.55937" lon="-1.54257">
        <ele>163.6</ele>
        <time>2022-02-28T16:00:26Z</time>
      </trkpt>
      <trkpt lat="49.55942" lon="-1.54263">
        <ele>163.4</ele>
        <time>2022-02-28T16:00:32Z</time>
      </trkpt>
      <trkpt lat="49.55944" lon="-1.54271">
        <ele>163.4</ele>
        <time>2022-02-28T16:00:36Z</time>
      </trkpt>
      <trkpt lat="49.55948" lon="-1.54277">
        <ele>163.4</ele>
        <time>2022-02-28T16:00:39Z</time>
      </trkpt>
      <trkpt lat="49.55952" lon="-1.54283">
        <ele>163.4</ele>
        <time>2022-02-28T16:00:43Z</time>
      </trkpt>
      <trkpt lat="49.55956" lon="-1.54288">
        <ele>163.3</ele>
        <time>2022-02-28T16:00:47Z</time>
      </trkpt>
      <trkpt lat="49.5596" lon="-1.54293">
        <ele>163.6</ele>
        <time>2022-02-28T16:00:58Z</time>
      </trkpt>
      <trkpt lat="49.55964" lon="-1.54298">
        <ele>163.7</ele>
        <time>2022-02-28T16:01:02Z</time>
      </trkpt>
      <trkpt lat="49.55966" lon="-1.54305">
        <ele>163.8</ele>
        <time>2022-02-28T16:01:07Z</time>
      </trkpt>
      <trkpt lat="49.55967" lon="-1.54313">
        <ele>163.8</ele>
        <time>2022-02-28T16:01:12Z</time>
      </trkpt>
      <trkpt lat="49.55968" lon="-1.54321">
        <ele>163.7</ele>
        <time>2022-02-28T16:01:15Z</time>
      </trkpt>
      <trkpt lat="49.55969" lon="-1.54329">
        <ele>163.7</ele>
        <time>2022-02-28T16:01:18Z</time>
      </trkpt>
      <trkpt lat="49.55973" lon="-1.54335">
        <ele>163.7</ele>
        <time>2022-02-28T16:01:22Z</time>
      </trkpt>
      <trkpt lat="49.55978" lon="-1.54338">
        <ele>163.6</ele>
        <time>2022-02-28T16:01:27Z</time>
      </trkpt>
      <trkpt lat="49.55981" lon="-1.54343">
        <ele>163.6</ele>
        <time>2022-02-28T16:01:34Z</time>
      </trkpt>
      <trkpt lat="49.55983" lon="-1.5435">
        <ele>163.6</ele>
        <time>2022-02-28T16:01:38Z</time>
      </trkpt>
      <trkpt lat="49.55985" lon="-1.54356">
        <ele>163.3</ele>
        <time>2022-02-28T16:01:41Z</time>
      </trkpt>
      <trkpt lat="49.55987" lon="-1.54363">
        <ele>162.9</ele>
        <time>2022-02-28T16:01:45Z</time>
      </trkpt>
      <trkpt lat="49.55989" lon="-1.5437">
        <ele>162.6</ele>
        <time>2022-02-28T16:01:49Z</time>
      </trkpt>
      <trkpt lat="49.55993" lon="-1.54376">
        <ele>162.4</ele>
        <time>2022-02-28T16:01:54Z</time>
      </trkpt>
      <trkpt lat="49.55996" lon="-1.54382">
        <ele>162.2</ele>
        <time>2022-02-28T16:01:57Z</time>
      </trkpt>
      <trkpt lat="49.56001" lon="-1.5439">
        <ele>161.9</ele>
        <time>2022-02-28T16:02:01Z</time>
      </trkpt>
      <trkpt lat="49.56004" lon="-1.54396">
        <ele>161.8</ele>
        <time>2022-02-28T16:02:04Z</time>
      </trkpt>
      <trkpt lat="49.56007" lon="-1.54402">
        <ele>161.8</ele>
        <time>2022-02-28T16:02:10Z</time>
      </trkpt>
      <trkpt lat="49.56009" lon="-1.54409">
        <ele>161.9</ele>
        <time>2022-02-28T16:02:16Z</time>
      </trkpt>
      <trkpt lat="49.56012" lon="-1.54417">
        <ele>161.8</ele>
        <time>2022-02-28T16:02:20Z</time>
      </trkpt>
      <trkpt lat="49.56023" lon="-1.54442">
        <ele>159.8</ele>
        <time>2022-02-28T16:02:32Z</time>
      </trkpt>
      <trkpt lat="49.56026" lon="-1.54451">
        <ele>158.8</ele>
        <time>2022-02-28T16:02:35Z</time>
      </trkpt>
      <trkpt lat="49.56029" lon="-1.54456">
        <ele>158.3</ele>
        <time>2022-02-28T16:02:38Z</time>
      </trkpt>
      <trkpt lat="49.56033" lon="-1.54462">
        <ele>158.1</ele>
        <time>2022-02-28T16:02:42Z</time>
      </trkpt>
      <trkpt lat="49.56038" lon="-1.54461">
        <ele>157.9</ele>
        <time>2022-02-28T16:02:46Z</time>
      </trkpt>
      <trkpt lat="49.56042" lon="-1.54454">
        <ele>157.4</ele>
        <time>2022-02-28T16:02:50Z</time>
      </trkpt>
      <trkpt lat="49.56046" lon="-1.54449">
        <ele>157.1</ele>
        <time>2022-02-28T16:02:53Z</time>
      </trkpt>
      <trkpt lat="49.56052" lon="-1.54446">
        <ele>156.9</ele>
        <time>2022-02-28T16:02:57Z</time>
      </trkpt>
      <trkpt lat="49.56056" lon="-1.54444">
        <ele>157.2</ele>
        <time>2022-02-28T16:03:03Z</time>
      </trkpt>
      <trkpt lat="49.56063" lon="-1.54441">
        <ele>157.5</ele>
        <time>2022-02-28T16:03:08Z</time>
      </trkpt>
      <trkpt lat="49.56067" lon="-1.54437">
        <ele>157.6</ele>
        <time>2022-02-28T16:03:13Z</time>
      </trkpt>
      <trkpt lat="49.56072" lon="-1.54439">
        <ele>157.6</ele>
        <time>2022-02-28T16:03:18Z</time>
      </trkpt>
      <trkpt lat="49.56076" lon="-1.54446">
        <ele>157.4</ele>
        <time>2022-02-28T16:03:21Z</time>
      </trkpt>
      <trkpt lat="49.56078" lon="-1.54454">
        <ele>157.2</ele>
        <time>2022-02-28T16:03:25Z</time>
      </trkpt>
      <trkpt lat="49.56082" lon="-1.54473">
        <ele>155.9</ele>
        <time>2022-02-28T16:03:33Z</time>
      </trkpt>
      <trkpt lat="49.56084" lon="-1.54482">
        <ele>155.5</ele>
        <time>2022-02-28T16:03:40Z</time>
      </trkpt>
      <trkpt lat="49.56088" lon="-1.54485">
        <ele>155</ele>
        <time>2022-02-28T16:03:48Z</time>
      </trkpt>
      <trkpt lat="49.56092" lon="-1.54489">
        <ele>154.5</ele>
        <time>2022-02-28T16:03:58Z</time>
      </trkpt>
      <trkpt lat="49.56093" lon="-1.54498">
        <ele>153.9</ele>
        <time>2022-02-28T16:04:07Z</time>
      </trkpt>
      <trkpt lat="49.56094" lon="-1.54508">
        <ele>153.5</ele>
        <time>2022-02-28T16:04:10Z</time>
      </trkpt>
      <trkpt lat="49.56093" lon="-1.54517">
        <ele>152.8</ele>
        <time>2022-02-28T16:04:14Z</time>
      </trkpt>
      <trkpt lat="49.56091" lon="-1.54524">
        <ele>152.2</ele>
        <time>2022-02-28T16:04:18Z</time>
      </trkpt>
      <trkpt lat="49.56087" lon="-1.5453">
        <ele>151.4</ele>
        <time>2022-02-28T16:04:22Z</time>
      </trkpt>
      <trkpt lat="49.56083" lon="-1.54532">
        <ele>150.6</ele>
        <time>2022-02-28T16:04:29Z</time>
      </trkpt>
      <trkpt lat="49.56079" lon="-1.54537">
        <ele>150</ele>
        <time>2022-02-28T16:04:36Z</time>
      </trkpt>
      <trkpt lat="49.56075" lon="-1.54543">
        <ele>149.7</ele>
        <time>2022-02-28T16:04:39Z</time>
      </trkpt>
      <trkpt lat="49.56072" lon="-1.54549">
        <ele>149.1</ele>
        <time>2022-02-28T16:04:43Z</time>
      </trkpt>
      <trkpt lat="49.56068" lon="-1.54555">
        <ele>148.6</ele>
        <time>2022-02-28T16:04:47Z</time>
      </trkpt>
      <trkpt lat="49.56065" lon="-1.5456">
        <ele>147.9</ele>
        <time>2022-02-28T16:04:51Z</time>
      </trkpt>
      <trkpt lat="49.56062" lon="-1.54565">
        <ele>147.5</ele>
        <time>2022-02-28T16:04:55Z</time>
      </trkpt>
      <trkpt lat="49.56058" lon="-1.54571">
        <ele>147.2</ele>
        <time>2022-02-28T16:04:58Z</time>
      </trkpt>
      <trkpt lat="49.5605" lon="-1.54579">
        <ele>146.9</ele>
        <time>2022-02-28T16:05:03Z</time>
      </trkpt>
      <trkpt lat="49.56045" lon="-1.54585">
        <ele>146.5</ele>
        <time>2022-02-28T16:05:08Z</time>
      </trkpt>
      <trkpt lat="49.56041" lon="-1.54589">
        <ele>146.3</ele>
        <time>2022-02-28T16:05:13Z</time>
      </trkpt>
      <trkpt lat="49.56038" lon="-1.54593">
        <ele>146.4</ele>
        <time>2022-02-28T16:05:18Z</time>
      </trkpt>
      <trkpt lat="49.56033" lon="-1.54597">
        <ele>146.2</ele>
        <time>2022-02-28T16:05:22Z</time>
      </trkpt>
      <trkpt lat="49.56029" lon="-1.54601">
        <ele>145.8</ele>
        <time>2022-02-28T16:05:26Z</time>
      </trkpt>
      <trkpt lat="49.56025" lon="-1.54605">
        <ele>145.6</ele>
        <time>2022-02-28T16:05:29Z</time>
      </trkpt>
      <trkpt lat="49.56021" lon="-1.5461">
        <ele>145.4</ele>
        <time>2022-02-28T16:05:33Z</time>
      </trkpt>
      <trkpt lat="49.56017" lon="-1.54614">
        <ele>145</ele>
        <time>2022-02-28T16:05:38Z</time>
      </trkpt>
      <trkpt lat="49.56015" lon="-1.5462">
        <ele>144.8</ele>
        <time>2022-02-28T16:05:41Z</time>
      </trkpt>
      <trkpt lat="49.5601" lon="-1.54627">
        <ele>144.6</ele>
        <time>2022-02-28T16:05:44Z</time>
      </trkpt>
      <trkpt lat="49.56006" lon="-1.54633">
        <ele>144.3</ele>
        <time>2022-02-28T16:05:48Z</time>
      </trkpt>
      <trkpt lat="49.56002" lon="-1.54637">
        <ele>144.1</ele>
        <time>2022-02-28T16:05:53Z</time>
      </trkpt>
      <trkpt lat="49.55998" lon="-1.54641">
        <ele>143.8</ele>
        <time>2022-02-28T16:05:57Z</time>
      </trkpt>
      <trkpt lat="49.55993" lon="-1.54647">
        <ele>143.8</ele>
        <time>2022-02-28T16:06:02Z</time>
      </trkpt>
      <trkpt lat="49.5599" lon="-1.54654">
        <ele>143.8</ele>
        <time>2022-02-28T16:06:06Z</time>
      </trkpt>
      <trkpt lat="49.55987" lon="-1.5466">
        <ele>143.8</ele>
        <time>2022-02-28T16:06:09Z</time>
      </trkpt>
      <trkpt lat="49.55984" lon="-1.54666">
        <ele>143.6</ele>
        <time>2022-02-28T16:06:13Z</time>
      </trkpt>
      <trkpt lat="49.55979" lon="-1.54666">
        <ele>143.1</ele>
        <time>2022-02-28T16:06:30Z</time>
      </trkpt>
      <trkpt lat="49.55975" lon="-1.54671">
        <ele>142.4</ele>
        <time>2022-02-28T16:06:57Z</time>
      </trkpt>
      <trkpt lat="49.55973" lon="-1.54677">
        <ele>142.1</ele>
        <time>2022-02-28T16:07:08Z</time>
      </trkpt>
      <trkpt lat="49.55971" lon="-1.54683">
        <ele>141.3</ele>
        <time>2022-02-28T16:07:38Z</time>
      </trkpt>
      <trkpt lat="49.55969" lon="-1.54689">
        <ele>141.2</ele>
        <time>2022-02-28T16:08:04Z</time>
      </trkpt>
      <trkpt lat="49.55969" lon="-1.54697">
        <ele>142</ele>
        <time>2022-02-28T16:09:06Z</time>
      </trkpt>
      <trkpt lat="49.55975" lon="-1.54701">
        <ele>143</ele>
        <time>2022-02-28T16:09:12Z</time>
      </trkpt>
      <trkpt lat="49.55975" lon="-1.54709">
        <ele>141.4</ele>
        <time>2022-02-28T16:09:20Z</time>
      </trkpt>
      <trkpt lat="49.55971" lon="-1.54703">
        <ele>141.8</ele>
        <time>2022-02-28T16:09:27Z</time>
      </trkpt>
      <trkpt lat="49.55966" lon="-1.54701">
        <ele>141.6</ele>
        <time>2022-02-28T16:09:39Z</time>
      </trkpt>
      <trkpt lat="49.55962" lon="-1.54701">
        <ele>141.3</ele>
        <time>2022-02-28T16:09:45Z</time>
      </trkpt>
      <trkpt lat="49.55957" lon="-1.54705">
        <ele>141.2</ele>
        <time>2022-02-28T16:09:51Z</time>
      </trkpt>
      <trkpt lat="49.55952" lon="-1.54708">
        <ele>141</ele>
        <time>2022-02-28T16:09:56Z</time>
      </trkpt>
      <trkpt lat="49.55947" lon="-1.54713">
        <ele>140.7</ele>
        <time>2022-02-28T16:09:59Z</time>
      </trkpt>
      <trkpt lat="49.55943" lon="-1.54719">
        <ele>140.5</ele>
        <time>2022-02-28T16:10:01Z</time>
      </trkpt>
      <trkpt lat="49.55939" lon="-1.54724">
        <ele>140.3</ele>
        <time>2022-02-28T16:10:05Z</time>
      </trkpt>
      <trkpt lat="49.55935" lon="-1.54728">
        <ele>140</ele>
        <time>2022-02-28T16:10:08Z</time>
      </trkpt>
      <trkpt lat="49.5593" lon="-1.54731">
        <ele>139.7</ele>
        <time>2022-02-28T16:10:11Z</time>
      </trkpt>
      <trkpt lat="49.55926" lon="-1.54735">
        <ele>139.3</ele>
        <time>2022-02-28T16:10:16Z</time>
      </trkpt>
      <trkpt lat="49.55922" lon="-1.5474">
        <ele>139</ele>
        <time>2022-02-28T16:10:20Z</time>
      </trkpt>
      <trkpt lat="49.5592" lon="-1.54747">
        <ele>138.8</ele>
        <time>2022-02-28T16:10:26Z</time>
      </trkpt>
      <trkpt lat="49.55917" lon="-1.54754">
        <ele>138.9</ele>
        <time>2022-02-28T16:10:31Z</time>
      </trkpt>
      <trkpt lat="49.55912" lon="-1.54757">
        <ele>139</ele>
        <time>2022-02-28T16:10:35Z</time>
      </trkpt>
      <trkpt lat="49.55917" lon="-1.54758">
        <ele>139</ele>
        <time>2022-02-28T16:10:59Z</time>
      </trkpt>
      <trkpt lat="49.55913" lon="-1.54761">
        <ele>138.3</ele>
        <time>2022-02-28T16:11:35Z</time>
      </trkpt>
      <trkpt lat="49.55909" lon="-1.54767">
        <ele>138.2</ele>
        <time>2022-02-28T16:11:42Z</time>
      </trkpt>
      <trkpt lat="49.55905" lon="-1.54773">
        <ele>138</ele>
        <time>2022-02-28T16:11:44Z</time>
      </trkpt>
      <trkpt lat="49.559" lon="-1.54779">
        <ele>137.7</ele>
        <time>2022-02-28T16:11:47Z</time>
      </trkpt>
      <trkpt lat="49.55895" lon="-1.54782">
        <ele>137.3</ele>
        <time>2022-02-28T16:11:51Z</time>
      </trkpt>
      <trkpt lat="49.5589" lon="-1.54782">
        <ele>137</ele>
        <time>2022-02-28T16:11:55Z</time>
      </trkpt>
      <trkpt lat="49.55888" lon="-1.5479">
        <ele>137.6</ele>
        <time>2022-02-28T16:12:13Z</time>
      </trkpt>
      <trkpt lat="49.55889" lon="-1.54797">
        <ele>137.3</ele>
        <time>2022-02-28T16:12:20Z</time>
      </trkpt>
      <trkpt lat="49.55886" lon="-1.54802">
        <ele>137.1</ele>
        <time>2022-02-28T16:12:31Z</time>
      </trkpt>
      <trkpt lat="49.55882" lon="-1.54807">
        <ele>136.8</ele>
        <time>2022-02-28T16:12:42Z</time>
      </trkpt>
      <trkpt lat="49.55877" lon="-1.54811">
        <ele>136.6</ele>
        <time>2022-02-28T16:12:46Z</time>
      </trkpt>
      <trkpt lat="49.55873" lon="-1.54814">
        <ele>136.5</ele>
        <time>2022-02-28T16:12:49Z</time>
      </trkpt>
      <trkpt lat="49.55868" lon="-1.54818">
        <ele>136.3</ele>
        <time>2022-02-28T16:13:02Z</time>
      </trkpt>
      <trkpt lat="49.55864" lon="-1.54823">
        <ele>136.2</ele>
        <time>2022-02-28T16:13:06Z</time>
      </trkpt>
      <trkpt lat="49.5586" lon="-1.54828">
        <ele>136.2</ele>
        <time>2022-02-28T16:13:08Z</time>
      </trkpt>
      <trkpt lat="49.55856" lon="-1.54833">
        <ele>136</ele>
        <time>2022-02-28T16:13:12Z</time>
      </trkpt>
      <trkpt lat="49.55852" lon="-1.54839">
        <ele>135.7</ele>
        <time>2022-02-28T16:13:15Z</time>
      </trkpt>
      <trkpt lat="49.55839" lon="-1.54855">
        <ele>134.8</ele>
        <time>2022-02-28T16:13:24Z</time>
      </trkpt>
      <trkpt lat="49.55835" lon="-1.54859">
        <ele>134.5</ele>
        <time>2022-02-28T16:13:28Z</time>
      </trkpt>
      <trkpt lat="49.55831" lon="-1.54864">
        <ele>134.2</ele>
        <time>2022-02-28T16:13:34Z</time>
      </trkpt>
      <trkpt lat="49.55828" lon="-1.54869">
        <ele>134.2</ele>
        <time>2022-02-28T16:13:57Z</time>
      </trkpt>
      <trkpt lat="49.55823" lon="-1.54874">
        <ele>134.1</ele>
        <time>2022-02-28T16:14:04Z</time>
      </trkpt>
      <trkpt lat="49.55818" lon="-1.54879">
        <ele>133.9</ele>
        <time>2022-02-28T16:14:10Z</time>
      </trkpt>
      <trkpt lat="49.55814" lon="-1.54884">
        <ele>133.8</ele>
        <time>2022-02-28T16:14:13Z</time>
      </trkpt>
      <trkpt lat="49.55811" lon="-1.5489">
        <ele>133.6</ele>
        <time>2022-02-28T16:14:16Z</time>
      </trkpt>
      <trkpt lat="49.55807" lon="-1.54896">
        <ele>133.3</ele>
        <time>2022-02-28T16:14:20Z</time>
      </trkpt>
      <trkpt lat="49.55804" lon="-1.54901">
        <ele>133.1</ele>
        <time>2022-02-28T16:14:24Z</time>
      </trkpt>
      <trkpt lat="49.55802" lon="-1.54907">
        <ele>133.2</ele>
        <time>2022-02-28T16:14:47Z</time>
      </trkpt>
      <trkpt lat="49.55798" lon="-1.54914">
        <ele>133</ele>
        <time>2022-02-28T16:15:14Z</time>
      </trkpt>
      <trkpt lat="49.55794" lon="-1.54916">
        <ele>132.9</ele>
        <time>2022-02-28T16:15:16Z</time>
      </trkpt>
      <trkpt lat="49.55789" lon="-1.5492">
        <ele>132.6</ele>
        <time>2022-02-28T16:15:19Z</time>
      </trkpt>
      <trkpt lat="49.55789" lon="-1.54927">
        <ele>133.7</ele>
        <time>2022-02-28T16:15:36Z</time>
      </trkpt>
      <trkpt lat="49.55794" lon="-1.54895">
        <ele>132.9</ele>
        <time>2022-02-28T16:16:56Z</time>
      </trkpt>
      <trkpt lat="49.55791" lon="-1.549">
        <ele>132.5</ele>
        <time>2022-02-28T16:17:02Z</time>
      </trkpt>
      <trkpt lat="49.55789" lon="-1.54909">
        <ele>132</ele>
        <time>2022-02-28T16:17:12Z</time>
      </trkpt>
      <trkpt lat="49.55789" lon="-1.54917">
        <ele>131.1</ele>
        <time>2022-02-28T16:17:21Z</time>
      </trkpt>
      <trkpt lat="49.55785" lon="-1.54922">
        <ele>132.7</ele>
        <time>2022-02-28T16:18:04Z</time>
      </trkpt>
      <trkpt lat="49.55781" lon="-1.54926">
        <ele>132.6</ele>
        <time>2022-02-28T16:18:07Z</time>
      </trkpt>
      <trkpt lat="49.55776" lon="-1.54935">
        <ele>132.4</ele>
        <time>2022-02-28T16:18:12Z</time>
      </trkpt>
      <trkpt lat="49.55772" lon="-1.5494">
        <ele>132.5</ele>
        <time>2022-02-28T16:18:16Z</time>
      </trkpt>
      <trkpt lat="49.55768" lon="-1.54947">
        <ele>132.5</ele>
        <time>2022-02-28T16:18:20Z</time>
      </trkpt>
      <trkpt lat="49.55764" lon="-1.54952">
        <ele>132.6</ele>
        <time>2022-02-28T16:18:24Z</time>
      </trkpt>
      <trkpt lat="49.55761" lon="-1.54957">
        <ele>132.4</ele>
        <time>2022-02-28T16:18:28Z</time>
      </trkpt>
      <trkpt lat="49.55757" lon="-1.54961">
        <ele>132.8</ele>
        <time>2022-02-28T16:18:41Z</time>
      </trkpt>
      <trkpt lat="49.55752" lon="-1.54966">
        <ele>132.6</ele>
        <time>2022-02-28T16:18:44Z</time>
      </trkpt>
      <trkpt lat="49.55749" lon="-1.5497">
        <ele>132.2</ele>
        <time>2022-02-28T16:18:47Z</time>
      </trkpt>
      <trkpt lat="49.55743" lon="-1.54977">
        <ele>131.9</ele>
        <time>2022-02-28T16:18:51Z</time>
      </trkpt>
      <trkpt lat="49.5574" lon="-1.54984">
        <ele>131.9</ele>
        <time>2022-02-28T16:18:56Z</time>
      </trkpt>
      <trkpt lat="49.55735" lon="-1.54989">
        <ele>131.8</ele>
        <time>2022-02-28T16:19:00Z</time>
      </trkpt>
      <trkpt lat="49.55731" lon="-1.54994">
        <ele>131.8</ele>
        <time>2022-02-28T16:19:04Z</time>
      </trkpt>
      <trkpt lat="49.55726" lon="-1.55">
        <ele>131.7</ele>
        <time>2022-02-28T16:19:07Z</time>
      </trkpt>
      <trkpt lat="49.55722" lon="-1.55005">
        <ele>131.7</ele>
        <time>2022-02-28T16:19:11Z</time>
      </trkpt>
      <trkpt lat="49.55718" lon="-1.5501">
        <ele>131.7</ele>
        <time>2022-02-28T16:19:15Z</time>
      </trkpt>
      <trkpt lat="49.55713" lon="-1.55017">
        <ele>131.8</ele>
        <time>2022-02-28T16:19:19Z</time>
      </trkpt>
      <trkpt lat="49.5571" lon="-1.55023">
        <ele>131.9</ele>
        <time>2022-02-28T16:19:24Z</time>
      </trkpt>
      <trkpt lat="49.55706" lon="-1.55028">
        <ele>132.4</ele>
        <time>2022-02-28T16:19:34Z</time>
      </trkpt>
      <trkpt lat="49.55701" lon="-1.55033">
        <ele>132.5</ele>
        <time>2022-02-28T16:19:38Z</time>
      </trkpt>
      <trkpt lat="49.55697" lon="-1.55039">
        <ele>132.8</ele>
        <time>2022-02-28T16:19:46Z</time>
      </trkpt>
      <trkpt lat="49.55693" lon="-1.55044">
        <ele>133</ele>
        <time>2022-02-28T16:19:49Z</time>
      </trkpt>
      <trkpt lat="49.55688" lon="-1.55048">
        <ele>133</ele>
        <time>2022-02-28T16:19:53Z</time>
      </trkpt>
      <trkpt lat="49.55684" lon="-1.55053">
        <ele>133</ele>
        <time>2022-02-28T16:19:56Z</time>
      </trkpt>
      <trkpt lat="49.55681" lon="-1.55059">
        <ele>133</ele>
        <time>2022-02-28T16:20:00Z</time>
      </trkpt>
      <trkpt lat="49.55678" lon="-1.55064">
        <ele>133.5</ele>
        <time>2022-02-28T16:20:08Z</time>
      </trkpt>
      <trkpt lat="49.55675" lon="-1.55073">
        <ele>133.8</ele>
        <time>2022-02-28T16:20:22Z</time>
      </trkpt>
      <trkpt lat="49.55672" lon="-1.55078">
        <ele>133.7</ele>
        <time>2022-02-28T16:20:25Z</time>
      </trkpt>
      <trkpt lat="49.55658" lon="-1.55095">
        <ele>133.8</ele>
        <time>2022-02-28T16:20:33Z</time>
      </trkpt>
      <trkpt lat="49.55653" lon="-1.551">
        <ele>133.9</ele>
        <time>2022-02-28T16:20:37Z</time>
      </trkpt>
      <trkpt lat="49.55636" lon="-1.55124">
        <ele>134.2</ele>
        <time>2022-02-28T16:20:49Z</time>
      </trkpt>
      <trkpt lat="49.55627" lon="-1.55139">
        <ele>134.8</ele>
        <time>2022-02-28T16:20:59Z</time>
      </trkpt>
      <trkpt lat="49.55623" lon="-1.55144">
        <ele>134.9</ele>
        <time>2022-02-28T16:21:02Z</time>
      </trkpt>
      <trkpt lat="49.55619" lon="-1.55149">
        <ele>134.9</ele>
        <time>2022-02-28T16:21:05Z</time>
      </trkpt>
      <trkpt lat="49.55614" lon="-1.55155">
        <ele>134.9</ele>
        <time>2022-02-28T16:21:10Z</time>
      </trkpt>
      <trkpt lat="49.55609" lon="-1.55161">
        <ele>135</ele>
        <time>2022-02-28T16:21:15Z</time>
      </trkpt>
      <trkpt lat="49.55605" lon="-1.55165">
        <ele>135.2</ele>
        <time>2022-02-28T16:21:18Z</time>
      </trkpt>
      <trkpt lat="49.556" lon="-1.55169">
        <ele>135.4</ele>
        <time>2022-02-28T16:21:22Z</time>
      </trkpt>
      <trkpt lat="49.55596" lon="-1.55174">
        <ele>135.7</ele>
        <time>2022-02-28T16:21:40Z</time>
      </trkpt>
      <trkpt lat="49.55592" lon="-1.55179">
        <ele>135.6</ele>
        <time>2022-02-28T16:21:42Z</time>
      </trkpt>
      <trkpt lat="49.55589" lon="-1.55184">
        <ele>135.5</ele>
        <time>2022-02-28T16:21:44Z</time>
      </trkpt>
      <trkpt lat="49.55586" lon="-1.5519">
        <ele>135.5</ele>
        <time>2022-02-28T16:21:46Z</time>
      </trkpt>
      <trkpt lat="49.55582" lon="-1.55197">
        <ele>135.5</ele>
        <time>2022-02-28T16:21:50Z</time>
      </trkpt>
      <trkpt lat="49.55578" lon="-1.55203">
        <ele>135.7</ele>
        <time>2022-02-28T16:21:53Z</time>
      </trkpt>
      <trkpt lat="49.55574" lon="-1.55207">
        <ele>135.7</ele>
        <time>2022-02-28T16:21:55Z</time>
      </trkpt>
      <trkpt lat="49.5557" lon="-1.55213">
        <ele>135.7</ele>
        <time>2022-02-28T16:21:59Z</time>
      </trkpt>
      <trkpt lat="49.55564" lon="-1.55221">
        <ele>135.4</ele>
        <time>2022-02-28T16:22:05Z</time>
      </trkpt>
      <trkpt lat="49.55563" lon="-1.55228">
        <ele>135.6</ele>
        <time>2022-02-28T16:22:11Z</time>
      </trkpt>
      <trkpt lat="49.55559" lon="-1.55232">
        <ele>135.6</ele>
        <time>2022-02-28T16:22:14Z</time>
      </trkpt>
      <trkpt lat="49.5554" lon="-1.55257">
        <ele>135.5</ele>
        <time>2022-02-28T16:22:27Z</time>
      </trkpt>
      <trkpt lat="49.55535" lon="-1.55261">
        <ele>135.7</ele>
        <time>2022-02-28T16:22:31Z</time>
      </trkpt>
      <trkpt lat="49.5553" lon="-1.5526">
        <ele>135.9</ele>
        <time>2022-02-28T16:22:34Z</time>
      </trkpt>
      <trkpt lat="49.55525" lon="-1.55258">
        <ele>136.4</ele>
        <time>2022-02-28T16:22:41Z</time>
      </trkpt>
      <trkpt lat="49.5552" lon="-1.55254">
        <ele>136.6</ele>
        <time>2022-02-28T16:22:45Z</time>
      </trkpt>
      <trkpt lat="49.55516" lon="-1.55249">
        <ele>136.7</ele>
        <time>2022-02-28T16:22:48Z</time>
      </trkpt>
      <trkpt lat="49.55514" lon="-1.55243">
        <ele>137.3</ele>
        <time>2022-02-28T16:22:58Z</time>
      </trkpt>
      <trkpt lat="49.55509" lon="-1.55238">
        <ele>137.5</ele>
        <time>2022-02-28T16:23:03Z</time>
      </trkpt>
      <trkpt lat="49.55506" lon="-1.55233">
        <ele>137.6</ele>
        <time>2022-02-28T16:23:05Z</time>
      </trkpt>
      <trkpt lat="49.555" lon="-1.55227">
        <ele>137.8</ele>
        <time>2022-02-28T16:23:09Z</time>
      </trkpt>
      <trkpt lat="49.55497" lon="-1.55224">
        <ele>138</ele>
        <time>2022-02-28T16:23:13Z</time>
      </trkpt>
      <trkpt lat="49.55493" lon="-1.55219">
        <ele>138.4</ele>
        <time>2022-02-28T16:23:16Z</time>
      </trkpt>
      <trkpt lat="49.5549" lon="-1.55213">
        <ele>139</ele>
        <time>2022-02-28T16:23:20Z</time>
      </trkpt>
      <trkpt lat="49.55486" lon="-1.55209">
        <ele>139.6</ele>
        <time>2022-02-28T16:23:24Z</time>
      </trkpt>
      <trkpt lat="49.55482" lon="-1.55205">
        <ele>140.5</ele>
        <time>2022-02-28T16:23:31Z</time>
      </trkpt>
      <trkpt lat="49.55477" lon="-1.55203">
        <ele>140.9</ele>
        <time>2022-02-28T16:23:36Z</time>
      </trkpt>
      <trkpt lat="49.55473" lon="-1.55199">
        <ele>141.2</ele>
        <time>2022-02-28T16:23:40Z</time>
      </trkpt>
      <trkpt lat="49.55469" lon="-1.55196">
        <ele>141.6</ele>
        <time>2022-02-28T16:23:46Z</time>
      </trkpt>
      <trkpt lat="49.55464" lon="-1.55192">
        <ele>141.9</ele>
        <time>2022-02-28T16:23:50Z</time>
      </trkpt>
      <trkpt lat="49.5546" lon="-1.55186">
        <ele>142.3</ele>
        <time>2022-02-28T16:23:55Z</time>
      </trkpt>
      <trkpt lat="49.55456" lon="-1.55183">
        <ele>142.6</ele>
        <time>2022-02-28T16:24:00Z</time>
      </trkpt>
      <trkpt lat="49.55453" lon="-1.55176">
        <ele>143.8</ele>
        <time>2022-02-28T16:24:12Z</time>
      </trkpt>
      <trkpt lat="49.55441" lon="-1.55163">
        <ele>144.6</ele>
        <time>2022-02-28T16:24:18Z</time>
      </trkpt>
      <trkpt lat="49.55437" lon="-1.55159">
        <ele>145</ele>
        <time>2022-02-28T16:24:21Z</time>
      </trkpt>
      <trkpt lat="49.55428" lon="-1.55153">
        <ele>145.4</ele>
        <time>2022-02-28T16:24:25Z</time>
      </trkpt>
      <trkpt lat="49.55425" lon="-1.55148">
        <ele>146</ele>
        <time>2022-02-28T16:24:28Z</time>
      </trkpt>
      <trkpt lat="49.55421" lon="-1.55143">
        <ele>147</ele>
        <time>2022-02-28T16:24:32Z</time>
      </trkpt>
      <trkpt lat="49.55417" lon="-1.55138">
        <ele>148.3</ele>
        <time>2022-02-28T16:24:40Z</time>
      </trkpt>
      <trkpt lat="49.55412" lon="-1.55134">
        <ele>148.9</ele>
        <time>2022-02-28T16:24:44Z</time>
      </trkpt>
      <trkpt lat="49.55407" lon="-1.5513">
        <ele>149.5</ele>
        <time>2022-02-28T16:24:47Z</time>
      </trkpt>
      <trkpt lat="49.55403" lon="-1.55126">
        <ele>152.2</ele>
        <time>2022-02-28T16:25:04Z</time>
      </trkpt>
      <trkpt lat="49.55399" lon="-1.55123">
        <ele>154.6</ele>
        <time>2022-02-28T16:25:20Z</time>
      </trkpt>
      <trkpt lat="49.55394" lon="-1.55121">
        <ele>154.9</ele>
        <time>2022-02-28T16:25:23Z</time>
      </trkpt>
      <trkpt lat="49.5539" lon="-1.55118">
        <ele>155.3</ele>
        <time>2022-02-28T16:25:25Z</time>
      </trkpt>
      <trkpt lat="49.55386" lon="-1.55113">
        <ele>155.5</ele>
        <time>2022-02-28T16:25:26Z</time>
      </trkpt>
      <trkpt lat="49.55351" lon="-1.55069">
        <ele>157</ele>
        <time>2022-02-28T16:25:38Z</time>
      </trkpt>
      <trkpt lat="49.55346" lon="-1.55067">
        <ele>158.9</ele>
        <time>2022-02-28T16:25:48Z</time>
      </trkpt>
      <trkpt lat="49.55342" lon="-1.55075">
        <ele>159.1</ele>
        <time>2022-02-28T16:25:53Z</time>
      </trkpt>
      <trkpt lat="49.55338" lon="-1.55082">
        <ele>159.2</ele>
        <time>2022-02-28T16:25:57Z</time>
      </trkpt>
      <trkpt lat="49.55334" lon="-1.55087">
        <ele>159.5</ele>
        <time>2022-02-28T16:26:00Z</time>
      </trkpt>
      <trkpt lat="49.55329" lon="-1.55094">
        <ele>159.8</ele>
        <time>2022-02-28T16:26:04Z</time>
      </trkpt>
      <trkpt lat="49.55325" lon="-1.55099">
        <ele>160.1</ele>
        <time>2022-02-28T16:26:09Z</time>
      </trkpt>
      <trkpt lat="49.55321" lon="-1.55105">
        <ele>160.3</ele>
        <time>2022-02-28T16:26:14Z</time>
      </trkpt>
      <trkpt lat="49.55317" lon="-1.55108">
        <ele>160.5</ele>
        <time>2022-02-28T16:26:17Z</time>
      </trkpt>
      <trkpt lat="49.55313" lon="-1.55114">
        <ele>160.9</ele>
        <time>2022-02-28T16:26:20Z</time>
      </trkpt>
      <trkpt lat="49.55309" lon="-1.55121">
        <ele>161.5</ele>
        <time>2022-02-28T16:26:24Z</time>
      </trkpt>
      <trkpt lat="49.55295" lon="-1.55146">
        <ele>163.9</ele>
        <time>2022-02-28T16:26:38Z</time>
      </trkpt>
      <trkpt lat="49.55289" lon="-1.55147">
        <ele>164.1</ele>
        <time>2022-02-28T16:26:45Z</time>
      </trkpt>
      <trkpt lat="49.55287" lon="-1.55155">
        <ele>163.7</ele>
        <time>2022-02-28T16:26:48Z</time>
      </trkpt>
      <trkpt lat="49.55286" lon="-1.55164">
        <ele>163.4</ele>
        <time>2022-02-28T16:26:50Z</time>
      </trkpt>
      <trkpt lat="49.55284" lon="-1.55173">
        <ele>163.3</ele>
        <time>2022-02-28T16:26:54Z</time>
      </trkpt>
      <trkpt lat="49.55281" lon="-1.5518">
        <ele>163.8</ele>
        <time>2022-02-28T16:26:58Z</time>
      </trkpt>
      <trkpt lat="49.55277" lon="-1.55185">
        <ele>165.4</ele>
        <time>2022-02-28T16:27:20Z</time>
      </trkpt>
      <trkpt lat="49.55274" lon="-1.55192">
        <ele>165.3</ele>
        <time>2022-02-28T16:27:25Z</time>
      </trkpt>
      <trkpt lat="49.5527" lon="-1.55199">
        <ele>165.1</ele>
        <time>2022-02-28T16:27:29Z</time>
      </trkpt>
      <trkpt lat="49.55266" lon="-1.55205">
        <ele>164.9</ele>
        <time>2022-02-28T16:27:34Z</time>
      </trkpt>
      <trkpt lat="49.55263" lon="-1.55214">
        <ele>164.9</ele>
        <time>2022-02-28T16:27:39Z</time>
      </trkpt>
      <trkpt lat="49.5526" lon="-1.55219">
        <ele>165.3</ele>
        <time>2022-02-28T16:27:42Z</time>
      </trkpt>
      <trkpt lat="49.55257" lon="-1.55223">
        <ele>165.7</ele>
        <time>2022-02-28T16:27:45Z</time>
      </trkpt>
      <trkpt lat="49.55253" lon="-1.55229">
        <ele>165.7</ele>
        <time>2022-02-28T16:27:49Z</time>
      </trkpt>
      <trkpt lat="49.55248" lon="-1.55234">
        <ele>165.5</ele>
        <time>2022-02-28T16:27:53Z</time>
      </trkpt>
      <trkpt lat="49.55244" lon="-1.55239">
        <ele>165.2</ele>
        <time>2022-02-28T16:27:57Z</time>
      </trkpt>
      <trkpt lat="49.55242" lon="-1.55245">
        <ele>164.9</ele>
        <time>2022-02-28T16:28:01Z</time>
      </trkpt>
      <trkpt lat="49.5524" lon="-1.55252">
        <ele>164.7</ele>
        <time>2022-02-28T16:28:06Z</time>
      </trkpt>
      <trkpt lat="49.55236" lon="-1.55259">
        <ele>164.4</ele>
        <time>2022-02-28T16:28:10Z</time>
      </trkpt>
      <trkpt lat="49.55231" lon="-1.55264">
        <ele>163.9</ele>
        <time>2022-02-28T16:28:14Z</time>
      </trkpt>
      <trkpt lat="49.55227" lon="-1.55268">
        <ele>163.6</ele>
        <time>2022-02-28T16:28:16Z</time>
      </trkpt>
      <trkpt lat="49.55223" lon="-1.55273">
        <ele>163.5</ele>
        <time>2022-02-28T16:28:20Z</time>
      </trkpt>
      <trkpt lat="49.55219" lon="-1.55279">
        <ele>163.4</ele>
        <time>2022-02-28T16:28:24Z</time>
      </trkpt>
      <trkpt lat="49.55216" lon="-1.55285">
        <ele>163.2</ele>
        <time>2022-02-28T16:28:27Z</time>
      </trkpt>
      <trkpt lat="49.55215" lon="-1.55292">
        <ele>163</ele>
        <time>2022-02-28T16:28:30Z</time>
      </trkpt>
      <trkpt lat="49.55209" lon="-1.55308">
        <ele>162.5</ele>
        <time>2022-02-28T16:28:39Z</time>
      </trkpt>
      <trkpt lat="49.55206" lon="-1.55315">
        <ele>162.4</ele>
        <time>2022-02-28T16:28:42Z</time>
      </trkpt>
      <trkpt lat="49.55203" lon="-1.55321">
        <ele>162.3</ele>
        <time>2022-02-28T16:28:45Z</time>
      </trkpt>
      <trkpt lat="49.552" lon="-1.55327">
        <ele>162.1</ele>
        <time>2022-02-28T16:28:49Z</time>
      </trkpt>
      <trkpt lat="49.55197" lon="-1.55334">
        <ele>161.9</ele>
        <time>2022-02-28T16:28:53Z</time>
      </trkpt>
      <trkpt lat="49.55194" lon="-1.55341">
        <ele>161.7</ele>
        <time>2022-02-28T16:28:57Z</time>
      </trkpt>
      <trkpt lat="49.55192" lon="-1.5535">
        <ele>161.2</ele>
        <time>2022-02-28T16:29:01Z</time>
      </trkpt>
      <trkpt lat="49.5519" lon="-1.55356">
        <ele>160.6</ele>
        <time>2022-02-28T16:29:05Z</time>
      </trkpt>
      <trkpt lat="49.55188" lon="-1.55363">
        <ele>160.3</ele>
        <time>2022-02-28T16:29:08Z</time>
      </trkpt>
      <trkpt lat="49.55187" lon="-1.55371">
        <ele>160.1</ele>
        <time>2022-02-28T16:29:12Z</time>
      </trkpt>
      <trkpt lat="49.55183" lon="-1.55378">
        <ele>160.2</ele>
        <time>2022-02-28T16:29:16Z</time>
      </trkpt>
      <trkpt lat="49.55179" lon="-1.55384">
        <ele>160.6</ele>
        <time>2022-02-28T16:29:21Z</time>
      </trkpt>
      <trkpt lat="49.55177" lon="-1.55391">
        <ele>160.7</ele>
        <time>2022-02-28T16:29:25Z</time>
      </trkpt>
      <trkpt lat="49.55174" lon="-1.55397">
        <ele>160.7</ele>
        <time>2022-02-28T16:29:29Z</time>
      </trkpt>
      <trkpt lat="49.55171" lon="-1.55404">
        <ele>160.7</ele>
        <time>2022-02-28T16:29:33Z</time>
      </trkpt>
      <trkpt lat="49.55169" lon="-1.55412">
        <ele>160.7</ele>
        <time>2022-02-28T16:29:39Z</time>
      </trkpt>
      <trkpt lat="49.55166" lon="-1.55419">
        <ele>160.5</ele>
        <time>2022-02-28T16:29:44Z</time>
      </trkpt>
      <trkpt lat="49.55164" lon="-1.55426">
        <ele>160.5</ele>
        <time>2022-02-28T16:29:47Z</time>
      </trkpt>
      <trkpt lat="49.55162" lon="-1.55434">
        <ele>160.4</ele>
        <time>2022-02-28T16:29:52Z</time>
      </trkpt>
      <trkpt lat="49.55157" lon="-1.55437">
        <ele>160.7</ele>
        <time>2022-02-28T16:30:17Z</time>
      </trkpt>
      <trkpt lat="49.55155" lon="-1.55442">
        <ele>160.8</ele>
        <time>2022-02-28T16:30:20Z</time>
      </trkpt>
      <trkpt lat="49.55152" lon="-1.5545">
        <ele>160.8</ele>
        <time>2022-02-28T16:30:23Z</time>
      </trkpt>
      <trkpt lat="49.55149" lon="-1.55457">
        <ele>160.7</ele>
        <time>2022-02-28T16:30:27Z</time>
      </trkpt>
      <trkpt lat="49.55147" lon="-1.55464">
        <ele>160.5</ele>
        <time>2022-02-28T16:30:31Z</time>
      </trkpt>
      <trkpt lat="49.55153" lon="-1.5546">
        <ele>160.4</ele>
        <time>2022-02-28T16:30:36Z</time>
      </trkpt>
      <trkpt lat="49.55147" lon="-1.55464">
        <ele>159.9</ele>
        <time>2022-02-28T16:30:48Z</time>
      </trkpt>
      <trkpt lat="49.55143" lon="-1.55469">
        <ele>159.8</ele>
        <time>2022-02-28T16:30:51Z</time>
      </trkpt>
      <trkpt lat="49.5514" lon="-1.55477">
        <ele>159.7</ele>
        <time>2022-02-28T16:30:55Z</time>
      </trkpt>
      <trkpt lat="49.55137" lon="-1.55483">
        <ele>159.7</ele>
        <time>2022-02-28T16:30:59Z</time>
      </trkpt>
      <trkpt lat="49.55138" lon="-1.5549">
        <ele>159.7</ele>
        <time>2022-02-28T16:31:02Z</time>
      </trkpt>
      <trkpt lat="49.55136" lon="-1.55497">
        <ele>159.8</ele>
        <time>2022-02-28T16:31:06Z</time>
      </trkpt>
      <trkpt lat="49.55131" lon="-1.555">
        <ele>159.8</ele>
        <time>2022-02-28T16:31:39Z</time>
      </trkpt>
      <trkpt lat="49.55128" lon="-1.55508">
        <ele>159.7</ele>
        <time>2022-02-28T16:31:42Z</time>
      </trkpt>
      <trkpt lat="49.55125" lon="-1.55516">
        <ele>159.8</ele>
        <time>2022-02-28T16:31:45Z</time>
      </trkpt>
      <trkpt lat="49.55123" lon="-1.55523">
        <ele>159.8</ele>
        <time>2022-02-28T16:31:49Z</time>
      </trkpt>
      <trkpt lat="49.55121" lon="-1.55531">
        <ele>159.9</ele>
        <time>2022-02-28T16:31:52Z</time>
      </trkpt>
      <trkpt lat="49.55119" lon="-1.55538">
        <ele>159.5</ele>
        <time>2022-02-28T16:31:56Z</time>
      </trkpt>
      <trkpt lat="49.55116" lon="-1.55543">
        <ele>158.8</ele>
        <time>2022-02-28T16:32:00Z</time>
      </trkpt>
      <trkpt lat="49.55113" lon="-1.55549">
        <ele>158.7</ele>
        <time>2022-02-28T16:32:04Z</time>
      </trkpt>
      <trkpt lat="49.5511" lon="-1.55557">
        <ele>158.8</ele>
        <time>2022-02-28T16:32:08Z</time>
      </trkpt>
      <trkpt lat="49.55107" lon="-1.55563">
        <ele>158.7</ele>
        <time>2022-02-28T16:32:11Z</time>
      </trkpt>
      <trkpt lat="49.55105" lon="-1.5557">
        <ele>158.4</ele>
        <time>2022-02-28T16:32:14Z</time>
      </trkpt>
      <trkpt lat="49.55103" lon="-1.55576">
        <ele>158.1</ele>
        <time>2022-02-28T16:32:17Z</time>
      </trkpt>
      <trkpt lat="49.55101" lon="-1.55582">
        <ele>157.9</ele>
        <time>2022-02-28T16:32:21Z</time>
      </trkpt>
      <trkpt lat="49.55099" lon="-1.5559">
        <ele>157.6</ele>
        <time>2022-02-28T16:32:25Z</time>
      </trkpt>
      <trkpt lat="49.55095" lon="-1.55598">
        <ele>157.5</ele>
        <time>2022-02-28T16:32:41Z</time>
      </trkpt>
      <trkpt lat="49.55092" lon="-1.55604">
        <ele>157.1</ele>
        <time>2022-02-28T16:32:44Z</time>
      </trkpt>
      <trkpt lat="49.55089" lon="-1.5561">
        <ele>156.8</ele>
        <time>2022-02-28T16:32:47Z</time>
      </trkpt>
      <trkpt lat="49.55087" lon="-1.55618">
        <ele>156.6</ele>
        <time>2022-02-28T16:32:51Z</time>
      </trkpt>
      <trkpt lat="49.55083" lon="-1.55632">
        <ele>156.4</ele>
        <time>2022-02-28T16:32:56Z</time>
      </trkpt>
      <trkpt lat="49.5508" lon="-1.55642">
        <ele>155.9</ele>
        <time>2022-02-28T16:33:01Z</time>
      </trkpt>
      <trkpt lat="49.55079" lon="-1.5565">
        <ele>155.3</ele>
        <time>2022-02-28T16:33:05Z</time>
      </trkpt>
      <trkpt lat="49.55077" lon="-1.55659">
        <ele>155</ele>
        <time>2022-02-28T16:33:09Z</time>
      </trkpt>
      <trkpt lat="49.55076" lon="-1.55668">
        <ele>155.1</ele>
        <time>2022-02-28T16:33:12Z</time>
      </trkpt>
      <trkpt lat="49.55074" lon="-1.55675">
        <ele>155.1</ele>
        <time>2022-02-28T16:33:16Z</time>
      </trkpt>
      <trkpt lat="49.55074" lon="-1.55682">
        <ele>155.2</ele>
        <time>2022-02-28T16:33:20Z</time>
      </trkpt>
      <trkpt lat="49.55074" lon="-1.55689">
        <ele>155.1</ele>
        <time>2022-02-28T16:33:24Z</time>
      </trkpt>
      <trkpt lat="49.55076" lon="-1.55696">
        <ele>154.9</ele>
        <time>2022-02-28T16:33:28Z</time>
      </trkpt>
      <trkpt lat="49.55074" lon="-1.55705">
        <ele>154.9</ele>
        <time>2022-02-28T16:33:33Z</time>
      </trkpt>
      <trkpt lat="49.5507" lon="-1.55712">
        <ele>154.9</ele>
        <time>2022-02-28T16:33:37Z</time>
      </trkpt>
      <trkpt lat="49.55069" lon="-1.55719">
        <ele>154.8</ele>
        <time>2022-02-28T16:33:41Z</time>
      </trkpt>
      <trkpt lat="49.55066" lon="-1.55727">
        <ele>154.6</ele>
        <time>2022-02-28T16:33:46Z</time>
      </trkpt>
      <trkpt lat="49.55065" lon="-1.55735">
        <ele>154.4</ele>
        <time>2022-02-28T16:33:49Z</time>
      </trkpt>
      <trkpt lat="49.55064" lon="-1.55743">
        <ele>154.3</ele>
        <time>2022-02-28T16:33:53Z</time>
      </trkpt>
      <trkpt lat="49.55063" lon="-1.55752">
        <ele>154</ele>
        <time>2022-02-28T16:33:57Z</time>
      </trkpt>
      <trkpt lat="49.55063" lon="-1.55759">
        <ele>153.7</ele>
        <time>2022-02-28T16:34:02Z</time>
      </trkpt>
      <trkpt lat="49.5506" lon="-1.55765">
        <ele>153.2</ele>
        <time>2022-02-28T16:34:20Z</time>
      </trkpt>
      <trkpt lat="49.55057" lon="-1.55771">
        <ele>153.2</ele>
        <time>2022-02-28T16:34:23Z</time>
      </trkpt>
      <trkpt lat="49.55057" lon="-1.55778">
        <ele>153.1</ele>
        <time>2022-02-28T16:34:26Z</time>
      </trkpt>
      <trkpt lat="49.55056" lon="-1.55786">
        <ele>153</ele>
        <time>2022-02-28T16:34:29Z</time>
      </trkpt>
      <trkpt lat="49.55054" lon="-1.55793">
        <ele>153.1</ele>
        <time>2022-02-28T16:34:32Z</time>
      </trkpt>
      <trkpt lat="49.55052" lon="-1.558">
        <ele>153.1</ele>
        <time>2022-02-28T16:34:36Z</time>
      </trkpt>
      <trkpt lat="49.5505" lon="-1.55808">
        <ele>153.1</ele>
        <time>2022-02-28T16:34:41Z</time>
      </trkpt>
      <trkpt lat="49.55047" lon="-1.55814">
        <ele>152.7</ele>
        <time>2022-02-28T16:34:45Z</time>
      </trkpt>
      <trkpt lat="49.55043" lon="-1.5582">
        <ele>152.2</ele>
        <time>2022-02-28T16:34:49Z</time>
      </trkpt>
      <trkpt lat="49.55041" lon="-1.55826">
        <ele>151.6</ele>
        <time>2022-02-28T16:34:53Z</time>
      </trkpt>
      <trkpt lat="49.55039" lon="-1.55834">
        <ele>151.1</ele>
        <time>2022-02-28T16:34:57Z</time>
      </trkpt>
      <trkpt lat="49.55036" lon="-1.55841">
        <ele>150.9</ele>
        <time>2022-02-28T16:35:01Z</time>
      </trkpt>
      <trkpt lat="49.55032" lon="-1.55847">
        <ele>150.6</ele>
        <time>2022-02-28T16:35:04Z</time>
      </trkpt>
      <trkpt lat="49.55028" lon="-1.55854">
        <ele>150.2</ele>
        <time>2022-02-28T16:35:09Z</time>
      </trkpt>
      <trkpt lat="49.55025" lon="-1.5586">
        <ele>150.4</ele>
        <time>2022-02-28T16:35:13Z</time>
      </trkpt>
      <trkpt lat="49.55022" lon="-1.55866">
        <ele>150.7</ele>
        <time>2022-02-28T16:35:22Z</time>
      </trkpt>
      <trkpt lat="49.55018" lon="-1.55873">
        <ele>150.2</ele>
        <time>2022-02-28T16:35:25Z</time>
      </trkpt>
      <trkpt lat="49.55015" lon="-1.55879">
        <ele>149.3</ele>
        <time>2022-02-28T16:35:29Z</time>
      </trkpt>
      <trkpt lat="49.55011" lon="-1.55886">
        <ele>147.6</ele>
        <time>2022-02-28T16:35:36Z</time>
      </trkpt>
      <trkpt lat="49.55007" lon="-1.55889">
        <ele>147.7</ele>
        <time>2022-02-28T16:35:40Z</time>
      </trkpt>
      <trkpt lat="49.55002" lon="-1.55891">
        <ele>147.9</ele>
        <time>2022-02-28T16:35:43Z</time>
      </trkpt>
      <trkpt lat="49.54997" lon="-1.5589">
        <ele>148</ele>
        <time>2022-02-28T16:35:46Z</time>
      </trkpt>
      <trkpt lat="49.54993" lon="-1.55887">
        <ele>148.2</ele>
        <time>2022-02-28T16:35:50Z</time>
      </trkpt>
      <trkpt lat="49.54988" lon="-1.55883">
        <ele>148.9</ele>
        <time>2022-02-28T16:36:09Z</time>
      </trkpt>
      <trkpt lat="49.54984" lon="-1.55878">
        <ele>148.5</ele>
        <time>2022-02-28T16:36:13Z</time>
      </trkpt>
      <trkpt lat="49.5498" lon="-1.55875">
        <ele>148.4</ele>
        <time>2022-02-28T16:36:16Z</time>
      </trkpt>
      <trkpt lat="49.54975" lon="-1.55872">
        <ele>148.4</ele>
        <time>2022-02-28T16:36:20Z</time>
      </trkpt>
      <trkpt lat="49.5497" lon="-1.55868">
        <ele>148.3</ele>
        <time>2022-02-28T16:36:23Z</time>
      </trkpt>
      <trkpt lat="49.54965" lon="-1.55864">
        <ele>148.2</ele>
        <time>2022-02-28T16:36:27Z</time>
      </trkpt>
      <trkpt lat="49.5496" lon="-1.55863">
        <ele>148</ele>
        <time>2022-02-28T16:36:31Z</time>
      </trkpt>
      <trkpt lat="49.54955" lon="-1.5586">
        <ele>147.8</ele>
        <time>2022-02-28T16:36:36Z</time>
      </trkpt>
      <trkpt lat="49.5495" lon="-1.55859">
        <ele>147.6</ele>
        <time>2022-02-28T16:36:40Z</time>
      </trkpt>
      <trkpt lat="49.54945" lon="-1.55861">
        <ele>147.4</ele>
        <time>2022-02-28T16:36:43Z</time>
      </trkpt>
      <trkpt lat="49.54939" lon="-1.55862">
        <ele>147.3</ele>
        <time>2022-02-28T16:36:47Z</time>
      </trkpt>
      <trkpt lat="49.54933" lon="-1.55864">
        <ele>147</ele>
        <time>2022-02-28T16:36:50Z</time>
      </trkpt>
      <trkpt lat="49.54881" lon="-1.55886">
        <ele>142.5</ele>
        <time>2022-02-28T16:37:25Z</time>
      </trkpt>
      <trkpt lat="49.54875" lon="-1.55889">
        <ele>142</ele>
        <time>2022-02-28T16:37:29Z</time>
      </trkpt>
      <trkpt lat="49.54849" lon="-1.55892">
        <ele>141.1</ele>
        <time>2022-02-28T16:37:47Z</time>
      </trkpt>
      <trkpt lat="49.5485" lon="-1.55885">
        <ele>139.4</ele>
        <time>2022-02-28T16:38:00Z</time>
      </trkpt>
      <trkpt lat="49.54854" lon="-1.55879">
        <ele>138.7</ele>
        <time>2022-02-28T16:38:06Z</time>
      </trkpt>
      <trkpt lat="49.54859" lon="-1.55875">
        <ele>137.9</ele>
        <time>2022-02-28T16:38:10Z</time>
      </trkpt>
      <trkpt lat="49.54864" lon="-1.55875">
        <ele>137.2</ele>
        <time>2022-02-28T16:38:13Z</time>
      </trkpt>
      <trkpt lat="49.54869" lon="-1.55872">
        <ele>136.9</ele>
        <time>2022-02-28T16:38:18Z</time>
      </trkpt>
      <trkpt lat="49.54875" lon="-1.55867">
        <ele>136.8</ele>
        <time>2022-02-28T16:38:21Z</time>
      </trkpt>
      <trkpt lat="49.5488" lon="-1.55864">
        <ele>136.6</ele>
        <time>2022-02-28T16:38:25Z</time>
      </trkpt>
      <trkpt lat="49.54885" lon="-1.55862">
        <ele>136.5</ele>
        <time>2022-02-28T16:38:29Z</time>
      </trkpt>
      <trkpt lat="49.54889" lon="-1.5586">
        <ele>136.5</ele>
        <time>2022-02-28T16:38:32Z</time>
      </trkpt>
      <trkpt lat="49.54893" lon="-1.55857">
        <ele>136.7</ele>
        <time>2022-02-28T16:38:36Z</time>
      </trkpt>
      <trkpt lat="49.54898" lon="-1.55853">
        <ele>137.4</ele>
        <time>2022-02-28T16:38:40Z</time>
      </trkpt>
      <trkpt lat="49.54902" lon="-1.55849">
        <ele>137.8</ele>
        <time>2022-02-28T16:38:43Z</time>
      </trkpt>
      <trkpt lat="49.54906" lon="-1.55845">
        <ele>137.8</ele>
        <time>2022-02-28T16:38:47Z</time>
      </trkpt>
      <trkpt lat="49.5491" lon="-1.55841">
        <ele>137.3</ele>
        <time>2022-02-28T16:38:51Z</time>
      </trkpt>
      <trkpt lat="49.54913" lon="-1.55836">
        <ele>136.9</ele>
        <time>2022-02-28T16:38:56Z</time>
      </trkpt>
      <trkpt lat="49.54916" lon="-1.5583">
        <ele>137.1</ele>
        <time>2022-02-28T16:39:01Z</time>
      </trkpt>
      <trkpt lat="49.54919" lon="-1.55822">
        <ele>137.2</ele>
        <time>2022-02-28T16:39:07Z</time>
      </trkpt>
      <trkpt lat="49.54917" lon="-1.55815">
        <ele>136.6</ele>
        <time>2022-02-28T16:39:14Z</time>
      </trkpt>
      <trkpt lat="49.54913" lon="-1.55808">
        <ele>136.1</ele>
        <time>2022-02-28T16:39:19Z</time>
      </trkpt>
      <trkpt lat="49.5491" lon="-1.55803">
        <ele>135.7</ele>
        <time>2022-02-28T16:39:25Z</time>
      </trkpt>
      <trkpt lat="49.5491" lon="-1.55796">
        <ele>135.3</ele>
        <time>2022-02-28T16:39:39Z</time>
      </trkpt>
      <trkpt lat="49.5491" lon="-1.55789">
        <ele>134.9</ele>
        <time>2022-02-28T16:39:56Z</time>
      </trkpt>
      <trkpt lat="49.54913" lon="-1.55781">
        <ele>134.5</ele>
        <time>2022-02-28T16:40:03Z</time>
      </trkpt>
      <trkpt lat="49.54916" lon="-1.55774">
        <ele>134.9</ele>
        <time>2022-02-28T16:40:08Z</time>
      </trkpt>
      <trkpt lat="49.5492" lon="-1.55767">
        <ele>135.3</ele>
        <time>2022-02-28T16:40:12Z</time>
      </trkpt>
      <trkpt lat="49.54923" lon="-1.55761">
        <ele>135.1</ele>
        <time>2022-02-28T16:40:17Z</time>
      </trkpt>
      <trkpt lat="49.54927" lon="-1.55757">
        <ele>134.9</ele>
        <time>2022-02-28T16:40:20Z</time>
      </trkpt>
      <trkpt lat="49.54931" lon="-1.55752">
        <ele>134.8</ele>
        <time>2022-02-28T16:40:23Z</time>
      </trkpt>
      <trkpt lat="49.54934" lon="-1.55745">
        <ele>134.7</ele>
        <time>2022-02-28T16:40:27Z</time>
      </trkpt>
      <trkpt lat="49.54938" lon="-1.55736">
        <ele>135</ele>
        <time>2022-02-28T16:40:31Z</time>
      </trkpt>
      <trkpt lat="49.54942" lon="-1.55729">
        <ele>135</ele>
        <time>2022-02-28T16:40:37Z</time>
      </trkpt>
      <trkpt lat="49.54942" lon="-1.55721">
        <ele>134.6</ele>
        <time>2022-02-28T16:40:43Z</time>
      </trkpt>
      <trkpt lat="49.5494" lon="-1.55715">
        <ele>134.3</ele>
        <time>2022-02-28T16:41:00Z</time>
      </trkpt>
      <trkpt lat="49.5494" lon="-1.55708">
        <ele>134</ele>
        <time>2022-02-28T16:41:08Z</time>
      </trkpt>
      <trkpt lat="49.54939" lon="-1.557">
        <ele>133.8</ele>
        <time>2022-02-28T16:41:12Z</time>
      </trkpt>
      <trkpt lat="49.54936" lon="-1.55694">
        <ele>133</ele>
        <time>2022-02-28T16:41:23Z</time>
      </trkpt>
      <trkpt lat="49.54934" lon="-1.55686">
        <ele>131.6</ele>
        <time>2022-02-28T16:41:33Z</time>
      </trkpt>
      <trkpt lat="49.54931" lon="-1.55681">
        <ele>130.8</ele>
        <time>2022-02-28T16:41:39Z</time>
      </trkpt>
      <trkpt lat="49.54926" lon="-1.55676">
        <ele>130.9</ele>
        <time>2022-02-28T16:41:44Z</time>
      </trkpt>
      <trkpt lat="49.54922" lon="-1.55672">
        <ele>130.9</ele>
        <time>2022-02-28T16:41:51Z</time>
      </trkpt>
      <trkpt lat="49.54918" lon="-1.55671">
        <ele>130.2</ele>
        <time>2022-02-28T16:42:10Z</time>
      </trkpt>
      <trkpt lat="49.54912" lon="-1.55669">
        <ele>129.8</ele>
        <time>2022-02-28T16:42:23Z</time>
      </trkpt>
      <trkpt lat="49.54907" lon="-1.55667">
        <ele>129.5</ele>
        <time>2022-02-28T16:42:26Z</time>
      </trkpt>
      <trkpt lat="49.54901" lon="-1.55664">
        <ele>129.1</ele>
        <time>2022-02-28T16:42:29Z</time>
      </trkpt>
      <trkpt lat="49.54864" lon="-1.55617">
        <ele>125.8</ele>
        <time>2022-02-28T16:42:49Z</time>
      </trkpt>
      <trkpt lat="49.54859" lon="-1.55613">
        <ele>125.6</ele>
        <time>2022-02-28T16:42:51Z</time>
      </trkpt>
      <trkpt lat="49.54854" lon="-1.55607">
        <ele>125.3</ele>
        <time>2022-02-28T16:42:54Z</time>
      </trkpt>
      <trkpt lat="49.5485" lon="-1.55602">
        <ele>125</ele>
        <time>2022-02-28T16:42:56Z</time>
      </trkpt>
      <trkpt lat="49.54846" lon="-1.55597">
        <ele>124.6</ele>
        <time>2022-02-28T16:43:00Z</time>
      </trkpt>
      <trkpt lat="49.54842" lon="-1.55593">
        <ele>124.3</ele>
        <time>2022-02-28T16:43:05Z</time>
      </trkpt>
      <trkpt lat="49.54837" lon="-1.55588">
        <ele>124.1</ele>
        <time>2022-02-28T16:43:08Z</time>
      </trkpt>
      <trkpt lat="49.54832" lon="-1.55582">
        <ele>123.3</ele>
        <time>2022-02-28T16:43:13Z</time>
      </trkpt>
      <trkpt lat="49.54828" lon="-1.55577">
        <ele>122.8</ele>
        <time>2022-02-28T16:43:15Z</time>
      </trkpt>
      <trkpt lat="49.54824" lon="-1.55573">
        <ele>122</ele>
        <time>2022-02-28T16:43:19Z</time>
      </trkpt>
      <trkpt lat="49.54819" lon="-1.55567">
        <ele>121.2</ele>
        <time>2022-02-28T16:43:22Z</time>
      </trkpt>
      <trkpt lat="49.54815" lon="-1.55562">
        <ele>120.7</ele>
        <time>2022-02-28T16:43:25Z</time>
      </trkpt>
      <trkpt lat="49.5481" lon="-1.55557">
        <ele>120.2</ele>
        <time>2022-02-28T16:43:28Z</time>
      </trkpt>
      <trkpt lat="49.54806" lon="-1.55553">
        <ele>119.9</ele>
        <time>2022-02-28T16:43:31Z</time>
      </trkpt>
      <trkpt lat="49.54801" lon="-1.55551">
        <ele>119.3</ele>
        <time>2022-02-28T16:43:35Z</time>
      </trkpt>
      <trkpt lat="49.54796" lon="-1.55549">
        <ele>118.9</ele>
        <time>2022-02-28T16:43:38Z</time>
      </trkpt>
      <trkpt lat="49.54791" lon="-1.55547">
        <ele>118.4</ele>
        <time>2022-02-28T16:43:42Z</time>
      </trkpt>
      <trkpt lat="49.54785" lon="-1.55545">
        <ele>117.8</ele>
        <time>2022-02-28T16:43:46Z</time>
      </trkpt>
      <trkpt lat="49.5478" lon="-1.55542">
        <ele>117.1</ele>
        <time>2022-02-28T16:43:51Z</time>
      </trkpt>
      <trkpt lat="49.54775" lon="-1.55537">
        <ele>116.9</ele>
        <time>2022-02-28T16:43:55Z</time>
      </trkpt>
      <trkpt lat="49.5477" lon="-1.55533">
        <ele>116.8</ele>
        <time>2022-02-28T16:43:58Z</time>
      </trkpt>
      <trkpt lat="49.54765" lon="-1.55529">
        <ele>116.3</ele>
        <time>2022-02-28T16:44:06Z</time>
      </trkpt>
      <trkpt lat="49.5476" lon="-1.55525">
        <ele>115.8</ele>
        <time>2022-02-28T16:44:11Z</time>
      </trkpt>
      <trkpt lat="49.54756" lon="-1.55521">
        <ele>115.4</ele>
        <time>2022-02-28T16:44:14Z</time>
      </trkpt>
      <trkpt lat="49.54751" lon="-1.55517">
        <ele>115.1</ele>
        <time>2022-02-28T16:44:18Z</time>
      </trkpt>
      <trkpt lat="49.5474" lon="-1.55507">
        <ele>114</ele>
        <time>2022-02-28T16:44:27Z</time>
      </trkpt>
      <trkpt lat="49.54735" lon="-1.55504">
        <ele>113.6</ele>
        <time>2022-02-28T16:44:32Z</time>
      </trkpt>
      <trkpt lat="49.5473" lon="-1.55502">
        <ele>113.1</ele>
        <time>2022-02-28T16:44:37Z</time>
      </trkpt>
      <trkpt lat="49.54725" lon="-1.555">
        <ele>112.7</ele>
        <time>2022-02-28T16:44:41Z</time>
      </trkpt>
      <trkpt lat="49.54708" lon="-1.55486">
        <ele>110.9</ele>
        <time>2022-02-28T16:44:53Z</time>
      </trkpt>
      <trkpt lat="49.54702" lon="-1.55481">
        <ele>110.6</ele>
        <time>2022-02-28T16:44:56Z</time>
      </trkpt>
      <trkpt lat="49.54697" lon="-1.55476">
        <ele>110.4</ele>
        <time>2022-02-28T16:44:58Z</time>
      </trkpt>
      <trkpt lat="49.54693" lon="-1.55471">
        <ele>110.2</ele>
        <time>2022-02-28T16:45:00Z</time>
      </trkpt>
      <trkpt lat="49.54688" lon="-1.55465">
        <ele>109.9</ele>
        <time>2022-02-28T16:45:03Z</time>
      </trkpt>
      <trkpt lat="49.54682" lon="-1.55458">
        <ele>109.8</ele>
        <time>2022-02-28T16:45:06Z</time>
      </trkpt>
      <trkpt lat="49.54678" lon="-1.55454">
        <ele>109.9</ele>
        <time>2022-02-28T16:45:10Z</time>
      </trkpt>
      <trkpt lat="49.54673" lon="-1.55449">
        <ele>110</ele>
        <time>2022-02-28T16:45:14Z</time>
      </trkpt>
      <trkpt lat="49.54669" lon="-1.55448">
        <ele>109.8</ele>
        <time>2022-02-28T16:45:18Z</time>
      </trkpt>
      <trkpt lat="49.54664" lon="-1.55444">
        <ele>109.6</ele>
        <time>2022-02-28T16:45:22Z</time>
      </trkpt>
      <trkpt lat="49.54659" lon="-1.55438">
        <ele>109.5</ele>
        <time>2022-02-28T16:45:24Z</time>
      </trkpt>
      <trkpt lat="49.54656" lon="-1.55434">
        <ele>109.1</ele>
        <time>2022-02-28T16:45:26Z</time>
      </trkpt>
      <trkpt lat="49.54652" lon="-1.55429">
        <ele>108.6</ele>
        <time>2022-02-28T16:45:30Z</time>
      </trkpt>
      <trkpt lat="49.54649" lon="-1.55424">
        <ele>108</ele>
        <time>2022-02-28T16:45:33Z</time>
      </trkpt>
      <trkpt lat="49.54644" lon="-1.55421">
        <ele>107.9</ele>
        <time>2022-02-28T16:45:37Z</time>
      </trkpt>
      <trkpt lat="49.5464" lon="-1.55416">
        <ele>107.5</ele>
        <time>2022-02-28T16:45:43Z</time>
      </trkpt>
      <trkpt lat="49.54635" lon="-1.55414">
        <ele>106.7</ele>
        <time>2022-02-28T16:45:49Z</time>
      </trkpt>
      <trkpt lat="49.54629" lon="-1.55411">
        <ele>106.3</ele>
        <time>2022-02-28T16:45:52Z</time>
      </trkpt>
      <trkpt lat="49.54623" lon="-1.55408">
        <ele>105.9</ele>
        <time>2022-02-28T16:45:57Z</time>
      </trkpt>
      <trkpt lat="49.54604" lon="-1.55393">
        <ele>104.4</ele>
        <time>2022-02-28T16:46:09Z</time>
      </trkpt>
      <trkpt lat="49.54601" lon="-1.5539">
        <ele>104.1</ele>
        <time>2022-02-28T16:46:12Z</time>
      </trkpt>
      <trkpt lat="49.54594" lon="-1.55382">
        <ele>103.5</ele>
        <time>2022-02-28T16:46:19Z</time>
      </trkpt>
      <trkpt lat="49.5459" lon="-1.55378">
        <ele>102.9</ele>
        <time>2022-02-28T16:46:23Z</time>
      </trkpt>
      <trkpt lat="49.54585" lon="-1.55373">
        <ele>102.5</ele>
        <time>2022-02-28T16:46:27Z</time>
      </trkpt>
      <trkpt lat="49.54581" lon="-1.55367">
        <ele>102.1</ele>
        <time>2022-02-28T16:46:30Z</time>
      </trkpt>
      <trkpt lat="49.54577" lon="-1.55362">
        <ele>101.8</ele>
        <time>2022-02-28T16:46:36Z</time>
      </trkpt>
      <trkpt lat="49.54574" lon="-1.55356">
        <ele>101.2</ele>
        <time>2022-02-28T16:46:42Z</time>
      </trkpt>
      <trkpt lat="49.5457" lon="-1.5535">
        <ele>100.9</ele>
        <time>2022-02-28T16:46:46Z</time>
      </trkpt>
      <trkpt lat="49.54565" lon="-1.55345">
        <ele>100.5</ele>
        <time>2022-02-28T16:46:51Z</time>
      </trkpt>
      <trkpt lat="49.54561" lon="-1.55339">
        <ele>100.2</ele>
        <time>2022-02-28T16:46:54Z</time>
      </trkpt>
      <trkpt lat="49.54558" lon="-1.55333">
        <ele>99.5</ele>
        <time>2022-02-28T16:46:58Z</time>
      </trkpt>
      <trkpt lat="49.54553" lon="-1.55327">
        <ele>98.7</ele>
        <time>2022-02-28T16:47:02Z</time>
      </trkpt>
      <trkpt lat="49.54549" lon="-1.55322">
        <ele>98.3</ele>
        <time>2022-02-28T16:47:05Z</time>
      </trkpt>
      <trkpt lat="49.54544" lon="-1.55316">
        <ele>98</ele>
        <time>2022-02-28T16:47:09Z</time>
      </trkpt>
      <trkpt lat="49.54539" lon="-1.55311">
        <ele>97.9</ele>
        <time>2022-02-28T16:47:14Z</time>
      </trkpt>
      <trkpt lat="49.54507" lon="-1.5527">
        <ele>94.1</ele>
        <time>2022-02-28T16:47:41Z</time>
      </trkpt>
      <trkpt lat="49.54502" lon="-1.55267">
        <ele>93.7</ele>
        <time>2022-02-28T16:47:45Z</time>
      </trkpt>
      <trkpt lat="49.54498" lon="-1.55262">
        <ele>93.4</ele>
        <time>2022-02-28T16:47:48Z</time>
      </trkpt>
      <trkpt lat="49.54495" lon="-1.55255">
        <ele>92.9</ele>
        <time>2022-02-28T16:47:52Z</time>
      </trkpt>
      <trkpt lat="49.54491" lon="-1.55249">
        <ele>92.5</ele>
        <time>2022-02-28T16:47:55Z</time>
      </trkpt>
      <trkpt lat="49.54486" lon="-1.55245">
        <ele>92</ele>
        <time>2022-02-28T16:47:59Z</time>
      </trkpt>
      <trkpt lat="49.54481" lon="-1.5524">
        <ele>91.2</ele>
        <time>2022-02-28T16:48:03Z</time>
      </trkpt>
      <trkpt lat="49.54477" lon="-1.55236">
        <ele>90.8</ele>
        <time>2022-02-28T16:48:06Z</time>
      </trkpt>
      <trkpt lat="49.54473" lon="-1.55231">
        <ele>90.4</ele>
        <time>2022-02-28T16:48:11Z</time>
      </trkpt>
      <trkpt lat="49.54468" lon="-1.55227">
        <ele>90.1</ele>
        <time>2022-02-28T16:48:26Z</time>
      </trkpt>
      <trkpt lat="49.54462" lon="-1.55218">
        <ele>89.9</ele>
        <time>2022-02-28T16:48:30Z</time>
      </trkpt>
      <trkpt lat="49.54454" lon="-1.55208">
        <ele>89.5</ele>
        <time>2022-02-28T16:48:33Z</time>
      </trkpt>
      <trkpt lat="49.54447" lon="-1.552">
        <ele>89.6</ele>
        <time>2022-02-28T16:48:35Z</time>
      </trkpt>
      <trkpt lat="49.54442" lon="-1.55195">
        <ele>89.4</ele>
        <time>2022-02-28T16:48:37Z</time>
      </trkpt>
      <trkpt lat="49.54438" lon="-1.55189">
        <ele>88.4</ele>
        <time>2022-02-28T16:48:41Z</time>
      </trkpt>
      <trkpt lat="49.54438" lon="-1.55181">
        <ele>86.7</ele>
        <time>2022-02-28T16:48:45Z</time>
      </trkpt>
      <trkpt lat="49.54436" lon="-1.55175">
        <ele>85.4</ele>
        <time>2022-02-28T16:48:49Z</time>
      </trkpt>
      <trkpt lat="49.54433" lon="-1.55169">
        <ele>84.9</ele>
        <time>2022-02-28T16:48:55Z</time>
      </trkpt>
      <trkpt lat="49.5443" lon="-1.55162">
        <ele>85</ele>
        <time>2022-02-28T16:48:59Z</time>
      </trkpt>
      <trkpt lat="49.54427" lon="-1.55156">
        <ele>85.1</ele>
        <time>2022-02-28T16:49:02Z</time>
      </trkpt>
      <trkpt lat="49.54422" lon="-1.55149">
        <ele>84.7</ele>
        <time>2022-02-28T16:49:06Z</time>
      </trkpt>
      <trkpt lat="49.54416" lon="-1.55143">
        <ele>84.4</ele>
        <time>2022-02-28T16:49:09Z</time>
      </trkpt>
      <trkpt lat="49.54411" lon="-1.55138">
        <ele>84.4</ele>
        <time>2022-02-28T16:49:14Z</time>
      </trkpt>
      <trkpt lat="49.54407" lon="-1.55132">
        <ele>84.5</ele>
        <time>2022-02-28T16:49:18Z</time>
      </trkpt>
      <trkpt lat="49.54403" lon="-1.55124">
        <ele>85</ele>
        <time>2022-02-28T16:49:22Z</time>
      </trkpt>
      <trkpt lat="49.54401" lon="-1.55114">
        <ele>85.4</ele>
        <time>2022-02-28T16:49:26Z</time>
      </trkpt>
      <trkpt lat="49.54407" lon="-1.551">
        <ele>85.3</ele>
        <time>2022-02-28T16:49:32Z</time>
      </trkpt>
      <trkpt lat="49.54411" lon="-1.55094">
        <ele>85.2</ele>
        <time>2022-02-28T16:49:36Z</time>
      </trkpt>
      <trkpt lat="49.54414" lon="-1.55088">
        <ele>87.5</ele>
        <time>2022-02-28T16:50:00Z</time>
      </trkpt>
      <trkpt lat="49.54418" lon="-1.55083">
        <ele>87.6</ele>
        <time>2022-02-28T16:50:06Z</time>
      </trkpt>
      <trkpt lat="49.54421" lon="-1.55078">
        <ele>87.7</ele>
        <time>2022-02-28T16:50:09Z</time>
      </trkpt>
      <trkpt lat="49.54424" lon="-1.55072">
        <ele>87.8</ele>
        <time>2022-02-28T16:50:12Z</time>
      </trkpt>
      <trkpt lat="49.54429" lon="-1.55066">
        <ele>87.9</ele>
        <time>2022-02-28T16:50:16Z</time>
      </trkpt>
      <trkpt lat="49.54435" lon="-1.5506">
        <ele>88.1</ele>
        <time>2022-02-28T16:50:20Z</time>
      </trkpt>
      <trkpt lat="49.54442" lon="-1.55054">
        <ele>88.2</ele>
        <time>2022-02-28T16:50:23Z</time>
      </trkpt>
      <trkpt lat="49.54448" lon="-1.55049">
        <ele>88.4</ele>
        <time>2022-02-28T16:50:25Z</time>
      </trkpt>
      <trkpt lat="49.54453" lon="-1.55045">
        <ele>88.5</ele>
        <time>2022-02-28T16:50:27Z</time>
      </trkpt>
      <trkpt lat="49.5446" lon="-1.55039">
        <ele>89</ele>
        <time>2022-02-28T16:50:29Z</time>
      </trkpt>
      <trkpt lat="49.54466" lon="-1.55034">
        <ele>89.1</ele>
        <time>2022-02-28T16:50:31Z</time>
      </trkpt>
      <trkpt lat="49.54483" lon="-1.55023">
        <ele>87.9</ele>
        <time>2022-02-28T16:50:38Z</time>
      </trkpt>
      <trkpt lat="49.54489" lon="-1.55022">
        <ele>87.1</ele>
        <time>2022-02-28T16:50:42Z</time>
      </trkpt>
      <trkpt lat="49.54493" lon="-1.55019">
        <ele>87.7</ele>
        <time>2022-02-28T16:50:46Z</time>
      </trkpt>
      <trkpt lat="49.54498" lon="-1.55015">
        <ele>88.5</ele>
        <time>2022-02-28T16:50:51Z</time>
      </trkpt>
      <trkpt lat="49.54503" lon="-1.55013">
        <ele>88.6</ele>
        <time>2022-02-28T16:50:55Z</time>
      </trkpt>
      <trkpt lat="49.54507" lon="-1.5501">
        <ele>88.6</ele>
        <time>2022-02-28T16:51:01Z</time>
      </trkpt>
      <trkpt lat="49.54511" lon="-1.55005">
        <ele>88.6</ele>
        <time>2022-02-28T16:51:06Z</time>
      </trkpt>
      <trkpt lat="49.54515" lon="-1.54999">
        <ele>89</ele>
        <time>2022-02-28T16:51:12Z</time>
      </trkpt>
      <trkpt lat="49.54518" lon="-1.54994">
        <ele>90.5</ele>
        <time>2022-02-28T16:51:22Z</time>
      </trkpt>
      <trkpt lat="49.54522" lon="-1.54991">
        <ele>90.6</ele>
        <time>2022-02-28T16:51:26Z</time>
      </trkpt>
      <trkpt lat="49.54545" lon="-1.54967">
        <ele>90.6</ele>
        <time>2022-02-28T16:51:40Z</time>
      </trkpt>
      <trkpt lat="49.5455" lon="-1.54965">
        <ele>92</ele>
        <time>2022-02-28T16:51:46Z</time>
      </trkpt>
      <trkpt lat="49.54555" lon="-1.5496">
        <ele>93.5</ele>
        <time>2022-02-28T16:51:52Z</time>
      </trkpt>
      <trkpt lat="49.54559" lon="-1.54957">
        <ele>93.6</ele>
        <time>2022-02-28T16:51:55Z</time>
      </trkpt>
      <trkpt lat="49.54564" lon="-1.54954">
        <ele>93.6</ele>
        <time>2022-02-28T16:51:58Z</time>
      </trkpt>
      <trkpt lat="49.54576" lon="-1.5495">
        <ele>93.4</ele>
        <time>2022-02-28T16:52:05Z</time>
      </trkpt>
      <trkpt lat="49.5458" lon="-1.54947">
        <ele>93.5</ele>
        <time>2022-02-28T16:52:08Z</time>
      </trkpt>
      <trkpt lat="49.54584" lon="-1.54944">
        <ele>93.5</ele>
        <time>2022-02-28T16:52:11Z</time>
      </trkpt>
      <trkpt lat="49.54589" lon="-1.5494">
        <ele>93.6</ele>
        <time>2022-02-28T16:52:14Z</time>
      </trkpt>
      <trkpt lat="49.54593" lon="-1.54936">
        <ele>93.9</ele>
        <time>2022-02-28T16:52:18Z</time>
      </trkpt>
      <trkpt lat="49.54598" lon="-1.54931">
        <ele>94.5</ele>
        <time>2022-02-28T16:52:21Z</time>
      </trkpt>
      <trkpt lat="49.54601" lon="-1.54925">
        <ele>95.2</ele>
        <time>2022-02-28T16:52:25Z</time>
      </trkpt>
      <trkpt lat="49.54601" lon="-1.54918">
        <ele>96.8</ele>
        <time>2022-02-28T16:52:38Z</time>
      </trkpt>
      <trkpt lat="49.54599" lon="-1.5491">
        <ele>97.1</ele>
        <time>2022-02-28T16:52:43Z</time>
      </trkpt>
      <trkpt lat="49.54597" lon="-1.549">
        <ele>97.7</ele>
        <time>2022-02-28T16:52:46Z</time>
      </trkpt>
      <trkpt lat="49.54594" lon="-1.54871">
        <ele>99.2</ele>
        <time>2022-02-28T16:52:51Z</time>
      </trkpt>
      <trkpt lat="49.54591" lon="-1.54865">
        <ele>99.3</ele>
        <time>2022-02-28T16:52:53Z</time>
      </trkpt>
      <trkpt lat="49.54588" lon="-1.5486">
        <ele>99.2</ele>
        <time>2022-02-28T16:52:57Z</time>
      </trkpt>
      <trkpt lat="49.54584" lon="-1.54854">
        <ele>99.5</ele>
        <time>2022-02-28T16:53:14Z</time>
      </trkpt>
      <trkpt lat="49.54583" lon="-1.54846">
        <ele>99.6</ele>
        <time>2022-02-28T16:53:18Z</time>
      </trkpt>
      <trkpt lat="49.5458" lon="-1.54838">
        <ele>99.5</ele>
        <time>2022-02-28T16:53:23Z</time>
      </trkpt>
      <trkpt lat="49.54577" lon="-1.5483">
        <ele>99.4</ele>
        <time>2022-02-28T16:53:27Z</time>
      </trkpt>
      <trkpt lat="49.54574" lon="-1.54823">
        <ele>99.6</ele>
        <time>2022-02-28T16:53:32Z</time>
      </trkpt>
      <trkpt lat="49.54571" lon="-1.54817">
        <ele>99.8</ele>
        <time>2022-02-28T16:53:35Z</time>
      </trkpt>
      <trkpt lat="49.54568" lon="-1.54809">
        <ele>100.1</ele>
        <time>2022-02-28T16:53:39Z</time>
      </trkpt>
      <trkpt lat="49.54565" lon="-1.54801">
        <ele>100.1</ele>
        <time>2022-02-28T16:53:43Z</time>
      </trkpt>
      <trkpt lat="49.54562" lon="-1.54793">
        <ele>100</ele>
        <time>2022-02-28T16:53:48Z</time>
      </trkpt>
      <trkpt lat="49.54559" lon="-1.54785">
        <ele>99.9</ele>
        <time>2022-02-28T16:53:52Z</time>
      </trkpt>
      <trkpt lat="49.54556" lon="-1.54778">
        <ele>99.7</ele>
        <time>2022-02-28T16:53:56Z</time>
      </trkpt>
      <trkpt lat="49.54553" lon="-1.5477">
        <ele>99.6</ele>
        <time>2022-02-28T16:54:00Z</time>
      </trkpt>
      <trkpt lat="49.5455" lon="-1.54765">
        <ele>99.3</ele>
        <time>2022-02-28T16:54:04Z</time>
      </trkpt>
      <trkpt lat="49.54547" lon="-1.54759">
        <ele>99.2</ele>
        <time>2022-02-28T16:54:07Z</time>
      </trkpt>
      <trkpt lat="49.54545" lon="-1.54753">
        <ele>99</ele>
        <time>2022-02-28T16:54:10Z</time>
      </trkpt>
      <trkpt lat="49.54542" lon="-1.54746">
        <ele>98.5</ele>
        <time>2022-02-28T16:54:15Z</time>
      </trkpt>
      <trkpt lat="49.5454" lon="-1.54739">
        <ele>97.4</ele>
        <time>2022-02-28T16:54:22Z</time>
      </trkpt>
      <trkpt lat="49.54537" lon="-1.54732">
        <ele>97.2</ele>
        <time>2022-02-28T16:54:25Z</time>
      </trkpt>
      <trkpt lat="49.54536" lon="-1.54724">
        <ele>97.1</ele>
        <time>2022-02-28T16:54:30Z</time>
      </trkpt>
      <trkpt lat="49.54534" lon="-1.54717">
        <ele>97.3</ele>
        <time>2022-02-28T16:54:33Z</time>
      </trkpt>
      <trkpt lat="49.54531" lon="-1.5471">
        <ele>97.2</ele>
        <time>2022-02-28T16:54:36Z</time>
      </trkpt>
      <trkpt lat="49.54528" lon="-1.54703">
        <ele>97</ele>
        <time>2022-02-28T16:54:40Z</time>
      </trkpt>
      <trkpt lat="49.54525" lon="-1.54697">
        <ele>96.5</ele>
        <time>2022-02-28T16:54:43Z</time>
      </trkpt>
      <trkpt lat="49.54523" lon="-1.5469">
        <ele>96.3</ele>
        <time>2022-02-28T16:54:46Z</time>
      </trkpt>
      <trkpt lat="49.5452" lon="-1.54684">
        <ele>96.1</ele>
        <time>2022-02-28T16:54:50Z</time>
      </trkpt>
      <trkpt lat="49.54516" lon="-1.54676">
        <ele>95.9</ele>
        <time>2022-02-28T16:54:53Z</time>
      </trkpt>
      <trkpt lat="49.54513" lon="-1.5467">
        <ele>95.7</ele>
        <time>2022-02-28T16:54:56Z</time>
      </trkpt>
      <trkpt lat="49.5451" lon="-1.54662">
        <ele>95.5</ele>
        <time>2022-02-28T16:55:00Z</time>
      </trkpt>
      <trkpt lat="49.54507" lon="-1.54656">
        <ele>95</ele>
        <time>2022-02-28T16:55:04Z</time>
      </trkpt>
      <trkpt lat="49.54503" lon="-1.5465">
        <ele>94.2</ele>
        <time>2022-02-28T16:55:09Z</time>
      </trkpt>
      <trkpt lat="49.545" lon="-1.54644">
        <ele>93.8</ele>
        <time>2022-02-28T16:55:12Z</time>
      </trkpt>
      <trkpt lat="49.54497" lon="-1.54638">
        <ele>93.3</ele>
        <time>2022-02-28T16:55:16Z</time>
      </trkpt>
      <trkpt lat="49.54494" lon="-1.5463">
        <ele>92.7</ele>
        <time>2022-02-28T16:55:20Z</time>
      </trkpt>
      <trkpt lat="49.5449" lon="-1.54625">
        <ele>92.5</ele>
        <time>2022-02-28T16:55:23Z</time>
      </trkpt>
      <trkpt lat="49.54486" lon="-1.54617">
        <ele>92.3</ele>
        <time>2022-02-28T16:55:28Z</time>
      </trkpt>
      <trkpt lat="49.54484" lon="-1.54611">
        <ele>92</ele>
        <time>2022-02-28T16:55:31Z</time>
      </trkpt>
      <trkpt lat="49.5448" lon="-1.54604">
        <ele>91.5</ele>
        <time>2022-02-28T16:55:35Z</time>
      </trkpt>
      <trkpt lat="49.54476" lon="-1.54598">
        <ele>90.3</ele>
        <time>2022-02-28T16:55:40Z</time>
      </trkpt>
      <trkpt lat="49.54475" lon="-1.5459">
        <ele>89.6</ele>
        <time>2022-02-28T16:55:43Z</time>
      </trkpt>
      <trkpt lat="49.54475" lon="-1.54582">
        <ele>89.4</ele>
        <time>2022-02-28T16:55:49Z</time>
      </trkpt>
      <trkpt lat="49.54477" lon="-1.54574">
        <ele>89.6</ele>
        <time>2022-02-28T16:56:01Z</time>
      </trkpt>
      <trkpt lat="49.54479" lon="-1.54564">
        <ele>89.3</ele>
        <time>2022-02-28T16:56:04Z</time>
      </trkpt>
      <trkpt lat="49.54479" lon="-1.54556">
        <ele>88.9</ele>
        <time>2022-02-28T16:56:07Z</time>
      </trkpt>
      <trkpt lat="49.54479" lon="-1.54549">
        <ele>88.6</ele>
        <time>2022-02-28T16:56:11Z</time>
      </trkpt>
      <trkpt lat="49.5448" lon="-1.5454">
        <ele>88.5</ele>
        <time>2022-02-28T16:56:15Z</time>
      </trkpt>
      <trkpt lat="49.54481" lon="-1.54531">
        <ele>88.4</ele>
        <time>2022-02-28T16:56:20Z</time>
      </trkpt>
      <trkpt lat="49.54482" lon="-1.54524">
        <ele>88.3</ele>
        <time>2022-02-28T16:56:23Z</time>
      </trkpt>
      <trkpt lat="49.54483" lon="-1.54517">
        <ele>88.1</ele>
        <time>2022-02-28T16:56:27Z</time>
      </trkpt>
      <trkpt lat="49.54485" lon="-1.5451">
        <ele>88.1</ele>
        <time>2022-02-28T16:56:32Z</time>
      </trkpt>
      <trkpt lat="49.54486" lon="-1.54501">
        <ele>88.1</ele>
        <time>2022-02-28T16:56:36Z</time>
      </trkpt>
      <trkpt lat="49.54488" lon="-1.54478">
        <ele>86.8</ele>
        <time>2022-02-28T16:56:49Z</time>
      </trkpt>
      <trkpt lat="49.54483" lon="-1.54473">
        <ele>86.1</ele>
        <time>2022-02-28T16:57:20Z</time>
      </trkpt>
      <trkpt lat="49.54478" lon="-1.5447">
        <ele>85.8</ele>
        <time>2022-02-28T16:57:24Z</time>
      </trkpt>
      <trkpt lat="49.54473" lon="-1.54468">
        <ele>85.5</ele>
        <time>2022-02-28T16:57:29Z</time>
      </trkpt>
      <trkpt lat="49.54469" lon="-1.54464">
        <ele>85.1</ele>
        <time>2022-02-28T16:57:33Z</time>
      </trkpt>
      <trkpt lat="49.54466" lon="-1.54458">
        <ele>84.7</ele>
        <time>2022-02-28T16:57:44Z</time>
      </trkpt>
      <trkpt lat="49.54462" lon="-1.54451">
        <ele>84.6</ele>
        <time>2022-02-28T16:57:49Z</time>
      </trkpt>
      <trkpt lat="49.54459" lon="-1.54444">
        <ele>84.2</ele>
        <time>2022-02-28T16:57:52Z</time>
      </trkpt>
      <trkpt lat="49.54457" lon="-1.54437">
        <ele>84</ele>
        <time>2022-02-28T16:57:55Z</time>
      </trkpt>
      <trkpt lat="49.54454" lon="-1.54431">
        <ele>83.8</ele>
        <time>2022-02-28T16:57:59Z</time>
      </trkpt>
      <trkpt lat="49.5445" lon="-1.54427">
        <ele>83.1</ele>
        <time>2022-02-28T16:58:02Z</time>
      </trkpt>
      <trkpt lat="49.54447" lon="-1.54422">
        <ele>82.4</ele>
        <time>2022-02-28T16:58:06Z</time>
      </trkpt>
      <trkpt lat="49.54443" lon="-1.54417">
        <ele>81.7</ele>
        <time>2022-02-28T16:58:09Z</time>
      </trkpt>
      <trkpt lat="49.54439" lon="-1.54414">
        <ele>81.5</ele>
        <time>2022-02-28T16:58:12Z</time>
      </trkpt>
      <trkpt lat="49.54435" lon="-1.54409">
        <ele>81.3</ele>
        <time>2022-02-28T16:58:16Z</time>
      </trkpt>
      <trkpt lat="49.54431" lon="-1.54401">
        <ele>80.7</ele>
        <time>2022-02-28T16:58:20Z</time>
      </trkpt>
      <trkpt lat="49.5443" lon="-1.54393">
        <ele>80.1</ele>
        <time>2022-02-28T16:58:26Z</time>
      </trkpt>
      <trkpt lat="49.54426" lon="-1.54389">
        <ele>79.9</ele>
        <time>2022-02-28T16:58:30Z</time>
      </trkpt>
      <trkpt lat="49.54418" lon="-1.54385">
        <ele>79.7</ele>
        <time>2022-02-28T16:58:36Z</time>
      </trkpt>
      <trkpt lat="49.54412" lon="-1.54386">
        <ele>79.5</ele>
        <time>2022-02-28T16:58:40Z</time>
      </trkpt>
      <trkpt lat="49.54408" lon="-1.54389">
        <ele>79.3</ele>
        <time>2022-02-28T16:59:11Z</time>
      </trkpt>
      <trkpt lat="49.54404" lon="-1.54394">
        <ele>78.8</ele>
        <time>2022-02-28T16:59:16Z</time>
      </trkpt>
      <trkpt lat="49.544" lon="-1.54399">
        <ele>78.7</ele>
        <time>2022-02-28T16:59:22Z</time>
      </trkpt>
      <trkpt lat="49.54396" lon="-1.54405">
        <ele>78.7</ele>
        <time>2022-02-28T16:59:26Z</time>
      </trkpt>
      <trkpt lat="49.54393" lon="-1.54412">
        <ele>79</ele>
        <time>2022-02-28T16:59:31Z</time>
      </trkpt>
      <trkpt lat="49.54396" lon="-1.54418">
        <ele>79.4</ele>
        <time>2022-02-28T17:01:25Z</time>
      </trkpt>
      <trkpt lat="49.54391" lon="-1.54422">
        <ele>78.8</ele>
        <time>2022-02-28T17:01:34Z</time>
      </trkpt>
      <trkpt lat="49.54386" lon="-1.54422">
        <ele>78.6</ele>
        <time>2022-02-28T17:01:37Z</time>
      </trkpt>
      <trkpt lat="49.54381" lon="-1.54422">
        <ele>78.5</ele>
        <time>2022-02-28T17:01:43Z</time>
      </trkpt>
      <trkpt lat="49.54376" lon="-1.5442">
        <ele>78.6</ele>
        <time>2022-02-28T17:01:50Z</time>
      </trkpt>
      <trkpt lat="49.54372" lon="-1.54417">
        <ele>79.8</ele>
        <time>2022-02-28T17:02:16Z</time>
      </trkpt>
      <trkpt lat="49.54367" lon="-1.54413">
        <ele>80</ele>
        <time>2022-02-28T17:02:21Z</time>
      </trkpt>
      <trkpt lat="49.54363" lon="-1.54409">
        <ele>80.2</ele>
        <time>2022-02-28T17:02:24Z</time>
      </trkpt>
      <trkpt lat="49.54359" lon="-1.54403">
        <ele>80.5</ele>
        <time>2022-02-28T17:02:27Z</time>
      </trkpt>
      <trkpt lat="49.54351" lon="-1.54388">
        <ele>81.2</ele>
        <time>2022-02-28T17:02:34Z</time>
      </trkpt>
      <trkpt lat="49.54348" lon="-1.54382">
        <ele>81.4</ele>
        <time>2022-02-28T17:02:37Z</time>
      </trkpt>
      <trkpt lat="49.54345" lon="-1.54377">
        <ele>81.6</ele>
        <time>2022-02-28T17:02:41Z</time>
      </trkpt>
      <trkpt lat="49.54342" lon="-1.54371">
        <ele>81.7</ele>
        <time>2022-02-28T17:02:44Z</time>
      </trkpt>
      <trkpt lat="49.54339" lon="-1.54366">
        <ele>81.9</ele>
        <time>2022-02-28T17:02:47Z</time>
      </trkpt>
      <trkpt lat="49.54335" lon="-1.5436">
        <ele>82</ele>
        <time>2022-02-28T17:02:51Z</time>
      </trkpt>
      <trkpt lat="49.54323" lon="-1.5434">
        <ele>82</ele>
        <time>2022-02-28T17:02:57Z</time>
      </trkpt>
      <trkpt lat="49.5432" lon="-1.54335">
        <ele>82</ele>
        <time>2022-02-28T17:03:00Z</time>
      </trkpt>
      <trkpt lat="49.54316" lon="-1.54327">
        <ele>82.1</ele>
        <time>2022-02-28T17:03:03Z</time>
      </trkpt>
      <trkpt lat="49.54312" lon="-1.5432">
        <ele>82.1</ele>
        <time>2022-02-28T17:03:06Z</time>
      </trkpt>
      <trkpt lat="49.54309" lon="-1.54313">
        <ele>82</ele>
        <time>2022-02-28T17:03:09Z</time>
      </trkpt>
      <trkpt lat="49.54306" lon="-1.54307">
        <ele>81.9</ele>
        <time>2022-02-28T17:03:11Z</time>
      </trkpt>
      <trkpt lat="49.54303" lon="-1.54301">
        <ele>82</ele>
        <time>2022-02-28T17:03:15Z</time>
      </trkpt>
      <trkpt lat="49.543" lon="-1.54294">
        <ele>82.2</ele>
        <time>2022-02-28T17:03:18Z</time>
      </trkpt>
      <trkpt lat="49.54296" lon="-1.54288">
        <ele>82.5</ele>
        <time>2022-02-28T17:03:22Z</time>
      </trkpt>
      <trkpt lat="49.54293" lon="-1.54279">
        <ele>82.6</ele>
        <time>2022-02-28T17:03:26Z</time>
      </trkpt>
      <trkpt lat="49.5429" lon="-1.54274">
        <ele>82.7</ele>
        <time>2022-02-28T17:03:30Z</time>
      </trkpt>
      <trkpt lat="49.54286" lon="-1.54267">
        <ele>82.6</ele>
        <time>2022-02-28T17:03:35Z</time>
      </trkpt>
      <trkpt lat="49.54283" lon="-1.5426">
        <ele>82.5</ele>
        <time>2022-02-28T17:03:39Z</time>
      </trkpt>
      <trkpt lat="49.5428" lon="-1.54254">
        <ele>82.4</ele>
        <time>2022-02-28T17:03:42Z</time>
      </trkpt>
      <trkpt lat="49.54276" lon="-1.5425">
        <ele>82</ele>
        <time>2022-02-28T17:04:06Z</time>
      </trkpt>
      <trkpt lat="49.54274" lon="-1.54244">
        <ele>81.9</ele>
        <time>2022-02-28T17:04:09Z</time>
      </trkpt>
      <trkpt lat="49.54272" lon="-1.54237">
        <ele>81.8</ele>
        <time>2022-02-28T17:04:13Z</time>
      </trkpt>
      <trkpt lat="49.54269" lon="-1.5423">
        <ele>81.6</ele>
        <time>2022-02-28T17:04:17Z</time>
      </trkpt>
      <trkpt lat="49.54266" lon="-1.54224">
        <ele>81.3</ele>
        <time>2022-02-28T17:04:24Z</time>
      </trkpt>
      <trkpt lat="49.54263" lon="-1.54219">
        <ele>81.3</ele>
        <time>2022-02-28T17:04:28Z</time>
      </trkpt>
      <trkpt lat="49.54259" lon="-1.54212">
        <ele>81.3</ele>
        <time>2022-02-28T17:04:32Z</time>
      </trkpt>
      <trkpt lat="49.54256" lon="-1.54205">
        <ele>81.3</ele>
        <time>2022-02-28T17:04:39Z</time>
      </trkpt>
      <trkpt lat="49.54253" lon="-1.54199">
        <ele>81.3</ele>
        <time>2022-02-28T17:04:43Z</time>
      </trkpt>
      <trkpt lat="49.5425" lon="-1.54194">
        <ele>81.3</ele>
        <time>2022-02-28T17:04:47Z</time>
      </trkpt>
      <trkpt lat="49.54246" lon="-1.54189">
        <ele>81.2</ele>
        <time>2022-02-28T17:04:50Z</time>
      </trkpt>
      <trkpt lat="49.54242" lon="-1.54183">
        <ele>81</ele>
        <time>2022-02-28T17:04:54Z</time>
      </trkpt>
      <trkpt lat="49.54239" lon="-1.54177">
        <ele>80.3</ele>
        <time>2022-02-28T17:04:59Z</time>
      </trkpt>
      <trkpt lat="49.54237" lon="-1.54171">
        <ele>79.7</ele>
        <time>2022-02-28T17:05:03Z</time>
      </trkpt>
      <trkpt lat="49.54234" lon="-1.54164">
        <ele>79.2</ele>
        <time>2022-02-28T17:05:08Z</time>
      </trkpt>
      <trkpt lat="49.54231" lon="-1.54158">
        <ele>79.1</ele>
        <time>2022-02-28T17:05:13Z</time>
      </trkpt>
      <trkpt lat="49.54228" lon="-1.54152">
        <ele>79</ele>
        <time>2022-02-28T17:05:35Z</time>
      </trkpt>
      <trkpt lat="49.54228" lon="-1.54145">
        <ele>78.7</ele>
        <time>2022-02-28T17:05:37Z</time>
      </trkpt>
      <trkpt lat="49.54227" lon="-1.54137">
        <ele>78.4</ele>
        <time>2022-02-28T17:05:40Z</time>
      </trkpt>
      <trkpt lat="49.54228" lon="-1.5413">
        <ele>78.2</ele>
        <time>2022-02-28T17:05:42Z</time>
      </trkpt>
      <trkpt lat="49.54227" lon="-1.54122">
        <ele>78.1</ele>
        <time>2022-02-28T17:05:45Z</time>
      </trkpt>
      <trkpt lat="49.54226" lon="-1.54115">
        <ele>78.1</ele>
        <time>2022-02-28T17:05:49Z</time>
      </trkpt>
      <trkpt lat="49.54225" lon="-1.54107">
        <ele>78.1</ele>
        <time>2022-02-28T17:05:53Z</time>
      </trkpt>
      <trkpt lat="49.54224" lon="-1.541">
        <ele>78.2</ele>
        <time>2022-02-28T17:05:56Z</time>
      </trkpt>
      <trkpt lat="49.54222" lon="-1.54091">
        <ele>78.1</ele>
        <time>2022-02-28T17:06:00Z</time>
      </trkpt>
      <trkpt lat="49.54219" lon="-1.54084">
        <ele>78.2</ele>
        <time>2022-02-28T17:06:05Z</time>
      </trkpt>
      <trkpt lat="49.54216" lon="-1.54077">
        <ele>78.5</ele>
        <time>2022-02-28T17:06:09Z</time>
      </trkpt>
      <trkpt lat="49.54215" lon="-1.5407">
        <ele>79.2</ele>
        <time>2022-02-28T17:06:27Z</time>
      </trkpt>
      <trkpt lat="49.54212" lon="-1.54062">
        <ele>78.9</ele>
        <time>2022-02-28T17:06:30Z</time>
      </trkpt>
      <trkpt lat="49.5421" lon="-1.54055">
        <ele>78.7</ele>
        <time>2022-02-28T17:06:33Z</time>
      </trkpt>
      <trkpt lat="49.54209" lon="-1.54049">
        <ele>78.5</ele>
        <time>2022-02-28T17:06:36Z</time>
      </trkpt>
      <trkpt lat="49.54207" lon="-1.54042">
        <ele>78</ele>
        <time>2022-02-28T17:06:41Z</time>
      </trkpt>
      <trkpt lat="49.54205" lon="-1.54035">
        <ele>77.3</ele>
        <time>2022-02-28T17:06:46Z</time>
      </trkpt>
      <trkpt lat="49.54203" lon="-1.54028">
        <ele>77.1</ele>
        <time>2022-02-28T17:06:50Z</time>
      </trkpt>
      <trkpt lat="49.54201" lon="-1.54019">
        <ele>77</ele>
        <time>2022-02-28T17:06:54Z</time>
      </trkpt>
      <trkpt lat="49.54201" lon="-1.54012">
        <ele>77</ele>
        <time>2022-02-28T17:06:58Z</time>
      </trkpt>
      <trkpt lat="49.54201" lon="-1.54005">
        <ele>76.9</ele>
        <time>2022-02-28T17:07:02Z</time>
      </trkpt>
      <trkpt lat="49.542" lon="-1.53997">
        <ele>77</ele>
        <time>2022-02-28T17:07:06Z</time>
      </trkpt>
      <trkpt lat="49.542" lon="-1.53987">
        <ele>77.1</ele>
        <time>2022-02-28T17:07:11Z</time>
      </trkpt>
      <trkpt lat="49.54205" lon="-1.53985">
        <ele>77.1</ele>
        <time>2022-02-28T17:07:16Z</time>
      </trkpt>
      <trkpt lat="49.54211" lon="-1.53982">
        <ele>77</ele>
        <time>2022-02-28T17:07:20Z</time>
      </trkpt>
      <trkpt lat="49.54215" lon="-1.53976">
        <ele>76.5</ele>
        <time>2022-02-28T17:07:23Z</time>
      </trkpt>
      <trkpt lat="49.54217" lon="-1.5397">
        <ele>76</ele>
        <time>2022-02-28T17:07:26Z</time>
      </trkpt>
      <trkpt lat="49.54218" lon="-1.5396">
        <ele>75.6</ele>
        <time>2022-02-28T17:07:30Z</time>
      </trkpt>
      <trkpt lat="49.54215" lon="-1.53955">
        <ele>74.6</ele>
        <time>2022-02-28T17:07:35Z</time>
      </trkpt>
      <trkpt lat="49.54214" lon="-1.53947">
        <ele>74.3</ele>
        <time>2022-02-28T17:07:42Z</time>
      </trkpt>
      <trkpt lat="49.54213" lon="-1.5394">
        <ele>75</ele>
        <time>2022-02-28T17:07:52Z</time>
      </trkpt>
      <trkpt lat="49.54211" lon="-1.53933">
        <ele>74.5</ele>
        <time>2022-02-28T17:07:59Z</time>
      </trkpt>
      <trkpt lat="49.5421" lon="-1.53925">
        <ele>74.4</ele>
        <time>2022-02-28T17:08:01Z</time>
      </trkpt>
      <trkpt lat="49.54206" lon="-1.5389">
        <ele>71.2</ele>
        <time>2022-02-28T17:08:09Z</time>
      </trkpt>
      <trkpt lat="49.54206" lon="-1.53883">
        <ele>69.6</ele>
        <time>2022-02-28T17:08:13Z</time>
      </trkpt>
      <trkpt lat="49.54207" lon="-1.53874">
        <ele>69.6</ele>
        <time>2022-02-28T17:08:18Z</time>
      </trkpt>
      <trkpt lat="49.54207" lon="-1.53864">
        <ele>70</ele>
        <time>2022-02-28T17:08:23Z</time>
      </trkpt>
      <trkpt lat="49.54209" lon="-1.53856">
        <ele>69.6</ele>
        <time>2022-02-28T17:08:27Z</time>
      </trkpt>
      <trkpt lat="49.54213" lon="-1.5385">
        <ele>69.1</ele>
        <time>2022-02-28T17:08:30Z</time>
      </trkpt>
      <trkpt lat="49.54216" lon="-1.53844">
        <ele>68.5</ele>
        <time>2022-02-28T17:08:34Z</time>
      </trkpt>
      <trkpt lat="49.5422" lon="-1.5384">
        <ele>68.4</ele>
        <time>2022-02-28T17:08:37Z</time>
      </trkpt>
      <trkpt lat="49.54224" lon="-1.53835">
        <ele>68.4</ele>
        <time>2022-02-28T17:08:41Z</time>
      </trkpt>
      <trkpt lat="49.54228" lon="-1.53831">
        <ele>68.5</ele>
        <time>2022-02-28T17:08:45Z</time>
      </trkpt>
      <trkpt lat="49.54232" lon="-1.53827">
        <ele>68.7</ele>
        <time>2022-02-28T17:08:51Z</time>
      </trkpt>
      <trkpt lat="49.54236" lon="-1.53825">
        <ele>70.1</ele>
        <time>2022-02-28T17:09:26Z</time>
      </trkpt>
      <trkpt lat="49.54239" lon="-1.53818">
        <ele>69.5</ele>
        <time>2022-02-28T17:09:50Z</time>
      </trkpt>
      <trkpt lat="49.5424" lon="-1.5381">
        <ele>69.3</ele>
        <time>2022-02-28T17:09:58Z</time>
      </trkpt>
      <trkpt lat="49.54242" lon="-1.53803">
        <ele>70.2</ele>
        <time>2022-02-28T17:10:10Z</time>
      </trkpt>
      <trkpt lat="49.54243" lon="-1.53796">
        <ele>70.4</ele>
        <time>2022-02-28T17:10:15Z</time>
      </trkpt>
      <trkpt lat="49.54243" lon="-1.53784">
        <ele>70.5</ele>
        <time>2022-02-28T17:10:20Z</time>
      </trkpt>
      <trkpt lat="49.54243" lon="-1.53774">
        <ele>70.3</ele>
        <time>2022-02-28T17:10:23Z</time>
      </trkpt>
      <trkpt lat="49.54242" lon="-1.53763">
        <ele>70.2</ele>
        <time>2022-02-28T17:10:26Z</time>
      </trkpt>
      <trkpt lat="49.54243" lon="-1.53755">
        <ele>70.2</ele>
        <time>2022-02-28T17:10:31Z</time>
      </trkpt>
      <trkpt lat="49.54244" lon="-1.53748">
        <ele>70.9</ele>
        <time>2022-02-28T17:10:36Z</time>
      </trkpt>
      <trkpt lat="49.54244" lon="-1.53741">
        <ele>73.3</ele>
        <time>2022-02-28T17:10:59Z</time>
      </trkpt>
      <trkpt lat="49.54244" lon="-1.53734">
        <ele>73.4</ele>
        <time>2022-02-28T17:11:10Z</time>
      </trkpt>
      <trkpt lat="49.54244" lon="-1.53725">
        <ele>73.8</ele>
        <time>2022-02-28T17:11:20Z</time>
      </trkpt>
      <trkpt lat="49.54245" lon="-1.53716">
        <ele>73.9</ele>
        <time>2022-02-28T17:11:23Z</time>
      </trkpt>
      <trkpt lat="49.54248" lon="-1.5371">
        <ele>74.2</ele>
        <time>2022-02-28T17:11:26Z</time>
      </trkpt>
      <trkpt lat="49.54251" lon="-1.53704">
        <ele>74.5</ele>
        <time>2022-02-28T17:11:30Z</time>
      </trkpt>
      <trkpt lat="49.54254" lon="-1.53696">
        <ele>74.9</ele>
        <time>2022-02-28T17:11:33Z</time>
      </trkpt>
      <trkpt lat="49.54256" lon="-1.53689">
        <ele>75.3</ele>
        <time>2022-02-28T17:11:36Z</time>
      </trkpt>
      <trkpt lat="49.5426" lon="-1.53682">
        <ele>75.8</ele>
        <time>2022-02-28T17:11:41Z</time>
      </trkpt>
      <trkpt lat="49.54264" lon="-1.53676">
        <ele>76.7</ele>
        <time>2022-02-28T17:11:45Z</time>
      </trkpt>
      <trkpt lat="49.54268" lon="-1.53671">
        <ele>77.6</ele>
        <time>2022-02-28T17:11:51Z</time>
      </trkpt>
      <trkpt lat="49.54274" lon="-1.53669">
        <ele>77.7</ele>
        <time>2022-02-28T17:11:56Z</time>
      </trkpt>
      <trkpt lat="49.54279" lon="-1.53666">
        <ele>77.7</ele>
        <time>2022-02-28T17:11:59Z</time>
      </trkpt>
      <trkpt lat="49.54286" lon="-1.53662">
        <ele>77.7</ele>
        <time>2022-02-28T17:12:03Z</time>
      </trkpt>
      <trkpt lat="49.54291" lon="-1.53658">
        <ele>77.8</ele>
        <time>2022-02-28T17:12:06Z</time>
      </trkpt>
      <trkpt lat="49.54299" lon="-1.53651">
        <ele>77.8</ele>
        <time>2022-02-28T17:12:12Z</time>
      </trkpt>
      <trkpt lat="49.54304" lon="-1.53648">
        <ele>78</ele>
        <time>2022-02-28T17:12:16Z</time>
      </trkpt>
      <trkpt lat="49.54308" lon="-1.53645">
        <ele>78.1</ele>
        <time>2022-02-28T17:12:19Z</time>
      </trkpt>
      <trkpt lat="49.54314" lon="-1.53641">
        <ele>78.3</ele>
        <time>2022-02-28T17:12:23Z</time>
      </trkpt>
      <trkpt lat="49.54319" lon="-1.53637">
        <ele>78.6</ele>
        <time>2022-02-28T17:12:27Z</time>
      </trkpt>
      <trkpt lat="49.54323" lon="-1.53634">
        <ele>78.9</ele>
        <time>2022-02-28T17:12:30Z</time>
      </trkpt>
      <trkpt lat="49.54328" lon="-1.5363">
        <ele>79.1</ele>
        <time>2022-02-28T17:12:34Z</time>
      </trkpt>
      <trkpt lat="49.54332" lon="-1.53623">
        <ele>79.4</ele>
        <time>2022-02-28T17:12:38Z</time>
      </trkpt>
      <trkpt lat="49.54332" lon="-1.53615">
        <ele>80.2</ele>
        <time>2022-02-28T17:12:43Z</time>
      </trkpt>
      <trkpt lat="49.54332" lon="-1.53608">
        <ele>80.5</ele>
        <time>2022-02-28T17:12:46Z</time>
      </trkpt>
      <trkpt lat="49.54331" lon="-1.53601">
        <ele>80.5</ele>
        <time>2022-02-28T17:12:49Z</time>
      </trkpt>
      <trkpt lat="49.5433" lon="-1.53592">
        <ele>80.1</ele>
        <time>2022-02-28T17:12:52Z</time>
      </trkpt>
      <trkpt lat="49.54325" lon="-1.53587">
        <ele>79.5</ele>
        <time>2022-02-28T17:12:57Z</time>
      </trkpt>
      <trkpt lat="49.54321" lon="-1.53583">
        <ele>79.5</ele>
        <time>2022-02-28T17:13:03Z</time>
      </trkpt>
      <trkpt lat="49.54318" lon="-1.53577">
        <ele>80</ele>
        <time>2022-02-28T17:13:06Z</time>
      </trkpt>
      <trkpt lat="49.54315" lon="-1.5357">
        <ele>80.7</ele>
        <time>2022-02-28T17:13:13Z</time>
      </trkpt>
      <trkpt lat="49.5431" lon="-1.53566">
        <ele>80.8</ele>
        <time>2022-02-28T17:13:16Z</time>
      </trkpt>
      <trkpt lat="49.54308" lon="-1.53558">
        <ele>80.9</ele>
        <time>2022-02-28T17:13:20Z</time>
      </trkpt>
      <trkpt lat="49.54305" lon="-1.53549">
        <ele>81.1</ele>
        <time>2022-02-28T17:13:25Z</time>
      </trkpt>
      <trkpt lat="49.543" lon="-1.53541">
        <ele>81.2</ele>
        <time>2022-02-28T17:13:30Z</time>
      </trkpt>
      <trkpt lat="49.54298" lon="-1.53535">
        <ele>81.6</ele>
        <time>2022-02-28T17:13:36Z</time>
      </trkpt>
      <trkpt lat="49.54295" lon="-1.53526">
        <ele>82.1</ele>
        <time>2022-02-28T17:13:40Z</time>
      </trkpt>
      <trkpt lat="49.54291" lon="-1.53519">
        <ele>82.2</ele>
        <time>2022-02-28T17:13:44Z</time>
      </trkpt>
      <trkpt lat="49.54275" lon="-1.53485">
        <ele>82.6</ele>
        <time>2022-02-28T17:14:03Z</time>
      </trkpt>
      <trkpt lat="49.54273" lon="-1.53478">
        <ele>82.8</ele>
        <time>2022-02-28T17:14:07Z</time>
      </trkpt>
      <trkpt lat="49.5427" lon="-1.5347">
        <ele>82.9</ele>
        <time>2022-02-28T17:14:11Z</time>
      </trkpt>
      <trkpt lat="49.54267" lon="-1.53465">
        <ele>83.2</ele>
        <time>2022-02-28T17:14:14Z</time>
      </trkpt>
      <trkpt lat="49.54264" lon="-1.5346">
        <ele>83.7</ele>
        <time>2022-02-28T17:14:18Z</time>
      </trkpt>
      <trkpt lat="49.54262" lon="-1.53452">
        <ele>83.8</ele>
        <time>2022-02-28T17:14:22Z</time>
      </trkpt>
      <trkpt lat="49.54259" lon="-1.53444">
        <ele>84</ele>
        <time>2022-02-28T17:14:25Z</time>
      </trkpt>
      <trkpt lat="49.54254" lon="-1.53439">
        <ele>84.4</ele>
        <time>2022-02-28T17:14:30Z</time>
      </trkpt>
      <trkpt lat="49.5425" lon="-1.53434">
        <ele>84.6</ele>
        <time>2022-02-28T17:14:34Z</time>
      </trkpt>
      <trkpt lat="49.54246" lon="-1.5343">
        <ele>84.7</ele>
        <time>2022-02-28T17:14:38Z</time>
      </trkpt>
      <trkpt lat="49.54247" lon="-1.53421">
        <ele>84.7</ele>
        <time>2022-02-28T17:14:51Z</time>
      </trkpt>
      <trkpt lat="49.54245" lon="-1.53413">
        <ele>84.8</ele>
        <time>2022-02-28T17:14:54Z</time>
      </trkpt>
      <trkpt lat="49.54243" lon="-1.53405">
        <ele>85.2</ele>
        <time>2022-02-28T17:14:58Z</time>
      </trkpt>
      <trkpt lat="49.54239" lon="-1.53397">
        <ele>85.9</ele>
        <time>2022-02-28T17:15:04Z</time>
      </trkpt>
      <trkpt lat="49.54236" lon="-1.53389">
        <ele>86.2</ele>
        <time>2022-02-28T17:15:08Z</time>
      </trkpt>
      <trkpt lat="49.54233" lon="-1.53384">
        <ele>86.1</ele>
        <time>2022-02-28T17:15:12Z</time>
      </trkpt>
      <trkpt lat="49.5423" lon="-1.53376">
        <ele>85.9</ele>
        <time>2022-02-28T17:15:16Z</time>
      </trkpt>
      <trkpt lat="49.54228" lon="-1.53369">
        <ele>85.8</ele>
        <time>2022-02-28T17:15:20Z</time>
      </trkpt>
      <trkpt lat="49.54226" lon="-1.53362">
        <ele>86.1</ele>
        <time>2022-02-28T17:15:23Z</time>
      </trkpt>
      <trkpt lat="49.54223" lon="-1.53355">
        <ele>86</ele>
        <time>2022-02-28T17:15:28Z</time>
      </trkpt>
      <trkpt lat="49.54221" lon="-1.53347">
        <ele>85</ele>
        <time>2022-02-28T17:15:33Z</time>
      </trkpt>
      <trkpt lat="49.54216" lon="-1.53341">
        <ele>84.8</ele>
        <time>2022-02-28T17:15:38Z</time>
      </trkpt>
      <trkpt lat="49.54213" lon="-1.53335">
        <ele>84.9</ele>
        <time>2022-02-28T17:15:42Z</time>
      </trkpt>
      <trkpt lat="49.54211" lon="-1.53328">
        <ele>85.3</ele>
        <time>2022-02-28T17:15:45Z</time>
      </trkpt>
      <trkpt lat="49.54207" lon="-1.5332">
        <ele>85.7</ele>
        <time>2022-02-28T17:15:49Z</time>
      </trkpt>
      <trkpt lat="49.54203" lon="-1.53312">
        <ele>86.1</ele>
        <time>2022-02-28T17:15:54Z</time>
      </trkpt>
      <trkpt lat="49.54201" lon="-1.53305">
        <ele>86.2</ele>
        <time>2022-02-28T17:15:59Z</time>
      </trkpt>
      <trkpt lat="49.54199" lon="-1.53298">
        <ele>86.3</ele>
        <time>2022-02-28T17:16:05Z</time>
      </trkpt>
      <trkpt lat="49.54196" lon="-1.53291">
        <ele>86.6</ele>
        <time>2022-02-28T17:16:10Z</time>
      </trkpt>
      <trkpt lat="49.54193" lon="-1.53283">
        <ele>86.7</ele>
        <time>2022-02-28T17:16:13Z</time>
      </trkpt>
      <trkpt lat="49.54185" lon="-1.53264">
        <ele>87.3</ele>
        <time>2022-02-28T17:16:22Z</time>
      </trkpt>
      <trkpt lat="49.54182" lon="-1.53257">
        <ele>88.1</ele>
        <time>2022-02-28T17:16:28Z</time>
      </trkpt>
      <trkpt lat="49.54179" lon="-1.53251">
        <ele>88.4</ele>
        <time>2022-02-28T17:16:33Z</time>
      </trkpt>
      <trkpt lat="49.54177" lon="-1.53244">
        <ele>88.4</ele>
        <time>2022-02-28T17:16:38Z</time>
      </trkpt>
      <trkpt lat="49.54174" lon="-1.53238">
        <ele>88.4</ele>
        <time>2022-02-28T17:16:42Z</time>
      </trkpt>
      <trkpt lat="49.54172" lon="-1.53231">
        <ele>88.5</ele>
        <time>2022-02-28T17:16:46Z</time>
      </trkpt>
      <trkpt lat="49.54169" lon="-1.53224">
        <ele>89</ele>
        <time>2022-02-28T17:16:51Z</time>
      </trkpt>
      <trkpt lat="49.54166" lon="-1.53218">
        <ele>89.2</ele>
        <time>2022-02-28T17:16:54Z</time>
      </trkpt>
      <trkpt lat="49.54164" lon="-1.53212">
        <ele>89.2</ele>
        <time>2022-02-28T17:16:58Z</time>
      </trkpt>
      <trkpt lat="49.54162" lon="-1.53205">
        <ele>89.2</ele>
        <time>2022-02-28T17:17:01Z</time>
      </trkpt>
      <trkpt lat="49.54158" lon="-1.5319">
        <ele>89.1</ele>
        <time>2022-02-28T17:17:07Z</time>
      </trkpt>
      <trkpt lat="49.54156" lon="-1.53182">
        <ele>89.2</ele>
        <time>2022-02-28T17:17:10Z</time>
      </trkpt>
      <trkpt lat="49.54153" lon="-1.53175">
        <ele>89.3</ele>
        <time>2022-02-28T17:17:13Z</time>
      </trkpt>
      <trkpt lat="49.54151" lon="-1.53168">
        <ele>89.4</ele>
        <time>2022-02-28T17:17:16Z</time>
      </trkpt>
      <trkpt lat="49.54149" lon="-1.53159">
        <ele>89.6</ele>
        <time>2022-02-28T17:17:20Z</time>
      </trkpt>
      <trkpt lat="49.54143" lon="-1.53138">
        <ele>89.8</ele>
        <time>2022-02-28T17:17:26Z</time>
      </trkpt>
      <trkpt lat="49.54141" lon="-1.53131">
        <ele>89.7</ele>
        <time>2022-02-28T17:17:29Z</time>
      </trkpt>
      <trkpt lat="49.54136" lon="-1.53122">
        <ele>89.7</ele>
        <time>2022-02-28T17:17:34Z</time>
      </trkpt>
      <trkpt lat="49.54131" lon="-1.53113">
        <ele>89.8</ele>
        <time>2022-02-28T17:17:36Z</time>
      </trkpt>
      <trkpt lat="49.54127" lon="-1.53107">
        <ele>90</ele>
        <time>2022-02-28T17:17:38Z</time>
      </trkpt>
      <trkpt lat="49.54123" lon="-1.53102">
        <ele>90.2</ele>
        <time>2022-02-28T17:17:40Z</time>
      </trkpt>
      <trkpt lat="49.5412" lon="-1.53096">
        <ele>89.5</ele>
        <time>2022-02-28T17:17:47Z</time>
      </trkpt>
      <trkpt lat="49.54118" lon="-1.53089">
        <ele>88.9</ele>
        <time>2022-02-28T17:17:52Z</time>
      </trkpt>
      <trkpt lat="49.54115" lon="-1.53083">
        <ele>89.4</ele>
        <time>2022-02-28T17:17:56Z</time>
      </trkpt>
      <trkpt lat="49.54111" lon="-1.53078">
        <ele>90</ele>
        <time>2022-02-28T17:17:59Z</time>
      </trkpt>
      <trkpt lat="49.54108" lon="-1.53073">
        <ele>90.5</ele>
        <time>2022-02-28T17:18:02Z</time>
      </trkpt>
      <trkpt lat="49.54105" lon="-1.53066">
        <ele>90.9</ele>
        <time>2022-02-28T17:18:07Z</time>
      </trkpt>
      <trkpt lat="49.54102" lon="-1.5306">
        <ele>91.1</ele>
        <time>2022-02-28T17:18:10Z</time>
      </trkpt>
      <trkpt lat="49.54098" lon="-1.53056">
        <ele>91.3</ele>
        <time>2022-02-28T17:18:13Z</time>
      </trkpt>
      <trkpt lat="49.54092" lon="-1.53056">
        <ele>92.2</ele>
        <time>2022-02-28T17:18:20Z</time>
      </trkpt>
      <trkpt lat="49.54088" lon="-1.53059">
        <ele>91.7</ele>
        <time>2022-02-28T17:18:27Z</time>
      </trkpt>
      <trkpt lat="49.54085" lon="-1.53065">
        <ele>91.9</ele>
        <time>2022-02-28T17:18:34Z</time>
      </trkpt>
      <trkpt lat="49.54081" lon="-1.53072">
        <ele>92.1</ele>
        <time>2022-02-28T17:18:37Z</time>
      </trkpt>
      <trkpt lat="49.54077" lon="-1.53079">
        <ele>92.3</ele>
        <time>2022-02-28T17:18:40Z</time>
      </trkpt>
      <trkpt lat="49.54074" lon="-1.53086">
        <ele>92.2</ele>
        <time>2022-02-28T17:18:43Z</time>
      </trkpt>
      <trkpt lat="49.54069" lon="-1.53093">
        <ele>92.3</ele>
        <time>2022-02-28T17:18:47Z</time>
      </trkpt>
      <trkpt lat="49.54065" lon="-1.53096">
        <ele>92.4</ele>
        <time>2022-02-28T17:18:51Z</time>
      </trkpt>
      <trkpt lat="49.54063" lon="-1.53103">
        <ele>93.3</ele>
        <time>2022-02-28T17:19:06Z</time>
      </trkpt>
      <trkpt lat="49.54059" lon="-1.53108">
        <ele>93.2</ele>
        <time>2022-02-28T17:19:09Z</time>
      </trkpt>
      <trkpt lat="49.54055" lon="-1.53113">
        <ele>93</ele>
        <time>2022-02-28T17:19:12Z</time>
      </trkpt>
      <trkpt lat="49.54025" lon="-1.53168">
        <ele>91</ele>
        <time>2022-02-28T17:19:38Z</time>
      </trkpt>
      <trkpt lat="49.54024" lon="-1.53175">
        <ele>91</ele>
        <time>2022-02-28T17:19:58Z</time>
      </trkpt>
      <trkpt lat="49.5402" lon="-1.53179">
        <ele>90.9</ele>
        <time>2022-02-28T17:20:06Z</time>
      </trkpt>
      <trkpt lat="49.54016" lon="-1.53182">
        <ele>90.7</ele>
        <time>2022-02-28T17:20:14Z</time>
      </trkpt>
      <trkpt lat="49.54011" lon="-1.53183">
        <ele>90.5</ele>
        <time>2022-02-28T17:20:19Z</time>
      </trkpt>
      <trkpt lat="49.54006" lon="-1.53183">
        <ele>90.5</ele>
        <time>2022-02-28T17:20:31Z</time>
      </trkpt>
      <trkpt lat="49.54001" lon="-1.53183">
        <ele>90.4</ele>
        <time>2022-02-28T17:20:35Z</time>
      </trkpt>
      <trkpt lat="49.53995" lon="-1.53182">
        <ele>90.4</ele>
        <time>2022-02-28T17:20:40Z</time>
      </trkpt>
      <trkpt lat="49.53989" lon="-1.53179">
        <ele>90.2</ele>
        <time>2022-02-28T17:20:45Z</time>
      </trkpt>
      <trkpt lat="49.53985" lon="-1.53175">
        <ele>90.1</ele>
        <time>2022-02-28T17:20:50Z</time>
      </trkpt>
      <trkpt lat="49.5398" lon="-1.53171">
        <ele>90.2</ele>
        <time>2022-02-28T17:20:54Z</time>
      </trkpt>
      <trkpt lat="49.53975" lon="-1.53169">
        <ele>90.4</ele>
        <time>2022-02-28T17:20:58Z</time>
      </trkpt>
      <trkpt lat="49.5397" lon="-1.53165">
        <ele>90.9</ele>
        <time>2022-02-28T17:21:02Z</time>
      </trkpt>
      <trkpt lat="49.53966" lon="-1.53161">
        <ele>91.5</ele>
        <time>2022-02-28T17:21:06Z</time>
      </trkpt>
      <trkpt lat="49.5396" lon="-1.53159">
        <ele>91.8</ele>
        <time>2022-02-28T17:21:10Z</time>
      </trkpt>
      <trkpt lat="49.53955" lon="-1.53157">
        <ele>92.1</ele>
        <time>2022-02-28T17:21:14Z</time>
      </trkpt>
      <trkpt lat="49.5395" lon="-1.53157">
        <ele>92.6</ele>
        <time>2022-02-28T17:21:18Z</time>
      </trkpt>
      <trkpt lat="49.53944" lon="-1.53157">
        <ele>93.8</ele>
        <time>2022-02-28T17:21:26Z</time>
      </trkpt>
      <trkpt lat="49.53939" lon="-1.5316">
        <ele>94.4</ele>
        <time>2022-02-28T17:21:30Z</time>
      </trkpt>
      <trkpt lat="49.53934" lon="-1.53162">
        <ele>95.1</ele>
        <time>2022-02-28T17:21:38Z</time>
      </trkpt>
      <trkpt lat="49.53931" lon="-1.53168">
        <ele>95.2</ele>
        <time>2022-02-28T17:21:41Z</time>
      </trkpt>
      <trkpt lat="49.53927" lon="-1.53174">
        <ele>95.4</ele>
        <time>2022-02-28T17:21:45Z</time>
      </trkpt>
      <trkpt lat="49.53923" lon="-1.5318">
        <ele>95.4</ele>
        <time>2022-02-28T17:21:48Z</time>
      </trkpt>
      <trkpt lat="49.53919" lon="-1.53187">
        <ele>95.4</ele>
        <time>2022-02-28T17:21:52Z</time>
      </trkpt>
      <trkpt lat="49.53917" lon="-1.53194">
        <ele>95.5</ele>
        <time>2022-02-28T17:21:55Z</time>
      </trkpt>
      <trkpt lat="49.53915" lon="-1.53201">
        <ele>95.6</ele>
        <time>2022-02-28T17:21:59Z</time>
      </trkpt>
      <trkpt lat="49.53912" lon="-1.53209">
        <ele>95.8</ele>
        <time>2022-02-28T17:22:03Z</time>
      </trkpt>
      <trkpt lat="49.53908" lon="-1.53214">
        <ele>96</ele>
        <time>2022-02-28T17:22:07Z</time>
      </trkpt>
      <trkpt lat="49.53902" lon="-1.53214">
        <ele>96.1</ele>
        <time>2022-02-28T17:22:11Z</time>
      </trkpt>
      <trkpt lat="49.53898" lon="-1.5321">
        <ele>96.3</ele>
        <time>2022-02-28T17:22:14Z</time>
      </trkpt>
      <trkpt lat="49.53895" lon="-1.53205">
        <ele>96.5</ele>
        <time>2022-02-28T17:22:17Z</time>
      </trkpt>
      <trkpt lat="49.53891" lon="-1.532">
        <ele>96.7</ele>
        <time>2022-02-28T17:22:23Z</time>
      </trkpt>
      <trkpt lat="49.53887" lon="-1.53195">
        <ele>96.7</ele>
        <time>2022-02-28T17:22:27Z</time>
      </trkpt>
      <trkpt lat="49.53881" lon="-1.53191">
        <ele>96.9</ele>
        <time>2022-02-28T17:22:31Z</time>
      </trkpt>
      <trkpt lat="49.53877" lon="-1.53186">
        <ele>97.5</ele>
        <time>2022-02-28T17:22:35Z</time>
      </trkpt>
      <trkpt lat="49.53873" lon="-1.53181">
        <ele>97.8</ele>
        <time>2022-02-28T17:22:38Z</time>
      </trkpt>
      <trkpt lat="49.53871" lon="-1.53173">
        <ele>98.2</ele>
        <time>2022-02-28T17:22:42Z</time>
      </trkpt>
      <trkpt lat="49.53869" lon="-1.53166">
        <ele>98.7</ele>
        <time>2022-02-28T17:22:47Z</time>
      </trkpt>
      <trkpt lat="49.53866" lon="-1.53162">
        <ele>98.9</ele>
        <time>2022-02-28T17:22:50Z</time>
      </trkpt>
      <trkpt lat="49.53862" lon="-1.53158">
        <ele>99.2</ele>
        <time>2022-02-28T17:22:54Z</time>
      </trkpt>
      <trkpt lat="49.53857" lon="-1.53157">
        <ele>99.7</ele>
        <time>2022-02-28T17:22:58Z</time>
      </trkpt>
      <trkpt lat="49.53853" lon="-1.5315">
        <ele>100.1</ele>
        <time>2022-02-28T17:23:03Z</time>
      </trkpt>
      <trkpt lat="49.53852" lon="-1.5314">
        <ele>100.2</ele>
        <time>2022-02-28T17:23:07Z</time>
      </trkpt>
      <trkpt lat="49.5385" lon="-1.53134">
        <ele>100.6</ele>
        <time>2022-02-28T17:23:11Z</time>
      </trkpt>
      <trkpt lat="49.53846" lon="-1.53129">
        <ele>101</ele>
        <time>2022-02-28T17:23:14Z</time>
      </trkpt>
      <trkpt lat="49.53842" lon="-1.53125">
        <ele>101.3</ele>
        <time>2022-02-28T17:23:18Z</time>
      </trkpt>
      <trkpt lat="49.53838" lon="-1.53121">
        <ele>101.5</ele>
        <time>2022-02-28T17:23:21Z</time>
      </trkpt>
      <trkpt lat="49.53835" lon="-1.53113">
        <ele>101.6</ele>
        <time>2022-02-28T17:23:25Z</time>
      </trkpt>
      <trkpt lat="49.53828" lon="-1.53107">
        <ele>101.5</ele>
        <time>2022-02-28T17:23:30Z</time>
      </trkpt>
      <trkpt lat="49.53824" lon="-1.53102">
        <ele>101.8</ele>
        <time>2022-02-28T17:23:33Z</time>
      </trkpt>
      <trkpt lat="49.53819" lon="-1.53093">
        <ele>102.7</ele>
        <time>2022-02-28T17:23:38Z</time>
      </trkpt>
      <trkpt lat="49.53815" lon="-1.53086">
        <ele>103</ele>
        <time>2022-02-28T17:23:42Z</time>
      </trkpt>
      <trkpt lat="49.53812" lon="-1.5308">
        <ele>103.3</ele>
        <time>2022-02-28T17:23:45Z</time>
      </trkpt>
      <trkpt lat="49.53808" lon="-1.53075">
        <ele>103.3</ele>
        <time>2022-02-28T17:23:48Z</time>
      </trkpt>
      <trkpt lat="49.53804" lon="-1.5307">
        <ele>103.6</ele>
        <time>2022-02-28T17:23:58Z</time>
      </trkpt>
      <trkpt lat="49.53803" lon="-1.53062">
        <ele>103.8</ele>
        <time>2022-02-28T17:24:02Z</time>
      </trkpt>
      <trkpt lat="49.53799" lon="-1.53059">
        <ele>103.8</ele>
        <time>2022-02-28T17:24:04Z</time>
      </trkpt>
      <trkpt lat="49.53793" lon="-1.53059">
        <ele>103.6</ele>
        <time>2022-02-28T17:24:08Z</time>
      </trkpt>
      <trkpt lat="49.53789" lon="-1.53063">
        <ele>103.3</ele>
        <time>2022-02-28T17:24:11Z</time>
      </trkpt>
      <trkpt lat="49.53785" lon="-1.5307">
        <ele>102.9</ele>
        <time>2022-02-28T17:24:15Z</time>
      </trkpt>
      <trkpt lat="49.53783" lon="-1.53077">
        <ele>102.5</ele>
        <time>2022-02-28T17:24:18Z</time>
      </trkpt>
      <trkpt lat="49.53778" lon="-1.5308">
        <ele>102.1</ele>
        <time>2022-02-28T17:24:22Z</time>
      </trkpt>
      <trkpt lat="49.53772" lon="-1.53079">
        <ele>101.9</ele>
        <time>2022-02-28T17:24:25Z</time>
      </trkpt>
      <trkpt lat="49.53767" lon="-1.53081">
        <ele>101.2</ele>
        <time>2022-02-28T17:24:29Z</time>
      </trkpt>
      <trkpt lat="49.53761" lon="-1.53084">
        <ele>100.6</ele>
        <time>2022-02-28T17:24:33Z</time>
      </trkpt>
      <trkpt lat="49.53756" lon="-1.53086">
        <ele>100.3</ele>
        <time>2022-02-28T17:24:38Z</time>
      </trkpt>
      <trkpt lat="49.53753" lon="-1.53093">
        <ele>100.2</ele>
        <time>2022-02-28T17:24:42Z</time>
      </trkpt>
      <trkpt lat="49.53748" lon="-1.53092">
        <ele>100.3</ele>
        <time>2022-02-28T17:24:45Z</time>
      </trkpt>
      <trkpt lat="49.53744" lon="-1.53091">
        <ele>100.3</ele>
        <time>2022-02-28T17:24:48Z</time>
      </trkpt>
      <trkpt lat="49.53739" lon="-1.53091">
        <ele>100.3</ele>
        <time>2022-02-28T17:24:51Z</time>
      </trkpt>
      <trkpt lat="49.53733" lon="-1.53091">
        <ele>100.2</ele>
        <time>2022-02-28T17:24:55Z</time>
      </trkpt>
      <trkpt lat="49.53727" lon="-1.53088">
        <ele>99.5</ele>
        <time>2022-02-28T17:25:14Z</time>
      </trkpt>
      <trkpt lat="49.53722" lon="-1.53085">
        <ele>99.2</ele>
        <time>2022-02-28T17:25:18Z</time>
      </trkpt>
      <trkpt lat="49.53717" lon="-1.53081">
        <ele>98.9</ele>
        <time>2022-02-28T17:25:21Z</time>
      </trkpt>
      <trkpt lat="49.53711" lon="-1.53079">
        <ele>98.6</ele>
        <time>2022-02-28T17:25:25Z</time>
      </trkpt>
      <trkpt lat="49.53706" lon="-1.53077">
        <ele>98.4</ele>
        <time>2022-02-28T17:25:29Z</time>
      </trkpt>
      <trkpt lat="49.53701" lon="-1.53076">
        <ele>98.3</ele>
        <time>2022-02-28T17:25:33Z</time>
      </trkpt>
      <trkpt lat="49.53695" lon="-1.53074">
        <ele>97.9</ele>
        <time>2022-02-28T17:25:37Z</time>
      </trkpt>
      <trkpt lat="49.5369" lon="-1.53073">
        <ele>97.5</ele>
        <time>2022-02-28T17:25:40Z</time>
      </trkpt>
      <trkpt lat="49.53685" lon="-1.53071">
        <ele>97.7</ele>
        <time>2022-02-28T17:25:53Z</time>
      </trkpt>
      <trkpt lat="49.5368" lon="-1.53064">
        <ele>97.5</ele>
        <time>2022-02-28T17:25:57Z</time>
      </trkpt>
      <trkpt lat="49.53676" lon="-1.53059">
        <ele>97</ele>
        <time>2022-02-28T17:26:00Z</time>
      </trkpt>
      <trkpt lat="49.53672" lon="-1.53056">
        <ele>96.6</ele>
        <time>2022-02-28T17:26:03Z</time>
      </trkpt>
      <trkpt lat="49.53667" lon="-1.53052">
        <ele>96.2</ele>
        <time>2022-02-28T17:26:07Z</time>
      </trkpt>
      <trkpt lat="49.53662" lon="-1.53051">
        <ele>96.1</ele>
        <time>2022-02-28T17:26:10Z</time>
      </trkpt>
      <trkpt lat="49.53657" lon="-1.53051">
        <ele>96.1</ele>
        <time>2022-02-28T17:26:13Z</time>
      </trkpt>
      <trkpt lat="49.53651" lon="-1.53054">
        <ele>95.9</ele>
        <time>2022-02-28T17:26:18Z</time>
      </trkpt>
      <trkpt lat="49.53645" lon="-1.53056">
        <ele>95.6</ele>
        <time>2022-02-28T17:26:27Z</time>
      </trkpt>
      <trkpt lat="49.5364" lon="-1.53056">
        <ele>95.3</ele>
        <time>2022-02-28T17:26:30Z</time>
      </trkpt>
      <trkpt lat="49.53636" lon="-1.53062">
        <ele>94.6</ele>
        <time>2022-02-28T17:26:41Z</time>
      </trkpt>
      <trkpt lat="49.53631" lon="-1.53064">
        <ele>94.5</ele>
        <time>2022-02-28T17:26:44Z</time>
      </trkpt>
      <trkpt lat="49.53625" lon="-1.53067">
        <ele>94.6</ele>
        <time>2022-02-28T17:26:48Z</time>
      </trkpt>
      <trkpt lat="49.5362" lon="-1.53069">
        <ele>94.8</ele>
        <time>2022-02-28T17:26:50Z</time>
      </trkpt>
      <trkpt lat="49.53608" lon="-1.53076">
        <ele>93.4</ele>
        <time>2022-02-28T17:26:58Z</time>
      </trkpt>
      <trkpt lat="49.53604" lon="-1.5308">
        <ele>92.6</ele>
        <time>2022-02-28T17:27:09Z</time>
      </trkpt>
      <trkpt lat="49.536" lon="-1.53082">
        <ele>92.8</ele>
        <time>2022-02-28T17:27:12Z</time>
      </trkpt>
      <trkpt lat="49.53594" lon="-1.53085">
        <ele>93.1</ele>
        <time>2022-02-28T17:27:16Z</time>
      </trkpt>
      <trkpt lat="49.53589" lon="-1.53086">
        <ele>93.1</ele>
        <time>2022-02-28T17:27:19Z</time>
      </trkpt>
      <trkpt lat="49.53584" lon="-1.53089">
        <ele>93.2</ele>
        <time>2022-02-28T17:27:22Z</time>
      </trkpt>
      <trkpt lat="49.5358" lon="-1.53092">
        <ele>93.1</ele>
        <time>2022-02-28T17:27:25Z</time>
      </trkpt>
      <trkpt lat="49.53576" lon="-1.53097">
        <ele>93.2</ele>
        <time>2022-02-28T17:27:28Z</time>
      </trkpt>
      <trkpt lat="49.53571" lon="-1.53099">
        <ele>93.2</ele>
        <time>2022-02-28T17:27:31Z</time>
      </trkpt>
      <trkpt lat="49.53566" lon="-1.531">
        <ele>93</ele>
        <time>2022-02-28T17:27:35Z</time>
      </trkpt>
      <trkpt lat="49.5356" lon="-1.53101">
        <ele>92.8</ele>
        <time>2022-02-28T17:27:39Z</time>
      </trkpt>
      <trkpt lat="49.53556" lon="-1.53099">
        <ele>92.8</ele>
        <time>2022-02-28T17:27:43Z</time>
      </trkpt>
      <trkpt lat="49.53551" lon="-1.53097">
        <ele>92.8</ele>
        <time>2022-02-28T17:27:46Z</time>
      </trkpt>
      <trkpt lat="49.53547" lon="-1.53094">
        <ele>92.8</ele>
        <time>2022-02-28T17:27:49Z</time>
      </trkpt>
      <trkpt lat="49.53535" lon="-1.53088">
        <ele>92</ele>
        <time>2022-02-28T17:27:58Z</time>
      </trkpt>
      <trkpt lat="49.53529" lon="-1.53087">
        <ele>91.3</ele>
        <time>2022-02-28T17:28:02Z</time>
      </trkpt>
      <trkpt lat="49.53525" lon="-1.53085">
        <ele>91.2</ele>
        <time>2022-02-28T17:28:05Z</time>
      </trkpt>
      <trkpt lat="49.5352" lon="-1.53083">
        <ele>91.6</ele>
        <time>2022-02-28T17:28:09Z</time>
      </trkpt>
      <trkpt lat="49.53514" lon="-1.53083">
        <ele>91.9</ele>
        <time>2022-02-28T17:28:16Z</time>
      </trkpt>
      <trkpt lat="49.53509" lon="-1.53079">
        <ele>91.7</ele>
        <time>2022-02-28T17:28:20Z</time>
      </trkpt>
      <trkpt lat="49.53505" lon="-1.53077">
        <ele>91.2</ele>
        <time>2022-02-28T17:28:23Z</time>
      </trkpt>
      <trkpt lat="49.53499" lon="-1.53077">
        <ele>90.3</ele>
        <time>2022-02-28T17:28:28Z</time>
      </trkpt>
      <trkpt lat="49.53493" lon="-1.53077">
        <ele>89.6</ele>
        <time>2022-02-28T17:28:32Z</time>
      </trkpt>
      <trkpt lat="49.53488" lon="-1.53078">
        <ele>89.5</ele>
        <time>2022-02-28T17:28:34Z</time>
      </trkpt>
      <trkpt lat="49.53484" lon="-1.53081">
        <ele>89.4</ele>
        <time>2022-02-28T17:28:38Z</time>
      </trkpt>
      <trkpt lat="49.53479" lon="-1.53082">
        <ele>89</ele>
        <time>2022-02-28T17:28:43Z</time>
      </trkpt>
      <trkpt lat="49.53475" lon="-1.53087">
        <ele>88.4</ele>
        <time>2022-02-28T17:28:50Z</time>
      </trkpt>
      <trkpt lat="49.53478" lon="-1.53095">
        <ele>88.3</ele>
        <time>2022-02-28T17:28:55Z</time>
      </trkpt>
      <trkpt lat="49.5348" lon="-1.53103">
        <ele>88.1</ele>
        <time>2022-02-28T17:28:58Z</time>
      </trkpt>
      <trkpt lat="49.53479" lon="-1.53112">
        <ele>88</ele>
        <time>2022-02-28T17:29:02Z</time>
      </trkpt>
      <trkpt lat="49.53475" lon="-1.53114">
        <ele>88</ele>
        <time>2022-02-28T17:29:06Z</time>
      </trkpt>
      <trkpt lat="49.53446" lon="-1.53102">
        <ele>88.2</ele>
        <time>2022-02-28T17:29:24Z</time>
      </trkpt>
      <trkpt lat="49.5344" lon="-1.53101">
        <ele>88.3</ele>
        <time>2022-02-28T17:29:27Z</time>
      </trkpt>
      <trkpt lat="49.53435" lon="-1.53101">
        <ele>88.7</ele>
        <time>2022-02-28T17:29:31Z</time>
      </trkpt>
      <trkpt lat="49.53429" lon="-1.531">
        <ele>89</ele>
        <time>2022-02-28T17:29:35Z</time>
      </trkpt>
      <trkpt lat="49.53425" lon="-1.53098">
        <ele>89.4</ele>
        <time>2022-02-28T17:29:38Z</time>
      </trkpt>
      <trkpt lat="49.5342" lon="-1.53095">
        <ele>89.5</ele>
        <time>2022-02-28T17:29:42Z</time>
      </trkpt>
    </trkseg>
  </trk>
</gpx>